<?xml version="1.0" encoding="UTF-8" standalone="no" ?>
<gpx xmlns="http://www.topografix.com/GPX/1/1" xmlns:xsi="http://www.w3.org/2001/XMLSchema-instance" xsi:schemaLocation="http://www.topografix.com/GPX/1/1 http://www.topografix.com/GPX/1/1/gpx.xsd" version="1.1" creator="VisuGPX - https://www.visugpx.com">
  <metadata>
    <name>GR20</name>
    <desc><![CDATA[GR20 - Juin 2015]]></desc>
  </metadata>
  <trk>
    <name><![CDATA[GR20 I Paliri - Asinau]]></name>
    <trkseg>
      <trkpt lat="41.79382" lon="9.25857">
        <ele>1033</ele>
        <time>2015-06-19T05:02:36Z</time>
      </trkpt>
      <trkpt lat="41.79382" lon="9.25857">
        <ele>1033.4</ele>
        <time>2015-06-19T05:02:37Z</time>
      </trkpt>
      <trkpt lat="41.79383" lon="9.25854">
        <ele>1033.4</ele>
        <time>2015-06-19T05:02:38Z</time>
      </trkpt>
      <trkpt lat="41.79385" lon="9.25846">
        <ele>1033.2</ele>
        <time>2015-06-19T05:02:41Z</time>
      </trkpt>
      <trkpt lat="41.79385" lon="9.25843">
        <ele>1033</ele>
        <time>2015-06-19T05:02:42Z</time>
      </trkpt>
      <trkpt lat="41.79385" lon="9.25842">
        <ele>1033</ele>
        <time>2015-06-19T05:02:43Z</time>
      </trkpt>
      <trkpt lat="41.79385" lon="9.2584">
        <ele>1033</ele>
        <time>2015-06-19T05:02:44Z</time>
      </trkpt>
      <trkpt lat="41.79385" lon="9.25839">
        <ele>1033</ele>
        <time>2015-06-19T05:02:45Z</time>
      </trkpt>
      <trkpt lat="41.79385" lon="9.25838">
        <ele>1033.2</ele>
        <time>2015-06-19T05:02:46Z</time>
      </trkpt>
      <trkpt lat="41.79385" lon="9.25838">
        <ele>1033.4</ele>
        <time>2015-06-19T05:02:47Z</time>
      </trkpt>
      <trkpt lat="41.79385" lon="9.25837">
        <ele>1033.4</ele>
        <time>2015-06-19T05:02:48Z</time>
      </trkpt>
      <trkpt lat="41.79384" lon="9.25837">
        <ele>1033.6</ele>
        <time>2015-06-19T05:02:49Z</time>
      </trkpt>
      <trkpt lat="41.79384" lon="9.25836">
        <ele>1033.4</ele>
        <time>2015-06-19T05:02:50Z</time>
      </trkpt>
      <trkpt lat="41.79384" lon="9.25836">
        <ele>1033.4</ele>
        <time>2015-06-19T05:02:51Z</time>
      </trkpt>
      <trkpt lat="41.79383" lon="9.25835">
        <ele>1033.4</ele>
        <time>2015-06-19T05:02:52Z</time>
      </trkpt>
      <trkpt lat="41.79383" lon="9.25834">
        <ele>1033.2</ele>
        <time>2015-06-19T05:02:53Z</time>
      </trkpt>
      <trkpt lat="41.79383" lon="9.25833">
        <ele>1033.2</ele>
        <time>2015-06-19T05:02:54Z</time>
      </trkpt>
      <trkpt lat="41.79383" lon="9.25832">
        <ele>1033.2</ele>
        <time>2015-06-19T05:02:55Z</time>
      </trkpt>
      <trkpt lat="41.79382" lon="9.25831">
        <ele>1033.4</ele>
        <time>2015-06-19T05:02:56Z</time>
      </trkpt>
      <trkpt lat="41.79383" lon="9.25831">
        <ele>1033.4</ele>
        <time>2015-06-19T05:02:57Z</time>
      </trkpt>
      <trkpt lat="41.79383" lon="9.2583">
        <ele>1033.4</ele>
        <time>2015-06-19T05:02:58Z</time>
      </trkpt>
      <trkpt lat="41.79383" lon="9.25829">
        <ele>1033.4</ele>
        <time>2015-06-19T05:02:59Z</time>
      </trkpt>
      <trkpt lat="41.79382" lon="9.25828">
        <ele>1033.6</ele>
        <time>2015-06-19T05:03:00Z</time>
      </trkpt>
      <trkpt lat="41.79383" lon="9.25827">
        <ele>1033.6</ele>
        <time>2015-06-19T05:03:01Z</time>
      </trkpt>
      <trkpt lat="41.79383" lon="9.25826">
        <ele>1033.6</ele>
        <time>2015-06-19T05:03:02Z</time>
      </trkpt>
      <trkpt lat="41.79384" lon="9.25826">
        <ele>1033.6</ele>
        <time>2015-06-19T05:03:03Z</time>
      </trkpt>
      <trkpt lat="41.79385" lon="9.25826">
        <ele>1033.6</ele>
        <time>2015-06-19T05:03:04Z</time>
      </trkpt>
      <trkpt lat="41.79386" lon="9.25827">
        <ele>1033.6</ele>
        <time>2015-06-19T05:03:05Z</time>
      </trkpt>
      <trkpt lat="41.79387" lon="9.25827">
        <ele>1033.4</ele>
        <time>2015-06-19T05:03:06Z</time>
      </trkpt>
      <trkpt lat="41.79388" lon="9.25827">
        <ele>1033.6</ele>
        <time>2015-06-19T05:03:07Z</time>
      </trkpt>
      <trkpt lat="41.79388" lon="9.25826">
        <ele>1033.6</ele>
        <time>2015-06-19T05:03:08Z</time>
      </trkpt>
      <trkpt lat="41.79389" lon="9.25826">
        <ele>1033.6</ele>
        <time>2015-06-19T05:03:09Z</time>
      </trkpt>
      <trkpt lat="41.79389" lon="9.25826">
        <ele>1033.6</ele>
        <time>2015-06-19T05:03:10Z</time>
      </trkpt>
      <trkpt lat="41.79389" lon="9.25825">
        <ele>1033.6</ele>
        <time>2015-06-19T05:03:11Z</time>
      </trkpt>
      <trkpt lat="41.79389" lon="9.25825">
        <ele>1033.6</ele>
        <time>2015-06-19T05:03:12Z</time>
      </trkpt>
      <trkpt lat="41.79389" lon="9.25825">
        <ele>1033.6</ele>
        <time>2015-06-19T05:03:13Z</time>
      </trkpt>
      <trkpt lat="41.79389" lon="9.25824">
        <ele>1033.6</ele>
        <time>2015-06-19T05:03:14Z</time>
      </trkpt>
      <trkpt lat="41.79389" lon="9.25824">
        <ele>1033.6</ele>
        <time>2015-06-19T05:03:15Z</time>
      </trkpt>
      <trkpt lat="41.79389" lon="9.25823">
        <ele>1033.4</ele>
        <time>2015-06-19T05:03:17Z</time>
      </trkpt>
      <trkpt lat="41.79389" lon="9.25822">
        <ele>1033.2</ele>
        <time>2015-06-19T05:03:19Z</time>
      </trkpt>
      <trkpt lat="41.79389" lon="9.25821">
        <ele>1033</ele>
        <time>2015-06-19T05:03:21Z</time>
      </trkpt>
      <trkpt lat="41.79388" lon="9.2582">
        <ele>1033</ele>
        <time>2015-06-19T05:03:23Z</time>
      </trkpt>
      <trkpt lat="41.79388" lon="9.25819">
        <ele>1033</ele>
        <time>2015-06-19T05:03:25Z</time>
      </trkpt>
      <trkpt lat="41.79388" lon="9.25818">
        <ele>1033</ele>
        <time>2015-06-19T05:03:27Z</time>
      </trkpt>
      <trkpt lat="41.79388" lon="9.25817">
        <ele>1032.6</ele>
        <time>2015-06-19T05:03:29Z</time>
      </trkpt>
      <trkpt lat="41.79388" lon="9.25816">
        <ele>1032.2</ele>
        <time>2015-06-19T05:03:31Z</time>
      </trkpt>
      <trkpt lat="41.79387" lon="9.25815">
        <ele>1032</ele>
        <time>2015-06-19T05:03:33Z</time>
      </trkpt>
      <trkpt lat="41.79387" lon="9.25814">
        <ele>1032</ele>
        <time>2015-06-19T05:03:35Z</time>
      </trkpt>
      <trkpt lat="41.79388" lon="9.25814">
        <ele>1032</ele>
        <time>2015-06-19T05:03:38Z</time>
      </trkpt>
      <trkpt lat="41.79387" lon="9.25814">
        <ele>1031.8</ele>
        <time>2015-06-19T05:03:41Z</time>
      </trkpt>
      <trkpt lat="41.79385" lon="9.25816">
        <ele>1031.8</ele>
        <time>2015-06-19T05:03:45Z</time>
      </trkpt>
      <trkpt lat="41.79381" lon="9.2582">
        <ele>1031.8</ele>
        <time>2015-06-19T05:03:50Z</time>
      </trkpt>
      <trkpt lat="41.79375" lon="9.25819">
        <ele>1031.6</ele>
        <time>2015-06-19T05:03:55Z</time>
      </trkpt>
      <trkpt lat="41.79371" lon="9.25819">
        <ele>1031.6</ele>
        <time>2015-06-19T05:04:00Z</time>
      </trkpt>
      <trkpt lat="41.79362" lon="9.25814">
        <ele>1031.4</ele>
        <time>2015-06-19T05:04:09Z</time>
      </trkpt>
      <trkpt lat="41.79349" lon="9.25811">
        <ele>1031</ele>
        <time>2015-06-19T05:04:21Z</time>
      </trkpt>
      <trkpt lat="41.79309" lon="9.25825">
        <ele>1030.4</ele>
        <time>2015-06-19T05:04:57Z</time>
      </trkpt>
      <trkpt lat="41.79298" lon="9.25826">
        <ele>1029.4</ele>
        <time>2015-06-19T05:05:09Z</time>
      </trkpt>
      <trkpt lat="41.79287" lon="9.25828">
        <ele>1028</ele>
        <time>2015-06-19T05:05:28Z</time>
      </trkpt>
      <trkpt lat="41.79278" lon="9.2583">
        <ele>1027.2</ele>
        <time>2015-06-19T05:05:38Z</time>
      </trkpt>
      <trkpt lat="41.79272" lon="9.25828">
        <ele>1025.8</ele>
        <time>2015-06-19T05:05:48Z</time>
      </trkpt>
      <trkpt lat="41.79266" lon="9.25821">
        <ele>1024.8</ele>
        <time>2015-06-19T05:05:58Z</time>
      </trkpt>
      <trkpt lat="41.79262" lon="9.25814">
        <ele>1023.8</ele>
        <time>2015-06-19T05:06:10Z</time>
      </trkpt>
      <trkpt lat="41.79259" lon="9.25808">
        <ele>1023</ele>
        <time>2015-06-19T05:06:17Z</time>
      </trkpt>
      <trkpt lat="41.79255" lon="9.25802">
        <ele>1021.8</ele>
        <time>2015-06-19T05:06:25Z</time>
      </trkpt>
      <trkpt lat="41.79252" lon="9.25797">
        <ele>1020.4</ele>
        <time>2015-06-19T05:06:33Z</time>
      </trkpt>
      <trkpt lat="41.79247" lon="9.25793">
        <ele>1019.6</ele>
        <time>2015-06-19T05:06:40Z</time>
      </trkpt>
      <trkpt lat="41.7924" lon="9.25788">
        <ele>1018.4</ele>
        <time>2015-06-19T05:06:49Z</time>
      </trkpt>
      <trkpt lat="41.79237" lon="9.25783">
        <ele>1017.6</ele>
        <time>2015-06-19T05:06:57Z</time>
      </trkpt>
      <trkpt lat="41.79236" lon="9.25777">
        <ele>1016.6</ele>
        <time>2015-06-19T05:07:04Z</time>
      </trkpt>
      <trkpt lat="41.79236" lon="9.25769">
        <ele>1015.2</ele>
        <time>2015-06-19T05:07:12Z</time>
      </trkpt>
      <trkpt lat="41.79234" lon="9.25765">
        <ele>1014.4</ele>
        <time>2015-06-19T05:07:21Z</time>
      </trkpt>
      <trkpt lat="41.79235" lon="9.2576">
        <ele>1013.4</ele>
        <time>2015-06-19T05:07:28Z</time>
      </trkpt>
      <trkpt lat="41.79232" lon="9.25753">
        <ele>1012.2</ele>
        <time>2015-06-19T05:07:37Z</time>
      </trkpt>
      <trkpt lat="41.79231" lon="9.25746">
        <ele>1011.4</ele>
        <time>2015-06-19T05:07:45Z</time>
      </trkpt>
      <trkpt lat="41.7923" lon="9.25738">
        <ele>1010</ele>
        <time>2015-06-19T05:07:53Z</time>
      </trkpt>
      <trkpt lat="41.79226" lon="9.25732">
        <ele>1008.8</ele>
        <time>2015-06-19T05:08:03Z</time>
      </trkpt>
      <trkpt lat="41.79222" lon="9.25727">
        <ele>1008</ele>
        <time>2015-06-19T05:08:12Z</time>
      </trkpt>
      <trkpt lat="41.79214" lon="9.25705">
        <ele>1006.6</ele>
        <time>2015-06-19T05:08:35Z</time>
      </trkpt>
      <trkpt lat="41.79212" lon="9.2569">
        <ele>1005.6</ele>
        <time>2015-06-19T05:08:48Z</time>
      </trkpt>
      <trkpt lat="41.7921" lon="9.25673">
        <ele>1004.6</ele>
        <time>2015-06-19T05:09:02Z</time>
      </trkpt>
      <trkpt lat="41.79209" lon="9.25664">
        <ele>1004.2</ele>
        <time>2015-06-19T05:09:08Z</time>
      </trkpt>
      <trkpt lat="41.79205" lon="9.25649">
        <ele>1004</ele>
        <time>2015-06-19T05:09:24Z</time>
      </trkpt>
      <trkpt lat="41.79208" lon="9.25643">
        <ele>1003.6</ele>
        <time>2015-06-19T05:09:35Z</time>
      </trkpt>
      <trkpt lat="41.79208" lon="9.25639">
        <ele>1003.8</ele>
        <time>2015-06-19T05:09:39Z</time>
      </trkpt>
      <trkpt lat="41.792" lon="9.256">
        <ele>1005.4</ele>
        <time>2015-06-19T05:10:19Z</time>
      </trkpt>
      <trkpt lat="41.79198" lon="9.25595">
        <ele>1004.8</ele>
        <time>2015-06-19T05:10:24Z</time>
      </trkpt>
      <trkpt lat="41.79198" lon="9.25592">
        <ele>1004.2</ele>
        <time>2015-06-19T05:10:26Z</time>
      </trkpt>
      <trkpt lat="41.792" lon="9.25579">
        <ele>1003</ele>
        <time>2015-06-19T05:10:38Z</time>
      </trkpt>
      <trkpt lat="41.79198" lon="9.2557">
        <ele>1002.4</ele>
        <time>2015-06-19T05:10:50Z</time>
      </trkpt>
      <trkpt lat="41.79197" lon="9.25565">
        <ele>1001.2</ele>
        <time>2015-06-19T05:10:59Z</time>
      </trkpt>
      <trkpt lat="41.79193" lon="9.25563">
        <ele>1000.2</ele>
        <time>2015-06-19T05:11:08Z</time>
      </trkpt>
      <trkpt lat="41.79194" lon="9.25556">
        <ele>999</ele>
        <time>2015-06-19T05:11:16Z</time>
      </trkpt>
      <trkpt lat="41.79196" lon="9.2555">
        <ele>998.2</ele>
        <time>2015-06-19T05:11:23Z</time>
      </trkpt>
      <trkpt lat="41.79201" lon="9.25538">
        <ele>996.8</ele>
        <time>2015-06-19T05:11:35Z</time>
      </trkpt>
      <trkpt lat="41.79206" lon="9.25532">
        <ele>995.8</ele>
        <time>2015-06-19T05:11:43Z</time>
      </trkpt>
      <trkpt lat="41.79213" lon="9.25529">
        <ele>994.8</ele>
        <time>2015-06-19T05:11:52Z</time>
      </trkpt>
      <trkpt lat="41.79234" lon="9.2551">
        <ele>993.4</ele>
        <time>2015-06-19T05:12:16Z</time>
      </trkpt>
      <trkpt lat="41.79241" lon="9.25501">
        <ele>992.6</ele>
        <time>2015-06-19T05:12:29Z</time>
      </trkpt>
      <trkpt lat="41.79242" lon="9.25497">
        <ele>992</ele>
        <time>2015-06-19T05:12:36Z</time>
      </trkpt>
      <trkpt lat="41.79243" lon="9.2549">
        <ele>991.2</ele>
        <time>2015-06-19T05:12:42Z</time>
      </trkpt>
      <trkpt lat="41.79252" lon="9.25468">
        <ele>991</ele>
        <time>2015-06-19T05:13:11Z</time>
      </trkpt>
      <trkpt lat="41.79254" lon="9.25448">
        <ele>991.8</ele>
        <time>2015-06-19T05:13:33Z</time>
      </trkpt>
      <trkpt lat="41.79252" lon="9.25442">
        <ele>991.8</ele>
        <time>2015-06-19T05:13:38Z</time>
      </trkpt>
      <trkpt lat="41.79251" lon="9.2544">
        <ele>991.6</ele>
        <time>2015-06-19T05:13:40Z</time>
      </trkpt>
      <trkpt lat="41.79251" lon="9.25436">
        <ele>991.4</ele>
        <time>2015-06-19T05:13:46Z</time>
      </trkpt>
      <trkpt lat="41.7925" lon="9.25425">
        <ele>990</ele>
        <time>2015-06-19T05:13:56Z</time>
      </trkpt>
      <trkpt lat="41.79249" lon="9.25423">
        <ele>989.8</ele>
        <time>2015-06-19T05:13:59Z</time>
      </trkpt>
      <trkpt lat="41.79248" lon="9.25417">
        <ele>989</ele>
        <time>2015-06-19T05:14:06Z</time>
      </trkpt>
      <trkpt lat="41.79247" lon="9.2541">
        <ele>988.4</ele>
        <time>2015-06-19T05:14:12Z</time>
      </trkpt>
      <trkpt lat="41.79235" lon="9.25365">
        <ele>987.4</ele>
        <time>2015-06-19T05:14:59Z</time>
      </trkpt>
      <trkpt lat="41.79235" lon="9.2536">
        <ele>987.8</ele>
        <time>2015-06-19T05:15:06Z</time>
      </trkpt>
      <trkpt lat="41.79233" lon="9.25352">
        <ele>989.2</ele>
        <time>2015-06-19T05:15:17Z</time>
      </trkpt>
      <trkpt lat="41.79232" lon="9.25347">
        <ele>990.2</ele>
        <time>2015-06-19T05:15:27Z</time>
      </trkpt>
      <trkpt lat="41.79233" lon="9.25346">
        <ele>991.2</ele>
        <time>2015-06-19T05:15:34Z</time>
      </trkpt>
      <trkpt lat="41.79234" lon="9.25342">
        <ele>992.2</ele>
        <time>2015-06-19T05:15:41Z</time>
      </trkpt>
      <trkpt lat="41.79236" lon="9.25335">
        <ele>993.4</ele>
        <time>2015-06-19T05:15:52Z</time>
      </trkpt>
      <trkpt lat="41.7924" lon="9.2533">
        <ele>994.4</ele>
        <time>2015-06-19T05:16:02Z</time>
      </trkpt>
      <trkpt lat="41.79241" lon="9.25316">
        <ele>995.8</ele>
        <time>2015-06-19T05:16:16Z</time>
      </trkpt>
      <trkpt lat="41.79239" lon="9.25299">
        <ele>996.6</ele>
        <time>2015-06-19T05:16:33Z</time>
      </trkpt>
      <trkpt lat="41.79238" lon="9.25291">
        <ele>997</ele>
        <time>2015-06-19T05:16:41Z</time>
      </trkpt>
      <trkpt lat="41.79233" lon="9.25282">
        <ele>997.4</ele>
        <time>2015-06-19T05:17:00Z</time>
      </trkpt>
      <trkpt lat="41.79233" lon="9.2528">
        <ele>996.6</ele>
        <time>2015-06-19T05:17:06Z</time>
      </trkpt>
      <trkpt lat="41.79233" lon="9.25274">
        <ele>995.6</ele>
        <time>2015-06-19T05:17:12Z</time>
      </trkpt>
      <trkpt lat="41.79232" lon="9.25268">
        <ele>994.2</ele>
        <time>2015-06-19T05:17:19Z</time>
      </trkpt>
      <trkpt lat="41.79231" lon="9.25267">
        <ele>993.8</ele>
        <time>2015-06-19T05:17:21Z</time>
      </trkpt>
      <trkpt lat="41.79227" lon="9.25266">
        <ele>993.6</ele>
        <time>2015-06-19T05:17:24Z</time>
      </trkpt>
      <trkpt lat="41.7922" lon="9.25256">
        <ele>993.6</ele>
        <time>2015-06-19T05:17:35Z</time>
      </trkpt>
      <trkpt lat="41.79219" lon="9.25253">
        <ele>993.6</ele>
        <time>2015-06-19T05:17:37Z</time>
      </trkpt>
      <trkpt lat="41.79216" lon="9.25249">
        <ele>994.2</ele>
        <time>2015-06-19T05:17:41Z</time>
      </trkpt>
      <trkpt lat="41.79196" lon="9.25221">
        <ele>995.2</ele>
        <time>2015-06-19T05:18:30Z</time>
      </trkpt>
      <trkpt lat="41.79196" lon="9.25219">
        <ele>995.2</ele>
        <time>2015-06-19T05:18:33Z</time>
      </trkpt>
      <trkpt lat="41.79194" lon="9.25213">
        <ele>995.4</ele>
        <time>2015-06-19T05:18:37Z</time>
      </trkpt>
      <trkpt lat="41.79194" lon="9.2521">
        <ele>996</ele>
        <time>2015-06-19T05:18:40Z</time>
      </trkpt>
      <trkpt lat="41.79189" lon="9.25198">
        <ele>997.8</ele>
        <time>2015-06-19T05:18:51Z</time>
      </trkpt>
      <trkpt lat="41.79189" lon="9.25198">
        <ele>997.8</ele>
        <time>2015-06-19T05:18:54Z</time>
      </trkpt>
      <trkpt lat="41.79186" lon="9.25192">
        <ele>998</ele>
        <time>2015-06-19T05:19:01Z</time>
      </trkpt>
      <trkpt lat="41.79183" lon="9.25189">
        <ele>999.4</ele>
        <time>2015-06-19T05:19:08Z</time>
      </trkpt>
      <trkpt lat="41.79177" lon="9.25185">
        <ele>1001</ele>
        <time>2015-06-19T05:19:21Z</time>
      </trkpt>
      <trkpt lat="41.79162" lon="9.25176">
        <ele>1000.8</ele>
        <time>2015-06-19T05:19:50Z</time>
      </trkpt>
      <trkpt lat="41.79156" lon="9.25168">
        <ele>1002.2</ele>
        <time>2015-06-19T05:20:00Z</time>
      </trkpt>
      <trkpt lat="41.79154" lon="9.25163">
        <ele>1003.4</ele>
        <time>2015-06-19T05:20:12Z</time>
      </trkpt>
      <trkpt lat="41.79153" lon="9.2516">
        <ele>1004.4</ele>
        <time>2015-06-19T05:20:21Z</time>
      </trkpt>
      <trkpt lat="41.79152" lon="9.2515">
        <ele>1005.6</ele>
        <time>2015-06-19T05:20:33Z</time>
      </trkpt>
      <trkpt lat="41.79151" lon="9.25144">
        <ele>1007</ele>
        <time>2015-06-19T05:20:43Z</time>
      </trkpt>
      <trkpt lat="41.79151" lon="9.25141">
        <ele>1007.4</ele>
        <time>2015-06-19T05:20:49Z</time>
      </trkpt>
      <trkpt lat="41.79151" lon="9.25134">
        <ele>1009</ele>
        <time>2015-06-19T05:20:59Z</time>
      </trkpt>
      <trkpt lat="41.79146" lon="9.25118">
        <ele>1010.4</ele>
        <time>2015-06-19T05:21:16Z</time>
      </trkpt>
      <trkpt lat="41.79131" lon="9.25096">
        <ele>1011.2</ele>
        <time>2015-06-19T05:21:53Z</time>
      </trkpt>
      <trkpt lat="41.7913" lon="9.25095">
        <ele>1011.4</ele>
        <time>2015-06-19T05:21:54Z</time>
      </trkpt>
      <trkpt lat="41.79126" lon="9.25087">
        <ele>1012.6</ele>
        <time>2015-06-19T05:22:08Z</time>
      </trkpt>
      <trkpt lat="41.79128" lon="9.25085">
        <ele>1013.6</ele>
        <time>2015-06-19T05:22:19Z</time>
      </trkpt>
      <trkpt lat="41.79133" lon="9.25085">
        <ele>1014.6</ele>
        <time>2015-06-19T05:22:27Z</time>
      </trkpt>
      <trkpt lat="41.7913" lon="9.2508">
        <ele>1015.8</ele>
        <time>2015-06-19T05:22:37Z</time>
      </trkpt>
      <trkpt lat="41.79129" lon="9.25073">
        <ele>1017.2</ele>
        <time>2015-06-19T05:22:46Z</time>
      </trkpt>
      <trkpt lat="41.79126" lon="9.25073">
        <ele>1018.4</ele>
        <time>2015-06-19T05:22:56Z</time>
      </trkpt>
      <trkpt lat="41.79126" lon="9.25071">
        <ele>1019.4</ele>
        <time>2015-06-19T05:23:05Z</time>
      </trkpt>
      <trkpt lat="41.79124" lon="9.25073">
        <ele>1020</ele>
        <time>2015-06-19T05:23:11Z</time>
      </trkpt>
      <trkpt lat="41.791" lon="9.25058">
        <ele>1021.4</ele>
        <time>2015-06-19T05:24:05Z</time>
      </trkpt>
      <trkpt lat="41.79085" lon="9.25045">
        <ele>1019.8</ele>
        <time>2015-06-19T05:24:25Z</time>
      </trkpt>
      <trkpt lat="41.79071" lon="9.25044">
        <ele>1019</ele>
        <time>2015-06-19T05:24:37Z</time>
      </trkpt>
      <trkpt lat="41.79065" lon="9.25044">
        <ele>1018.8</ele>
        <time>2015-06-19T05:24:43Z</time>
      </trkpt>
      <trkpt lat="41.79062" lon="9.25041">
        <ele>1018.8</ele>
        <time>2015-06-19T05:24:53Z</time>
      </trkpt>
      <trkpt lat="41.79058" lon="9.2504">
        <ele>1019.8</ele>
        <time>2015-06-19T05:24:59Z</time>
      </trkpt>
      <trkpt lat="41.79053" lon="9.25036">
        <ele>1020.8</ele>
        <time>2015-06-19T05:25:08Z</time>
      </trkpt>
      <trkpt lat="41.79053" lon="9.25036">
        <ele>1021.2</ele>
        <time>2015-06-19T05:25:09Z</time>
      </trkpt>
      <trkpt lat="41.79046" lon="9.25032">
        <ele>1022.4</ele>
        <time>2015-06-19T05:25:20Z</time>
      </trkpt>
      <trkpt lat="41.79039" lon="9.25024">
        <ele>1023.8</ele>
        <time>2015-06-19T05:25:36Z</time>
      </trkpt>
      <trkpt lat="41.79037" lon="9.2502">
        <ele>1024.4</ele>
        <time>2015-06-19T05:25:45Z</time>
      </trkpt>
      <trkpt lat="41.79033" lon="9.25012">
        <ele>1025.4</ele>
        <time>2015-06-19T05:25:54Z</time>
      </trkpt>
      <trkpt lat="41.7903" lon="9.25007">
        <ele>1026.6</ele>
        <time>2015-06-19T05:26:01Z</time>
      </trkpt>
      <trkpt lat="41.79029" lon="9.25006">
        <ele>1027.6</ele>
        <time>2015-06-19T05:26:08Z</time>
      </trkpt>
      <trkpt lat="41.7903" lon="9.25005">
        <ele>1028.8</ele>
        <time>2015-06-19T05:26:16Z</time>
      </trkpt>
      <trkpt lat="41.79026" lon="9.24999">
        <ele>1029.8</ele>
        <time>2015-06-19T05:26:23Z</time>
      </trkpt>
      <trkpt lat="41.79028" lon="9.24997">
        <ele>1030.8</ele>
        <time>2015-06-19T05:26:30Z</time>
      </trkpt>
      <trkpt lat="41.79029" lon="9.24991">
        <ele>1032.2</ele>
        <time>2015-06-19T05:26:38Z</time>
      </trkpt>
      <trkpt lat="41.79031" lon="9.24989">
        <ele>1033</ele>
        <time>2015-06-19T05:26:46Z</time>
      </trkpt>
      <trkpt lat="41.79032" lon="9.24988">
        <ele>1033.8</ele>
        <time>2015-06-19T05:27:19Z</time>
      </trkpt>
      <trkpt lat="41.79041" lon="9.24994">
        <ele>1034.6</ele>
        <time>2015-06-19T05:27:51Z</time>
      </trkpt>
      <trkpt lat="41.79042" lon="9.24994">
        <ele>1035.6</ele>
        <time>2015-06-19T05:27:59Z</time>
      </trkpt>
      <trkpt lat="41.79041" lon="9.24992">
        <ele>1036.6</ele>
        <time>2015-06-19T05:28:08Z</time>
      </trkpt>
      <trkpt lat="41.79042" lon="9.24989">
        <ele>1038</ele>
        <time>2015-06-19T05:28:19Z</time>
      </trkpt>
      <trkpt lat="41.79045" lon="9.24989">
        <ele>1039</ele>
        <time>2015-06-19T05:28:27Z</time>
      </trkpt>
      <trkpt lat="41.79046" lon="9.24987">
        <ele>1040.2</ele>
        <time>2015-06-19T05:28:36Z</time>
      </trkpt>
      <trkpt lat="41.79046" lon="9.24983">
        <ele>1041.2</ele>
        <time>2015-06-19T05:28:45Z</time>
      </trkpt>
      <trkpt lat="41.79044" lon="9.24978">
        <ele>1042.2</ele>
        <time>2015-06-19T05:28:53Z</time>
      </trkpt>
      <trkpt lat="41.79042" lon="9.24976">
        <ele>1042.6</ele>
        <time>2015-06-19T05:28:56Z</time>
      </trkpt>
      <trkpt lat="41.79038" lon="9.24972">
        <ele>1043.6</ele>
        <time>2015-06-19T05:29:03Z</time>
      </trkpt>
      <trkpt lat="41.79034" lon="9.24966">
        <ele>1044.8</ele>
        <time>2015-06-19T05:29:14Z</time>
      </trkpt>
      <trkpt lat="41.79038" lon="9.24965">
        <ele>1046</ele>
        <time>2015-06-19T05:29:27Z</time>
      </trkpt>
      <trkpt lat="41.79043" lon="9.24967">
        <ele>1047</ele>
        <time>2015-06-19T05:29:35Z</time>
      </trkpt>
      <trkpt lat="41.79046" lon="9.24966">
        <ele>1048</ele>
        <time>2015-06-19T05:29:43Z</time>
      </trkpt>
      <trkpt lat="41.79049" lon="9.24962">
        <ele>1049.4</ele>
        <time>2015-06-19T05:29:56Z</time>
      </trkpt>
      <trkpt lat="41.79049" lon="9.2496">
        <ele>1050.6</ele>
        <time>2015-06-19T05:30:06Z</time>
      </trkpt>
      <trkpt lat="41.79048" lon="9.24958">
        <ele>1051.2</ele>
        <time>2015-06-19T05:30:14Z</time>
      </trkpt>
      <trkpt lat="41.79046" lon="9.24955">
        <ele>1052.8</ele>
        <time>2015-06-19T05:30:24Z</time>
      </trkpt>
      <trkpt lat="41.79045" lon="9.24954">
        <ele>1053.2</ele>
        <time>2015-06-19T05:30:28Z</time>
      </trkpt>
      <trkpt lat="41.79041" lon="9.24954">
        <ele>1053.8</ele>
        <time>2015-06-19T05:30:33Z</time>
      </trkpt>
      <trkpt lat="41.79039" lon="9.24955">
        <ele>1054.2</ele>
        <time>2015-06-19T05:30:35Z</time>
      </trkpt>
      <trkpt lat="41.79039" lon="9.24955">
        <ele>1054.6</ele>
        <time>2015-06-19T05:30:38Z</time>
      </trkpt>
      <trkpt lat="41.79038" lon="9.24954">
        <ele>1055</ele>
        <time>2015-06-19T05:30:49Z</time>
      </trkpt>
      <trkpt lat="41.79036" lon="9.24951">
        <ele>1056.4</ele>
        <time>2015-06-19T05:30:58Z</time>
      </trkpt>
      <trkpt lat="41.79034" lon="9.24948">
        <ele>1057.4</ele>
        <time>2015-06-19T05:31:08Z</time>
      </trkpt>
      <trkpt lat="41.79034" lon="9.24947">
        <ele>1058.6</ele>
        <time>2015-06-19T05:31:17Z</time>
      </trkpt>
      <trkpt lat="41.79033" lon="9.24946">
        <ele>1059.6</ele>
        <time>2015-06-19T05:31:25Z</time>
      </trkpt>
      <trkpt lat="41.7902" lon="9.24945">
        <ele>1061.8</ele>
        <time>2015-06-19T05:31:48Z</time>
      </trkpt>
      <trkpt lat="41.79008" lon="9.24941">
        <ele>1062.6</ele>
        <time>2015-06-19T05:32:15Z</time>
      </trkpt>
      <trkpt lat="41.79003" lon="9.24939">
        <ele>1063.4</ele>
        <time>2015-06-19T05:32:26Z</time>
      </trkpt>
      <trkpt lat="41.79004" lon="9.24938">
        <ele>1065</ele>
        <time>2015-06-19T05:32:36Z</time>
      </trkpt>
      <trkpt lat="41.79005" lon="9.24936">
        <ele>1066</ele>
        <time>2015-06-19T05:32:43Z</time>
      </trkpt>
      <trkpt lat="41.79002" lon="9.24933">
        <ele>1067.4</ele>
        <time>2015-06-19T05:32:53Z</time>
      </trkpt>
      <trkpt lat="41.79002" lon="9.24933">
        <ele>1067.4</ele>
        <time>2015-06-19T05:32:54Z</time>
      </trkpt>
      <trkpt lat="41.79" lon="9.24934">
        <ele>1068.6</ele>
        <time>2015-06-19T05:33:04Z</time>
      </trkpt>
      <trkpt lat="41.78997" lon="9.24934">
        <ele>1069.6</ele>
        <time>2015-06-19T05:33:14Z</time>
      </trkpt>
      <trkpt lat="41.78996" lon="9.24934">
        <ele>1070.8</ele>
        <time>2015-06-19T05:33:27Z</time>
      </trkpt>
      <trkpt lat="41.78997" lon="9.24933">
        <ele>1072.2</ele>
        <time>2015-06-19T05:33:39Z</time>
      </trkpt>
      <trkpt lat="41.79" lon="9.24931">
        <ele>1073.2</ele>
        <time>2015-06-19T05:33:54Z</time>
      </trkpt>
      <trkpt lat="41.79002" lon="9.24929">
        <ele>1073.8</ele>
        <time>2015-06-19T05:34:00Z</time>
      </trkpt>
      <trkpt lat="41.78999" lon="9.24924">
        <ele>1075.6</ele>
        <time>2015-06-19T05:34:10Z</time>
      </trkpt>
      <trkpt lat="41.78977" lon="9.24916">
        <ele>1077.4</ele>
        <time>2015-06-19T05:34:38Z</time>
      </trkpt>
      <trkpt lat="41.78967" lon="9.24917">
        <ele>1077.6</ele>
        <time>2015-06-19T05:34:57Z</time>
      </trkpt>
      <trkpt lat="41.78967" lon="9.24916">
        <ele>1076.8</ele>
        <time>2015-06-19T05:35:04Z</time>
      </trkpt>
      <trkpt lat="41.78968" lon="9.24913">
        <ele>1075.8</ele>
        <time>2015-06-19T05:35:11Z</time>
      </trkpt>
      <trkpt lat="41.78974" lon="9.2491">
        <ele>1074.8</ele>
        <time>2015-06-19T05:35:18Z</time>
      </trkpt>
      <trkpt lat="41.78973" lon="9.24909">
        <ele>1073.8</ele>
        <time>2015-06-19T05:35:24Z</time>
      </trkpt>
      <trkpt lat="41.78976" lon="9.24905">
        <ele>1072.6</ele>
        <time>2015-06-19T05:35:30Z</time>
      </trkpt>
      <trkpt lat="41.78973" lon="9.24904">
        <ele>1071.6</ele>
        <time>2015-06-19T05:35:36Z</time>
      </trkpt>
      <trkpt lat="41.78968" lon="9.24898">
        <ele>1071</ele>
        <time>2015-06-19T05:35:40Z</time>
      </trkpt>
      <trkpt lat="41.78962" lon="9.24896">
        <ele>1069.2</ele>
        <time>2015-06-19T05:35:48Z</time>
      </trkpt>
      <trkpt lat="41.7896" lon="9.24892">
        <ele>1068.8</ele>
        <time>2015-06-19T05:35:51Z</time>
      </trkpt>
      <trkpt lat="41.78958" lon="9.24883">
        <ele>1068.8</ele>
        <time>2015-06-19T05:36:07Z</time>
      </trkpt>
      <trkpt lat="41.78957" lon="9.24884">
        <ele>1069.8</ele>
        <time>2015-06-19T05:36:13Z</time>
      </trkpt>
      <trkpt lat="41.78956" lon="9.2488">
        <ele>1071.2</ele>
        <time>2015-06-19T05:36:21Z</time>
      </trkpt>
      <trkpt lat="41.78954" lon="9.24875">
        <ele>1071.8</ele>
        <time>2015-06-19T05:36:27Z</time>
      </trkpt>
      <trkpt lat="41.78953" lon="9.24872">
        <ele>1073.2</ele>
        <time>2015-06-19T05:36:35Z</time>
      </trkpt>
      <trkpt lat="41.7895" lon="9.24866">
        <ele>1074.2</ele>
        <time>2015-06-19T05:36:43Z</time>
      </trkpt>
      <trkpt lat="41.78944" lon="9.24863">
        <ele>1076</ele>
        <time>2015-06-19T05:36:53Z</time>
      </trkpt>
      <trkpt lat="41.78942" lon="9.24864">
        <ele>1076.6</ele>
        <time>2015-06-19T05:37:02Z</time>
      </trkpt>
      <trkpt lat="41.78944" lon="9.24865">
        <ele>1077.8</ele>
        <time>2015-06-19T05:37:11Z</time>
      </trkpt>
      <trkpt lat="41.78944" lon="9.24868">
        <ele>1078.4</ele>
        <time>2015-06-19T05:37:17Z</time>
      </trkpt>
      <trkpt lat="41.78946" lon="9.24865">
        <ele>1079.8</ele>
        <time>2015-06-19T05:37:25Z</time>
      </trkpt>
      <trkpt lat="41.78951" lon="9.2486">
        <ele>1080.6</ele>
        <time>2015-06-19T05:37:32Z</time>
      </trkpt>
      <trkpt lat="41.78954" lon="9.24861">
        <ele>1081.4</ele>
        <time>2015-06-19T05:37:38Z</time>
      </trkpt>
      <trkpt lat="41.78956" lon="9.24861">
        <ele>1082.2</ele>
        <time>2015-06-19T05:37:43Z</time>
      </trkpt>
      <trkpt lat="41.78957" lon="9.24855">
        <ele>1083</ele>
        <time>2015-06-19T05:37:52Z</time>
      </trkpt>
      <trkpt lat="41.78959" lon="9.24854">
        <ele>1084.2</ele>
        <time>2015-06-19T05:38:02Z</time>
      </trkpt>
      <trkpt lat="41.78962" lon="9.24856">
        <ele>1085.2</ele>
        <time>2015-06-19T05:38:10Z</time>
      </trkpt>
      <trkpt lat="41.78966" lon="9.24854">
        <ele>1086.2</ele>
        <time>2015-06-19T05:38:19Z</time>
      </trkpt>
      <trkpt lat="41.78969" lon="9.24853">
        <ele>1087.4</ele>
        <time>2015-06-19T05:38:27Z</time>
      </trkpt>
      <trkpt lat="41.78973" lon="9.24859">
        <ele>1088.2</ele>
        <time>2015-06-19T05:38:34Z</time>
      </trkpt>
      <trkpt lat="41.78973" lon="9.24861">
        <ele>1088.4</ele>
        <time>2015-06-19T05:38:36Z</time>
      </trkpt>
      <trkpt lat="41.78976" lon="9.24868">
        <ele>1088.8</ele>
        <time>2015-06-19T05:38:44Z</time>
      </trkpt>
      <trkpt lat="41.78979" lon="9.24874">
        <ele>1089.4</ele>
        <time>2015-06-19T05:38:52Z</time>
      </trkpt>
      <trkpt lat="41.78983" lon="9.24878">
        <ele>1091</ele>
        <time>2015-06-19T05:39:03Z</time>
      </trkpt>
      <trkpt lat="41.78986" lon="9.24882">
        <ele>1091.6</ele>
        <time>2015-06-19T05:39:11Z</time>
      </trkpt>
      <trkpt lat="41.78989" lon="9.24886">
        <ele>1092.6</ele>
        <time>2015-06-19T05:39:19Z</time>
      </trkpt>
      <trkpt lat="41.78991" lon="9.24891">
        <ele>1094</ele>
        <time>2015-06-19T05:39:27Z</time>
      </trkpt>
      <trkpt lat="41.78991" lon="9.24892">
        <ele>1095</ele>
        <time>2015-06-19T05:39:36Z</time>
      </trkpt>
      <trkpt lat="41.78993" lon="9.24892">
        <ele>1095.6</ele>
        <time>2015-06-19T05:39:42Z</time>
      </trkpt>
      <trkpt lat="41.78993" lon="9.24896">
        <ele>1097</ele>
        <time>2015-06-19T05:39:50Z</time>
      </trkpt>
      <trkpt lat="41.78996" lon="9.24897">
        <ele>1098.2</ele>
        <time>2015-06-19T05:39:58Z</time>
      </trkpt>
      <trkpt lat="41.78998" lon="9.249">
        <ele>1099.2</ele>
        <time>2015-06-19T05:40:06Z</time>
      </trkpt>
      <trkpt lat="41.78998" lon="9.24903">
        <ele>1100.6</ele>
        <time>2015-06-19T05:40:17Z</time>
      </trkpt>
      <trkpt lat="41.79006" lon="9.24901">
        <ele>1101.6</ele>
        <time>2015-06-19T05:40:51Z</time>
      </trkpt>
      <trkpt lat="41.79007" lon="9.24903">
        <ele>1102.4</ele>
        <time>2015-06-19T05:41:00Z</time>
      </trkpt>
      <trkpt lat="41.79007" lon="9.24903">
        <ele>1103.2</ele>
        <time>2015-06-19T05:41:04Z</time>
      </trkpt>
      <trkpt lat="41.79009" lon="9.24903">
        <ele>1103.8</ele>
        <time>2015-06-19T05:41:08Z</time>
      </trkpt>
      <trkpt lat="41.79012" lon="9.24901">
        <ele>1104.8</ele>
        <time>2015-06-19T05:41:15Z</time>
      </trkpt>
      <trkpt lat="41.79016" lon="9.24901">
        <ele>1106</ele>
        <time>2015-06-19T05:41:23Z</time>
      </trkpt>
      <trkpt lat="41.79018" lon="9.24902">
        <ele>1107.2</ele>
        <time>2015-06-19T05:41:32Z</time>
      </trkpt>
      <trkpt lat="41.7902" lon="9.24904">
        <ele>1108.4</ele>
        <time>2015-06-19T05:41:41Z</time>
      </trkpt>
      <trkpt lat="41.79024" lon="9.24904">
        <ele>1109.4</ele>
        <time>2015-06-19T05:41:48Z</time>
      </trkpt>
      <trkpt lat="41.79028" lon="9.24905">
        <ele>1110.2</ele>
        <time>2015-06-19T05:41:53Z</time>
      </trkpt>
      <trkpt lat="41.79029" lon="9.24906">
        <ele>1110.8</ele>
        <time>2015-06-19T05:41:58Z</time>
      </trkpt>
      <trkpt lat="41.79032" lon="9.24907">
        <ele>1111.4</ele>
        <time>2015-06-19T05:42:05Z</time>
      </trkpt>
      <trkpt lat="41.79034" lon="9.24907">
        <ele>1111.8</ele>
        <time>2015-06-19T05:42:12Z</time>
      </trkpt>
      <trkpt lat="41.79032" lon="9.24898">
        <ele>1112</ele>
        <time>2015-06-19T05:43:32Z</time>
      </trkpt>
      <trkpt lat="41.79036" lon="9.24906">
        <ele>1112.8</ele>
        <time>2015-06-19T05:44:50Z</time>
      </trkpt>
      <trkpt lat="41.79037" lon="9.24905">
        <ele>1113.6</ele>
        <time>2015-06-19T05:44:57Z</time>
      </trkpt>
      <trkpt lat="41.7904" lon="9.24904">
        <ele>1114.8</ele>
        <time>2015-06-19T05:45:05Z</time>
      </trkpt>
      <trkpt lat="41.79042" lon="9.24901">
        <ele>1115.6</ele>
        <time>2015-06-19T05:45:13Z</time>
      </trkpt>
      <trkpt lat="41.79044" lon="9.24898">
        <ele>1116</ele>
        <time>2015-06-19T05:45:16Z</time>
      </trkpt>
      <trkpt lat="41.79042" lon="9.24897">
        <ele>1117</ele>
        <time>2015-06-19T05:45:23Z</time>
      </trkpt>
      <trkpt lat="41.79042" lon="9.24895">
        <ele>1118.2</ele>
        <time>2015-06-19T05:45:32Z</time>
      </trkpt>
      <trkpt lat="41.79039" lon="9.24893">
        <ele>1119.2</ele>
        <time>2015-06-19T05:45:41Z</time>
      </trkpt>
      <trkpt lat="41.79039" lon="9.24893">
        <ele>1120.4</ele>
        <time>2015-06-19T05:45:53Z</time>
      </trkpt>
      <trkpt lat="41.7904" lon="9.24888">
        <ele>1121.2</ele>
        <time>2015-06-19T05:46:01Z</time>
      </trkpt>
      <trkpt lat="41.7904" lon="9.24885">
        <ele>1122.4</ele>
        <time>2015-06-19T05:46:10Z</time>
      </trkpt>
      <trkpt lat="41.79039" lon="9.24885">
        <ele>1123.6</ele>
        <time>2015-06-19T05:46:18Z</time>
      </trkpt>
      <trkpt lat="41.79039" lon="9.24882">
        <ele>1124.8</ele>
        <time>2015-06-19T05:46:27Z</time>
      </trkpt>
      <trkpt lat="41.79041" lon="9.24881">
        <ele>1125.8</ele>
        <time>2015-06-19T05:46:38Z</time>
      </trkpt>
      <trkpt lat="41.79044" lon="9.2488">
        <ele>1127</ele>
        <time>2015-06-19T05:46:47Z</time>
      </trkpt>
      <trkpt lat="41.79042" lon="9.24879">
        <ele>1128.2</ele>
        <time>2015-06-19T05:46:58Z</time>
      </trkpt>
      <trkpt lat="41.79037" lon="9.24874">
        <ele>1129.6</ele>
        <time>2015-06-19T05:47:09Z</time>
      </trkpt>
      <trkpt lat="41.79036" lon="9.24872">
        <ele>1130.6</ele>
        <time>2015-06-19T05:47:18Z</time>
      </trkpt>
      <trkpt lat="41.7903" lon="9.24869">
        <ele>1132</ele>
        <time>2015-06-19T05:47:31Z</time>
      </trkpt>
      <trkpt lat="41.79026" lon="9.24856">
        <ele>1133.2</ele>
        <time>2015-06-19T05:47:52Z</time>
      </trkpt>
      <trkpt lat="41.79026" lon="9.24847">
        <ele>1134</ele>
        <time>2015-06-19T05:48:02Z</time>
      </trkpt>
      <trkpt lat="41.79027" lon="9.24842">
        <ele>1135.6</ele>
        <time>2015-06-19T05:48:13Z</time>
      </trkpt>
      <trkpt lat="41.79026" lon="9.24835">
        <ele>1136.2</ele>
        <time>2015-06-19T05:48:23Z</time>
      </trkpt>
      <trkpt lat="41.79022" lon="9.2483">
        <ele>1137</ele>
        <time>2015-06-19T05:48:32Z</time>
      </trkpt>
      <trkpt lat="41.79023" lon="9.24826">
        <ele>1138.2</ele>
        <time>2015-06-19T05:48:40Z</time>
      </trkpt>
      <trkpt lat="41.79023" lon="9.24822">
        <ele>1139.4</ele>
        <time>2015-06-19T05:48:50Z</time>
      </trkpt>
      <trkpt lat="41.79029" lon="9.24823">
        <ele>1140.4</ele>
        <time>2015-06-19T05:49:01Z</time>
      </trkpt>
      <trkpt lat="41.79033" lon="9.24828">
        <ele>1142</ele>
        <time>2015-06-19T05:49:11Z</time>
      </trkpt>
      <trkpt lat="41.79034" lon="9.2483">
        <ele>1142</ele>
        <time>2015-06-19T05:49:13Z</time>
      </trkpt>
      <trkpt lat="41.79034" lon="9.24835">
        <ele>1142.6</ele>
        <time>2015-06-19T05:49:18Z</time>
      </trkpt>
      <trkpt lat="41.79033" lon="9.24835">
        <ele>1144</ele>
        <time>2015-06-19T05:49:29Z</time>
      </trkpt>
      <trkpt lat="41.79033" lon="9.24833">
        <ele>1145.2</ele>
        <time>2015-06-19T05:49:41Z</time>
      </trkpt>
      <trkpt lat="41.79035" lon="9.24827">
        <ele>1146</ele>
        <time>2015-06-19T05:49:56Z</time>
      </trkpt>
      <trkpt lat="41.79036" lon="9.24831">
        <ele>1146.8</ele>
        <time>2015-06-19T05:50:05Z</time>
      </trkpt>
      <trkpt lat="41.79038" lon="9.24831">
        <ele>1148.4</ele>
        <time>2015-06-19T05:50:16Z</time>
      </trkpt>
      <trkpt lat="41.79038" lon="9.24836">
        <ele>1149</ele>
        <time>2015-06-19T05:50:24Z</time>
      </trkpt>
      <trkpt lat="41.79042" lon="9.24835">
        <ele>1150</ele>
        <time>2015-06-19T05:50:34Z</time>
      </trkpt>
      <trkpt lat="41.79043" lon="9.24836">
        <ele>1151.2</ele>
        <time>2015-06-19T05:50:42Z</time>
      </trkpt>
      <trkpt lat="41.79047" lon="9.24835">
        <ele>1152.4</ele>
        <time>2015-06-19T05:50:52Z</time>
      </trkpt>
      <trkpt lat="41.7905" lon="9.24831">
        <ele>1153.4</ele>
        <time>2015-06-19T05:51:02Z</time>
      </trkpt>
      <trkpt lat="41.7905" lon="9.24823">
        <ele>1154.8</ele>
        <time>2015-06-19T05:51:15Z</time>
      </trkpt>
      <trkpt lat="41.79049" lon="9.24819">
        <ele>1155.6</ele>
        <time>2015-06-19T05:51:23Z</time>
      </trkpt>
      <trkpt lat="41.7905" lon="9.24819">
        <ele>1156.8</ele>
        <time>2015-06-19T05:51:35Z</time>
      </trkpt>
      <trkpt lat="41.79052" lon="9.24822">
        <ele>1157.6</ele>
        <time>2015-06-19T05:51:42Z</time>
      </trkpt>
      <trkpt lat="41.79056" lon="9.24824">
        <ele>1159</ele>
        <time>2015-06-19T05:51:54Z</time>
      </trkpt>
      <trkpt lat="41.7906" lon="9.2482">
        <ele>1159.8</ele>
        <time>2015-06-19T05:52:02Z</time>
      </trkpt>
      <trkpt lat="41.7906" lon="9.24816">
        <ele>1161</ele>
        <time>2015-06-19T05:52:11Z</time>
      </trkpt>
      <trkpt lat="41.79061" lon="9.24812">
        <ele>1162.4</ele>
        <time>2015-06-19T05:52:22Z</time>
      </trkpt>
      <trkpt lat="41.79059" lon="9.2481">
        <ele>1163.2</ele>
        <time>2015-06-19T05:52:29Z</time>
      </trkpt>
      <trkpt lat="41.79059" lon="9.2481">
        <ele>1164.6</ele>
        <time>2015-06-19T05:52:48Z</time>
      </trkpt>
      <trkpt lat="41.79063" lon="9.24809">
        <ele>1165.8</ele>
        <time>2015-06-19T05:52:57Z</time>
      </trkpt>
      <trkpt lat="41.79066" lon="9.24813">
        <ele>1166.8</ele>
        <time>2015-06-19T05:53:09Z</time>
      </trkpt>
      <trkpt lat="41.79066" lon="9.24814">
        <ele>1168</ele>
        <time>2015-06-19T05:53:16Z</time>
      </trkpt>
      <trkpt lat="41.79067" lon="9.24818">
        <ele>1168.8</ele>
        <time>2015-06-19T05:53:23Z</time>
      </trkpt>
      <trkpt lat="41.7907" lon="9.24821">
        <ele>1170.2</ele>
        <time>2015-06-19T05:53:33Z</time>
      </trkpt>
      <trkpt lat="41.7907" lon="9.24821">
        <ele>1170.4</ele>
        <time>2015-06-19T05:53:34Z</time>
      </trkpt>
      <trkpt lat="41.79069" lon="9.2482">
        <ele>1170.4</ele>
        <time>2015-06-19T05:53:36Z</time>
      </trkpt>
      <trkpt lat="41.7907" lon="9.24821">
        <ele>1171.2</ele>
        <time>2015-06-19T05:53:44Z</time>
      </trkpt>
      <trkpt lat="41.79071" lon="9.2482">
        <ele>1172.2</ele>
        <time>2015-06-19T05:53:51Z</time>
      </trkpt>
      <trkpt lat="41.79075" lon="9.24816">
        <ele>1173.6</ele>
        <time>2015-06-19T05:54:02Z</time>
      </trkpt>
      <trkpt lat="41.79078" lon="9.24818">
        <ele>1174.6</ele>
        <time>2015-06-19T05:54:11Z</time>
      </trkpt>
      <trkpt lat="41.7908" lon="9.24818">
        <ele>1176</ele>
        <time>2015-06-19T05:54:20Z</time>
      </trkpt>
      <trkpt lat="41.79081" lon="9.24818">
        <ele>1176.8</ele>
        <time>2015-06-19T05:54:28Z</time>
      </trkpt>
      <trkpt lat="41.79084" lon="9.24818">
        <ele>1178</ele>
        <time>2015-06-19T05:54:38Z</time>
      </trkpt>
      <trkpt lat="41.79086" lon="9.24819">
        <ele>1178.8</ele>
        <time>2015-06-19T05:54:47Z</time>
      </trkpt>
      <trkpt lat="41.79086" lon="9.24819">
        <ele>1178.6</ele>
        <time>2015-06-19T05:54:53Z</time>
      </trkpt>
      <trkpt lat="41.791" lon="9.24816">
        <ele>1169.8</ele>
        <time>2015-06-19T06:01:50Z</time>
      </trkpt>
      <trkpt lat="41.79103" lon="9.24811">
        <ele>1168.2</ele>
        <time>2015-06-19T06:02:04Z</time>
      </trkpt>
      <trkpt lat="41.79102" lon="9.24807">
        <ele>1168.4</ele>
        <time>2015-06-19T06:02:12Z</time>
      </trkpt>
      <trkpt lat="41.79105" lon="9.24808">
        <ele>1167.6</ele>
        <time>2015-06-19T06:02:18Z</time>
      </trkpt>
      <trkpt lat="41.79111" lon="9.24813">
        <ele>1166</ele>
        <time>2015-06-19T06:02:27Z</time>
      </trkpt>
      <trkpt lat="41.79114" lon="9.24809">
        <ele>1164.6</ele>
        <time>2015-06-19T06:02:37Z</time>
      </trkpt>
      <trkpt lat="41.79112" lon="9.24803">
        <ele>1163.6</ele>
        <time>2015-06-19T06:02:45Z</time>
      </trkpt>
      <trkpt lat="41.79112" lon="9.24798">
        <ele>1162.2</ele>
        <time>2015-06-19T06:03:17Z</time>
      </trkpt>
      <trkpt lat="41.79111" lon="9.24793">
        <ele>1161.2</ele>
        <time>2015-06-19T06:03:25Z</time>
      </trkpt>
      <trkpt lat="41.79109" lon="9.24789">
        <ele>1160.4</ele>
        <time>2015-06-19T06:03:30Z</time>
      </trkpt>
      <trkpt lat="41.7911" lon="9.24787">
        <ele>1160</ele>
        <time>2015-06-19T06:03:32Z</time>
      </trkpt>
      <trkpt lat="41.7911" lon="9.24786">
        <ele>1160</ele>
        <time>2015-06-19T06:03:34Z</time>
      </trkpt>
      <trkpt lat="41.79113" lon="9.24785">
        <ele>1158.6</ele>
        <time>2015-06-19T06:03:45Z</time>
      </trkpt>
      <trkpt lat="41.79116" lon="9.24786">
        <ele>1157.6</ele>
        <time>2015-06-19T06:03:52Z</time>
      </trkpt>
      <trkpt lat="41.79119" lon="9.24787">
        <ele>1156.6</ele>
        <time>2015-06-19T06:03:59Z</time>
      </trkpt>
      <trkpt lat="41.79122" lon="9.24786">
        <ele>1155.4</ele>
        <time>2015-06-19T06:04:05Z</time>
      </trkpt>
      <trkpt lat="41.79122" lon="9.24783">
        <ele>1154</ele>
        <time>2015-06-19T06:04:13Z</time>
      </trkpt>
      <trkpt lat="41.79121" lon="9.24778">
        <ele>1153</ele>
        <time>2015-06-19T06:04:20Z</time>
      </trkpt>
      <trkpt lat="41.79121" lon="9.24775">
        <ele>1151.4</ele>
        <time>2015-06-19T06:04:29Z</time>
      </trkpt>
      <trkpt lat="41.79124" lon="9.24775">
        <ele>1150.6</ele>
        <time>2015-06-19T06:04:37Z</time>
      </trkpt>
      <trkpt lat="41.79128" lon="9.24774">
        <ele>1149</ele>
        <time>2015-06-19T06:04:47Z</time>
      </trkpt>
      <trkpt lat="41.79127" lon="9.24771">
        <ele>1147.6</ele>
        <time>2015-06-19T06:04:58Z</time>
      </trkpt>
      <trkpt lat="41.79129" lon="9.24768">
        <ele>1146.8</ele>
        <time>2015-06-19T06:05:11Z</time>
      </trkpt>
      <trkpt lat="41.7913" lon="9.24769">
        <ele>1145.8</ele>
        <time>2015-06-19T06:05:18Z</time>
      </trkpt>
      <trkpt lat="41.79134" lon="9.24773">
        <ele>1144</ele>
        <time>2015-06-19T06:05:29Z</time>
      </trkpt>
      <trkpt lat="41.79138" lon="9.24774">
        <ele>1143</ele>
        <time>2015-06-19T06:05:38Z</time>
      </trkpt>
      <trkpt lat="41.7914" lon="9.24773">
        <ele>1142</ele>
        <time>2015-06-19T06:05:45Z</time>
      </trkpt>
      <trkpt lat="41.79143" lon="9.24775">
        <ele>1140.8</ele>
        <time>2015-06-19T06:05:52Z</time>
      </trkpt>
      <trkpt lat="41.79149" lon="9.24772">
        <ele>1139.4</ele>
        <time>2015-06-19T06:05:59Z</time>
      </trkpt>
      <trkpt lat="41.79149" lon="9.2477">
        <ele>1138.2</ele>
        <time>2015-06-19T06:06:07Z</time>
      </trkpt>
      <trkpt lat="41.79151" lon="9.24765">
        <ele>1137</ele>
        <time>2015-06-19T06:06:15Z</time>
      </trkpt>
      <trkpt lat="41.79151" lon="9.24762">
        <ele>1136</ele>
        <time>2015-06-19T06:06:22Z</time>
      </trkpt>
      <trkpt lat="41.79147" lon="9.24755">
        <ele>1134.4</ele>
        <time>2015-06-19T06:06:32Z</time>
      </trkpt>
      <trkpt lat="41.79146" lon="9.2475">
        <ele>1133</ele>
        <time>2015-06-19T06:06:43Z</time>
      </trkpt>
      <trkpt lat="41.79142" lon="9.24746">
        <ele>1131.8</ele>
        <time>2015-06-19T06:06:53Z</time>
      </trkpt>
      <trkpt lat="41.79139" lon="9.24741">
        <ele>1130.6</ele>
        <time>2015-06-19T06:07:01Z</time>
      </trkpt>
      <trkpt lat="41.79139" lon="9.24734">
        <ele>1129.4</ele>
        <time>2015-06-19T06:07:09Z</time>
      </trkpt>
      <trkpt lat="41.79139" lon="9.2473">
        <ele>1128</ele>
        <time>2015-06-19T06:07:16Z</time>
      </trkpt>
      <trkpt lat="41.79139" lon="9.24726">
        <ele>1126.8</ele>
        <time>2015-06-19T06:07:24Z</time>
      </trkpt>
      <trkpt lat="41.79138" lon="9.24723">
        <ele>1125.6</ele>
        <time>2015-06-19T06:07:31Z</time>
      </trkpt>
      <trkpt lat="41.79133" lon="9.24716">
        <ele>1124.2</ele>
        <time>2015-06-19T06:07:41Z</time>
      </trkpt>
      <trkpt lat="41.79128" lon="9.2471">
        <ele>1122.8</ele>
        <time>2015-06-19T06:07:51Z</time>
      </trkpt>
      <trkpt lat="41.79119" lon="9.24699">
        <ele>1122.4</ele>
        <time>2015-06-19T06:08:07Z</time>
      </trkpt>
      <trkpt lat="41.79118" lon="9.24697">
        <ele>1122.4</ele>
        <time>2015-06-19T06:08:10Z</time>
      </trkpt>
      <trkpt lat="41.79115" lon="9.24692">
        <ele>1121.2</ele>
        <time>2015-06-19T06:08:18Z</time>
      </trkpt>
      <trkpt lat="41.79111" lon="9.24685">
        <ele>1119.8</ele>
        <time>2015-06-19T06:08:27Z</time>
      </trkpt>
      <trkpt lat="41.7911" lon="9.24682">
        <ele>1119.2</ele>
        <time>2015-06-19T06:08:30Z</time>
      </trkpt>
      <trkpt lat="41.79108" lon="9.24678">
        <ele>1118.8</ele>
        <time>2015-06-19T06:08:34Z</time>
      </trkpt>
      <trkpt lat="41.79106" lon="9.24676">
        <ele>1117.2</ele>
        <time>2015-06-19T06:08:41Z</time>
      </trkpt>
      <trkpt lat="41.79103" lon="9.24673">
        <ele>1116.2</ele>
        <time>2015-06-19T06:08:48Z</time>
      </trkpt>
      <trkpt lat="41.791" lon="9.24669">
        <ele>1115</ele>
        <time>2015-06-19T06:08:54Z</time>
      </trkpt>
      <trkpt lat="41.79098" lon="9.24667">
        <ele>1113.6</ele>
        <time>2015-06-19T06:09:01Z</time>
      </trkpt>
      <trkpt lat="41.79088" lon="9.24659">
        <ele>1111.6</ele>
        <time>2015-06-19T06:09:17Z</time>
      </trkpt>
      <trkpt lat="41.79085" lon="9.24659">
        <ele>1111.4</ele>
        <time>2015-06-19T06:09:19Z</time>
      </trkpt>
      <trkpt lat="41.79084" lon="9.24658">
        <ele>1111.2</ele>
        <time>2015-06-19T06:09:21Z</time>
      </trkpt>
      <trkpt lat="41.79081" lon="9.24656">
        <ele>1111</ele>
        <time>2015-06-19T06:09:25Z</time>
      </trkpt>
      <trkpt lat="41.79078" lon="9.24655">
        <ele>1111</ele>
        <time>2015-06-19T06:09:28Z</time>
      </trkpt>
      <trkpt lat="41.79071" lon="9.2465">
        <ele>1110.4</ele>
        <time>2015-06-19T06:09:36Z</time>
      </trkpt>
      <trkpt lat="41.7907" lon="9.24649">
        <ele>1110.4</ele>
        <time>2015-06-19T06:09:37Z</time>
      </trkpt>
      <trkpt lat="41.79047" lon="9.2463">
        <ele>1108</ele>
        <time>2015-06-19T06:10:16Z</time>
      </trkpt>
      <trkpt lat="41.79045" lon="9.24626">
        <ele>1107.2</ele>
        <time>2015-06-19T06:10:22Z</time>
      </trkpt>
      <trkpt lat="41.79045" lon="9.24622">
        <ele>1106.6</ele>
        <time>2015-06-19T06:10:25Z</time>
      </trkpt>
      <trkpt lat="41.79043" lon="9.24619">
        <ele>1106</ele>
        <time>2015-06-19T06:10:28Z</time>
      </trkpt>
      <trkpt lat="41.79043" lon="9.24617">
        <ele>1105.8</ele>
        <time>2015-06-19T06:10:30Z</time>
      </trkpt>
      <trkpt lat="41.79042" lon="9.24616">
        <ele>1105.6</ele>
        <time>2015-06-19T06:10:31Z</time>
      </trkpt>
      <trkpt lat="41.7904" lon="9.2461">
        <ele>1104.8</ele>
        <time>2015-06-19T06:10:36Z</time>
      </trkpt>
      <trkpt lat="41.7904" lon="9.24607">
        <ele>1104.6</ele>
        <time>2015-06-19T06:10:38Z</time>
      </trkpt>
      <trkpt lat="41.7904" lon="9.24606">
        <ele>1104.6</ele>
        <time>2015-06-19T06:10:39Z</time>
      </trkpt>
      <trkpt lat="41.79041" lon="9.24601">
        <ele>1103.8</ele>
        <time>2015-06-19T06:10:43Z</time>
      </trkpt>
      <trkpt lat="41.79042" lon="9.246">
        <ele>1103.4</ele>
        <time>2015-06-19T06:10:45Z</time>
      </trkpt>
      <trkpt lat="41.7904" lon="9.24596">
        <ele>1102</ele>
        <time>2015-06-19T06:10:51Z</time>
      </trkpt>
      <trkpt lat="41.79036" lon="9.24586">
        <ele>1100.4</ele>
        <time>2015-06-19T06:11:02Z</time>
      </trkpt>
      <trkpt lat="41.79036" lon="9.24585">
        <ele>1100.2</ele>
        <time>2015-06-19T06:11:03Z</time>
      </trkpt>
      <trkpt lat="41.79035" lon="9.24584">
        <ele>1100.4</ele>
        <time>2015-06-19T06:11:04Z</time>
      </trkpt>
      <trkpt lat="41.79034" lon="9.2458">
        <ele>1099.6</ele>
        <time>2015-06-19T06:11:10Z</time>
      </trkpt>
      <trkpt lat="41.79032" lon="9.24575">
        <ele>1098.2</ele>
        <time>2015-06-19T06:11:16Z</time>
      </trkpt>
      <trkpt lat="41.79031" lon="9.24571">
        <ele>1097.6</ele>
        <time>2015-06-19T06:11:19Z</time>
      </trkpt>
      <trkpt lat="41.7903" lon="9.2457">
        <ele>1097</ele>
        <time>2015-06-19T06:11:23Z</time>
      </trkpt>
      <trkpt lat="41.79035" lon="9.24567">
        <ele>1096</ele>
        <time>2015-06-19T06:11:28Z</time>
      </trkpt>
      <trkpt lat="41.79036" lon="9.24566">
        <ele>1095.8</ele>
        <time>2015-06-19T06:11:29Z</time>
      </trkpt>
      <trkpt lat="41.79036" lon="9.24566">
        <ele>1095.6</ele>
        <time>2015-06-19T06:11:30Z</time>
      </trkpt>
      <trkpt lat="41.79035" lon="9.24563">
        <ele>1094.4</ele>
        <time>2015-06-19T06:11:36Z</time>
      </trkpt>
      <trkpt lat="41.79032" lon="9.24562">
        <ele>1093</ele>
        <time>2015-06-19T06:11:44Z</time>
      </trkpt>
      <trkpt lat="41.7903" lon="9.24558">
        <ele>1092</ele>
        <time>2015-06-19T06:11:50Z</time>
      </trkpt>
      <trkpt lat="41.79031" lon="9.24553">
        <ele>1090.6</ele>
        <time>2015-06-19T06:11:58Z</time>
      </trkpt>
      <trkpt lat="41.79025" lon="9.24545">
        <ele>1089</ele>
        <time>2015-06-19T06:12:08Z</time>
      </trkpt>
      <trkpt lat="41.79023" lon="9.24538">
        <ele>1087.8</ele>
        <time>2015-06-19T06:12:16Z</time>
      </trkpt>
      <trkpt lat="41.79022" lon="9.24537">
        <ele>1087.8</ele>
        <time>2015-06-19T06:12:17Z</time>
      </trkpt>
      <trkpt lat="41.79022" lon="9.24533">
        <ele>1086.8</ele>
        <time>2015-06-19T06:12:23Z</time>
      </trkpt>
      <trkpt lat="41.7902" lon="9.24525">
        <ele>1085.4</ele>
        <time>2015-06-19T06:12:31Z</time>
      </trkpt>
      <trkpt lat="41.79019" lon="9.24523">
        <ele>1085</ele>
        <time>2015-06-19T06:12:33Z</time>
      </trkpt>
      <trkpt lat="41.79017" lon="9.2452">
        <ele>1085</ele>
        <time>2015-06-19T06:12:36Z</time>
      </trkpt>
      <trkpt lat="41.79015" lon="9.24514">
        <ele>1084.8</ele>
        <time>2015-06-19T06:12:41Z</time>
      </trkpt>
      <trkpt lat="41.79012" lon="9.24504">
        <ele>1084.8</ele>
        <time>2015-06-19T06:12:52Z</time>
      </trkpt>
      <trkpt lat="41.79012" lon="9.24497">
        <ele>1084.4</ele>
        <time>2015-06-19T06:13:00Z</time>
      </trkpt>
      <trkpt lat="41.79012" lon="9.24478">
        <ele>1084.2</ele>
        <time>2015-06-19T06:13:16Z</time>
      </trkpt>
      <trkpt lat="41.79011" lon="9.24476">
        <ele>1084</ele>
        <time>2015-06-19T06:13:19Z</time>
      </trkpt>
      <trkpt lat="41.79008" lon="9.24469">
        <ele>1084.4</ele>
        <time>2015-06-19T06:13:26Z</time>
      </trkpt>
      <trkpt lat="41.79007" lon="9.24467">
        <ele>1084.6</ele>
        <time>2015-06-19T06:13:29Z</time>
      </trkpt>
      <trkpt lat="41.79002" lon="9.2446">
        <ele>1085.4</ele>
        <time>2015-06-19T06:13:36Z</time>
      </trkpt>
      <trkpt lat="41.79002" lon="9.2446">
        <ele>1085.6</ele>
        <time>2015-06-19T06:13:37Z</time>
      </trkpt>
      <trkpt lat="41.78975" lon="9.24415">
        <ele>1085</ele>
        <time>2015-06-19T06:14:33Z</time>
      </trkpt>
      <trkpt lat="41.78973" lon="9.24413">
        <ele>1084.8</ele>
        <time>2015-06-19T06:14:35Z</time>
      </trkpt>
      <trkpt lat="41.78971" lon="9.24411">
        <ele>1084.8</ele>
        <time>2015-06-19T06:14:37Z</time>
      </trkpt>
      <trkpt lat="41.78969" lon="9.2441">
        <ele>1084.8</ele>
        <time>2015-06-19T06:14:39Z</time>
      </trkpt>
      <trkpt lat="41.78968" lon="9.24409">
        <ele>1084.6</ele>
        <time>2015-06-19T06:14:42Z</time>
      </trkpt>
      <trkpt lat="41.78966" lon="9.24408">
        <ele>1083.8</ele>
        <time>2015-06-19T06:14:49Z</time>
      </trkpt>
      <trkpt lat="41.78963" lon="9.24405">
        <ele>1082.4</ele>
        <time>2015-06-19T06:14:59Z</time>
      </trkpt>
      <trkpt lat="41.78963" lon="9.24403">
        <ele>1081.4</ele>
        <time>2015-06-19T06:15:05Z</time>
      </trkpt>
      <trkpt lat="41.78959" lon="9.24397">
        <ele>1079.8</ele>
        <time>2015-06-19T06:15:12Z</time>
      </trkpt>
      <trkpt lat="41.78959" lon="9.24396">
        <ele>1079.6</ele>
        <time>2015-06-19T06:15:13Z</time>
      </trkpt>
      <trkpt lat="41.78947" lon="9.24381">
        <ele>1077.8</ele>
        <time>2015-06-19T06:15:30Z</time>
      </trkpt>
      <trkpt lat="41.78945" lon="9.24376">
        <ele>1077.4</ele>
        <time>2015-06-19T06:15:37Z</time>
      </trkpt>
      <trkpt lat="41.78945" lon="9.24372">
        <ele>1076.2</ele>
        <time>2015-06-19T06:15:43Z</time>
      </trkpt>
      <trkpt lat="41.78944" lon="9.24368">
        <ele>1075.2</ele>
        <time>2015-06-19T06:15:48Z</time>
      </trkpt>
      <trkpt lat="41.78941" lon="9.24362">
        <ele>1073.6</ele>
        <time>2015-06-19T06:15:55Z</time>
      </trkpt>
      <trkpt lat="41.78937" lon="9.24357">
        <ele>1072.4</ele>
        <time>2015-06-19T06:16:01Z</time>
      </trkpt>
      <trkpt lat="41.78935" lon="9.24353">
        <ele>1071</ele>
        <time>2015-06-19T06:16:08Z</time>
      </trkpt>
      <trkpt lat="41.78934" lon="9.24349">
        <ele>1069.8</ele>
        <time>2015-06-19T06:16:15Z</time>
      </trkpt>
      <trkpt lat="41.78933" lon="9.24346">
        <ele>1068.8</ele>
        <time>2015-06-19T06:16:21Z</time>
      </trkpt>
      <trkpt lat="41.78933" lon="9.24342">
        <ele>1067.8</ele>
        <time>2015-06-19T06:16:26Z</time>
      </trkpt>
      <trkpt lat="41.78931" lon="9.24336">
        <ele>1066.8</ele>
        <time>2015-06-19T06:16:30Z</time>
      </trkpt>
      <trkpt lat="41.7893" lon="9.24332">
        <ele>1066.2</ele>
        <time>2015-06-19T06:16:32Z</time>
      </trkpt>
      <trkpt lat="41.78929" lon="9.24329">
        <ele>1065.4</ele>
        <time>2015-06-19T06:16:36Z</time>
      </trkpt>
      <trkpt lat="41.7893" lon="9.24326">
        <ele>1064</ele>
        <time>2015-06-19T06:16:42Z</time>
      </trkpt>
      <trkpt lat="41.7893" lon="9.24323">
        <ele>1062.8</ele>
        <time>2015-06-19T06:16:48Z</time>
      </trkpt>
      <trkpt lat="41.78929" lon="9.24318">
        <ele>1061.6</ele>
        <time>2015-06-19T06:16:55Z</time>
      </trkpt>
      <trkpt lat="41.78922" lon="9.24312">
        <ele>1060</ele>
        <time>2015-06-19T06:17:03Z</time>
      </trkpt>
      <trkpt lat="41.78917" lon="9.24308">
        <ele>1059</ele>
        <time>2015-06-19T06:17:10Z</time>
      </trkpt>
      <trkpt lat="41.78917" lon="9.24308">
        <ele>1058.8</ele>
        <time>2015-06-19T06:17:11Z</time>
      </trkpt>
      <trkpt lat="41.78916" lon="9.24307">
        <ele>1058.8</ele>
        <time>2015-06-19T06:17:12Z</time>
      </trkpt>
      <trkpt lat="41.78912" lon="9.24303">
        <ele>1057.2</ele>
        <time>2015-06-19T06:17:21Z</time>
      </trkpt>
      <trkpt lat="41.78906" lon="9.24297">
        <ele>1056.4</ele>
        <time>2015-06-19T06:17:29Z</time>
      </trkpt>
      <trkpt lat="41.78904" lon="9.24292">
        <ele>1056</ele>
        <time>2015-06-19T06:17:32Z</time>
      </trkpt>
      <trkpt lat="41.78904" lon="9.24288">
        <ele>1055.2</ele>
        <time>2015-06-19T06:17:36Z</time>
      </trkpt>
      <trkpt lat="41.78905" lon="9.24287">
        <ele>1055.2</ele>
        <time>2015-06-19T06:17:38Z</time>
      </trkpt>
      <trkpt lat="41.78903" lon="9.24278">
        <ele>1053.4</ele>
        <time>2015-06-19T06:17:48Z</time>
      </trkpt>
      <trkpt lat="41.78901" lon="9.24275">
        <ele>1052.8</ele>
        <time>2015-06-19T06:17:54Z</time>
      </trkpt>
      <trkpt lat="41.78903" lon="9.24266">
        <ele>1051</ele>
        <time>2015-06-19T06:18:03Z</time>
      </trkpt>
      <trkpt lat="41.78902" lon="9.2426">
        <ele>1050.2</ele>
        <time>2015-06-19T06:18:11Z</time>
      </trkpt>
      <trkpt lat="41.78902" lon="9.24256">
        <ele>1049</ele>
        <time>2015-06-19T06:18:17Z</time>
      </trkpt>
      <trkpt lat="41.78901" lon="9.24249">
        <ele>1047.8</ele>
        <time>2015-06-19T06:18:23Z</time>
      </trkpt>
      <trkpt lat="41.78901" lon="9.24245">
        <ele>1047.2</ele>
        <time>2015-06-19T06:18:26Z</time>
      </trkpt>
      <trkpt lat="41.78901" lon="9.24238">
        <ele>1046.2</ele>
        <time>2015-06-19T06:18:33Z</time>
      </trkpt>
      <trkpt lat="41.78904" lon="9.24234">
        <ele>1044.8</ele>
        <time>2015-06-19T06:18:42Z</time>
      </trkpt>
      <trkpt lat="41.78904" lon="9.24224">
        <ele>1043.4</ele>
        <time>2015-06-19T06:18:55Z</time>
      </trkpt>
      <trkpt lat="41.78897" lon="9.24214">
        <ele>1042</ele>
        <time>2015-06-19T06:19:06Z</time>
      </trkpt>
      <trkpt lat="41.78896" lon="9.24208">
        <ele>1041</ele>
        <time>2015-06-19T06:19:14Z</time>
      </trkpt>
      <trkpt lat="41.78895" lon="9.24201">
        <ele>1040</ele>
        <time>2015-06-19T06:19:20Z</time>
      </trkpt>
      <trkpt lat="41.78895" lon="9.242">
        <ele>1039.8</ele>
        <time>2015-06-19T06:19:21Z</time>
      </trkpt>
      <trkpt lat="41.78895" lon="9.24196">
        <ele>1039.4</ele>
        <time>2015-06-19T06:19:24Z</time>
      </trkpt>
      <trkpt lat="41.78894" lon="9.24195">
        <ele>1039</ele>
        <time>2015-06-19T06:19:26Z</time>
      </trkpt>
      <trkpt lat="41.78893" lon="9.2419">
        <ele>1038</ele>
        <time>2015-06-19T06:19:30Z</time>
      </trkpt>
      <trkpt lat="41.78892" lon="9.24187">
        <ele>1037.2</ele>
        <time>2015-06-19T06:19:33Z</time>
      </trkpt>
      <trkpt lat="41.78893" lon="9.24186">
        <ele>1036.8</ele>
        <time>2015-06-19T06:19:35Z</time>
      </trkpt>
      <trkpt lat="41.78893" lon="9.24183">
        <ele>1036.4</ele>
        <time>2015-06-19T06:19:38Z</time>
      </trkpt>
      <trkpt lat="41.78892" lon="9.2418">
        <ele>1035</ele>
        <time>2015-06-19T06:19:44Z</time>
      </trkpt>
      <trkpt lat="41.78894" lon="9.24171">
        <ele>1033.4</ele>
        <time>2015-06-19T06:19:51Z</time>
      </trkpt>
      <trkpt lat="41.78895" lon="9.2417">
        <ele>1033.2</ele>
        <time>2015-06-19T06:19:53Z</time>
      </trkpt>
      <trkpt lat="41.78894" lon="9.24167">
        <ele>1032.6</ele>
        <time>2015-06-19T06:19:57Z</time>
      </trkpt>
      <trkpt lat="41.78894" lon="9.24162">
        <ele>1031.2</ele>
        <time>2015-06-19T06:20:04Z</time>
      </trkpt>
      <trkpt lat="41.78894" lon="9.24159">
        <ele>1029.8</ele>
        <time>2015-06-19T06:20:11Z</time>
      </trkpt>
      <trkpt lat="41.78891" lon="9.24155">
        <ele>1029</ele>
        <time>2015-06-19T06:20:17Z</time>
      </trkpt>
      <trkpt lat="41.78887" lon="9.24151">
        <ele>1027.6</ele>
        <time>2015-06-19T06:20:25Z</time>
      </trkpt>
      <trkpt lat="41.78882" lon="9.2415">
        <ele>1026.4</ele>
        <time>2015-06-19T06:20:32Z</time>
      </trkpt>
      <trkpt lat="41.78878" lon="9.24143">
        <ele>1025.4</ele>
        <time>2015-06-19T06:20:38Z</time>
      </trkpt>
      <trkpt lat="41.78877" lon="9.24141">
        <ele>1024.8</ele>
        <time>2015-06-19T06:20:41Z</time>
      </trkpt>
      <trkpt lat="41.78873" lon="9.24135">
        <ele>1023.6</ele>
        <time>2015-06-19T06:20:50Z</time>
      </trkpt>
      <trkpt lat="41.78869" lon="9.24129">
        <ele>1022.4</ele>
        <time>2015-06-19T06:20:58Z</time>
      </trkpt>
      <trkpt lat="41.78869" lon="9.24126">
        <ele>1022.2</ele>
        <time>2015-06-19T06:21:00Z</time>
      </trkpt>
      <trkpt lat="41.78869" lon="9.24125">
        <ele>1021.8</ele>
        <time>2015-06-19T06:21:02Z</time>
      </trkpt>
      <trkpt lat="41.7887" lon="9.2412">
        <ele>1021</ele>
        <time>2015-06-19T06:21:07Z</time>
      </trkpt>
      <trkpt lat="41.78868" lon="9.24114">
        <ele>1020.4</ele>
        <time>2015-06-19T06:21:13Z</time>
      </trkpt>
      <trkpt lat="41.78864" lon="9.24109">
        <ele>1018.6</ele>
        <time>2015-06-19T06:21:20Z</time>
      </trkpt>
      <trkpt lat="41.78864" lon="9.24097">
        <ele>1017.2</ele>
        <time>2015-06-19T06:21:28Z</time>
      </trkpt>
      <trkpt lat="41.78868" lon="9.24088">
        <ele>1016.6</ele>
        <time>2015-06-19T06:21:34Z</time>
      </trkpt>
      <trkpt lat="41.78867" lon="9.24087">
        <ele>1016.2</ele>
        <time>2015-06-19T06:21:35Z</time>
      </trkpt>
      <trkpt lat="41.78866" lon="9.24085">
        <ele>1015.6</ele>
        <time>2015-06-19T06:21:38Z</time>
      </trkpt>
      <trkpt lat="41.78867" lon="9.24081">
        <ele>1015</ele>
        <time>2015-06-19T06:21:42Z</time>
      </trkpt>
      <trkpt lat="41.78866" lon="9.24071">
        <ele>1013</ele>
        <time>2015-06-19T06:21:54Z</time>
      </trkpt>
      <trkpt lat="41.78866" lon="9.24051">
        <ele>1011.4</ele>
        <time>2015-06-19T06:22:11Z</time>
      </trkpt>
      <trkpt lat="41.78868" lon="9.24048">
        <ele>1011.2</ele>
        <time>2015-06-19T06:22:15Z</time>
      </trkpt>
      <trkpt lat="41.78871" lon="9.24036">
        <ele>1010.2</ele>
        <time>2015-06-19T06:22:29Z</time>
      </trkpt>
      <trkpt lat="41.78872" lon="9.24032">
        <ele>1009.8</ele>
        <time>2015-06-19T06:22:33Z</time>
      </trkpt>
      <trkpt lat="41.78872" lon="9.24029">
        <ele>1009.6</ele>
        <time>2015-06-19T06:22:36Z</time>
      </trkpt>
      <trkpt lat="41.78876" lon="9.24018">
        <ele>1008.8</ele>
        <time>2015-06-19T06:22:52Z</time>
      </trkpt>
      <trkpt lat="41.7888" lon="9.23987">
        <ele>1008.2</ele>
        <time>2015-06-19T06:23:23Z</time>
      </trkpt>
      <trkpt lat="41.78878" lon="9.2398">
        <ele>1008.4</ele>
        <time>2015-06-19T06:23:28Z</time>
      </trkpt>
      <trkpt lat="41.78863" lon="9.23949">
        <ele>1008.4</ele>
        <time>2015-06-19T06:23:53Z</time>
      </trkpt>
      <trkpt lat="41.78861" lon="9.23947">
        <ele>1008.4</ele>
        <time>2015-06-19T06:23:57Z</time>
      </trkpt>
      <trkpt lat="41.78859" lon="9.23945">
        <ele>1008.4</ele>
        <time>2015-06-19T06:23:59Z</time>
      </trkpt>
      <trkpt lat="41.7882" lon="9.23917">
        <ele>1008.2</ele>
        <time>2015-06-19T06:24:42Z</time>
      </trkpt>
      <trkpt lat="41.78796" lon="9.23886">
        <ele>1007.2</ele>
        <time>2015-06-19T06:25:14Z</time>
      </trkpt>
      <trkpt lat="41.78795" lon="9.23882">
        <ele>1006.8</ele>
        <time>2015-06-19T06:25:19Z</time>
      </trkpt>
      <trkpt lat="41.78808" lon="9.23866">
        <ele>1007</ele>
        <time>2015-06-19T06:26:23Z</time>
      </trkpt>
      <trkpt lat="41.78829" lon="9.23856">
        <ele>1008</ele>
        <time>2015-06-19T06:26:43Z</time>
      </trkpt>
      <trkpt lat="41.78846" lon="9.23849">
        <ele>1008.8</ele>
        <time>2015-06-19T06:27:01Z</time>
      </trkpt>
      <trkpt lat="41.78854" lon="9.23847">
        <ele>1009.6</ele>
        <time>2015-06-19T06:27:10Z</time>
      </trkpt>
      <trkpt lat="41.78884" lon="9.23842">
        <ele>1011</ele>
        <time>2015-06-19T06:27:46Z</time>
      </trkpt>
      <trkpt lat="41.78891" lon="9.23852">
        <ele>1011.8</ele>
        <time>2015-06-19T06:27:59Z</time>
      </trkpt>
      <trkpt lat="41.78897" lon="9.23865">
        <ele>1012.6</ele>
        <time>2015-06-19T06:28:10Z</time>
      </trkpt>
      <trkpt lat="41.7891" lon="9.23869">
        <ele>1014</ele>
        <time>2015-06-19T06:28:24Z</time>
      </trkpt>
      <trkpt lat="41.78918" lon="9.23865">
        <ele>1014.4</ele>
        <time>2015-06-19T06:28:39Z</time>
      </trkpt>
      <trkpt lat="41.7892" lon="9.23863">
        <ele>1015.2</ele>
        <time>2015-06-19T06:28:44Z</time>
      </trkpt>
      <trkpt lat="41.78923" lon="9.23861">
        <ele>1016.2</ele>
        <time>2015-06-19T06:28:48Z</time>
      </trkpt>
      <trkpt lat="41.78925" lon="9.2386">
        <ele>1016.6</ele>
        <time>2015-06-19T06:28:50Z</time>
      </trkpt>
      <trkpt lat="41.78925" lon="9.23858">
        <ele>1017</ele>
        <time>2015-06-19T06:28:52Z</time>
      </trkpt>
      <trkpt lat="41.78925" lon="9.23856">
        <ele>1017.6</ele>
        <time>2015-06-19T06:28:55Z</time>
      </trkpt>
      <trkpt lat="41.78925" lon="9.23852">
        <ele>1019</ele>
        <time>2015-06-19T06:29:02Z</time>
      </trkpt>
      <trkpt lat="41.78926" lon="9.23849">
        <ele>1020.2</ele>
        <time>2015-06-19T06:29:09Z</time>
      </trkpt>
      <trkpt lat="41.78928" lon="9.23845">
        <ele>1021.6</ele>
        <time>2015-06-19T06:29:18Z</time>
      </trkpt>
      <trkpt lat="41.78929" lon="9.23844">
        <ele>1022.4</ele>
        <time>2015-06-19T06:29:25Z</time>
      </trkpt>
      <trkpt lat="41.78932" lon="9.23842">
        <ele>1023.4</ele>
        <time>2015-06-19T06:29:33Z</time>
      </trkpt>
      <trkpt lat="41.78936" lon="9.23843">
        <ele>1024.6</ele>
        <time>2015-06-19T06:29:41Z</time>
      </trkpt>
      <trkpt lat="41.7894" lon="9.23843">
        <ele>1025.8</ele>
        <time>2015-06-19T06:29:49Z</time>
      </trkpt>
      <trkpt lat="41.78944" lon="9.23845">
        <ele>1027</ele>
        <time>2015-06-19T06:29:57Z</time>
      </trkpt>
      <trkpt lat="41.78948" lon="9.23845">
        <ele>1028</ele>
        <time>2015-06-19T06:30:07Z</time>
      </trkpt>
      <trkpt lat="41.78953" lon="9.23847">
        <ele>1029</ele>
        <time>2015-06-19T06:30:15Z</time>
      </trkpt>
      <trkpt lat="41.78957" lon="9.23848">
        <ele>1030</ele>
        <time>2015-06-19T06:30:22Z</time>
      </trkpt>
      <trkpt lat="41.78962" lon="9.23848">
        <ele>1031.2</ele>
        <time>2015-06-19T06:30:31Z</time>
      </trkpt>
      <trkpt lat="41.78965" lon="9.23848">
        <ele>1032</ele>
        <time>2015-06-19T06:30:37Z</time>
      </trkpt>
      <trkpt lat="41.78971" lon="9.23843">
        <ele>1033.8</ele>
        <time>2015-06-19T06:30:48Z</time>
      </trkpt>
      <trkpt lat="41.78978" lon="9.23837">
        <ele>1034.8</ele>
        <time>2015-06-19T06:30:58Z</time>
      </trkpt>
      <trkpt lat="41.78976" lon="9.23832">
        <ele>1036.2</ele>
        <time>2015-06-19T06:31:14Z</time>
      </trkpt>
      <trkpt lat="41.78976" lon="9.23825">
        <ele>1037</ele>
        <time>2015-06-19T06:31:24Z</time>
      </trkpt>
      <trkpt lat="41.78977" lon="9.2382">
        <ele>1037.8</ele>
        <time>2015-06-19T06:31:32Z</time>
      </trkpt>
      <trkpt lat="41.78977" lon="9.23814">
        <ele>1039.4</ele>
        <time>2015-06-19T06:31:41Z</time>
      </trkpt>
      <trkpt lat="41.78971" lon="9.23811">
        <ele>1040.4</ele>
        <time>2015-06-19T06:31:53Z</time>
      </trkpt>
      <trkpt lat="41.78965" lon="9.23807">
        <ele>1041.4</ele>
        <time>2015-06-19T06:32:04Z</time>
      </trkpt>
      <trkpt lat="41.78962" lon="9.23801">
        <ele>1042.6</ele>
        <time>2015-06-19T06:32:15Z</time>
      </trkpt>
      <trkpt lat="41.78956" lon="9.23794">
        <ele>1044</ele>
        <time>2015-06-19T06:32:28Z</time>
      </trkpt>
      <trkpt lat="41.78949" lon="9.2379">
        <ele>1045.2</ele>
        <time>2015-06-19T06:32:41Z</time>
      </trkpt>
      <trkpt lat="41.78945" lon="9.23785">
        <ele>1046</ele>
        <time>2015-06-19T06:32:52Z</time>
      </trkpt>
      <trkpt lat="41.78945" lon="9.23784">
        <ele>1046.2</ele>
        <time>2015-06-19T06:32:53Z</time>
      </trkpt>
      <trkpt lat="41.78946" lon="9.23778">
        <ele>1047.2</ele>
        <time>2015-06-19T06:33:04Z</time>
      </trkpt>
      <trkpt lat="41.78945" lon="9.23774">
        <ele>1048.2</ele>
        <time>2015-06-19T06:33:13Z</time>
      </trkpt>
      <trkpt lat="41.78949" lon="9.23769">
        <ele>1049.2</ele>
        <time>2015-06-19T06:33:21Z</time>
      </trkpt>
      <trkpt lat="41.78947" lon="9.23764">
        <ele>1050.6</ele>
        <time>2015-06-19T06:33:32Z</time>
      </trkpt>
      <trkpt lat="41.78945" lon="9.23761">
        <ele>1051.6</ele>
        <time>2015-06-19T06:33:42Z</time>
      </trkpt>
      <trkpt lat="41.78945" lon="9.23758">
        <ele>1052.8</ele>
        <time>2015-06-19T06:33:50Z</time>
      </trkpt>
      <trkpt lat="41.78945" lon="9.23752">
        <ele>1053.8</ele>
        <time>2015-06-19T06:33:59Z</time>
      </trkpt>
      <trkpt lat="41.78944" lon="9.23746">
        <ele>1055</ele>
        <time>2015-06-19T06:34:08Z</time>
      </trkpt>
      <trkpt lat="41.78942" lon="9.23742">
        <ele>1056.2</ele>
        <time>2015-06-19T06:34:17Z</time>
      </trkpt>
      <trkpt lat="41.78943" lon="9.23737">
        <ele>1057.2</ele>
        <time>2015-06-19T06:34:27Z</time>
      </trkpt>
      <trkpt lat="41.78947" lon="9.23732">
        <ele>1058.6</ele>
        <time>2015-06-19T06:34:37Z</time>
      </trkpt>
      <trkpt lat="41.78947" lon="9.23727">
        <ele>1059.2</ele>
        <time>2015-06-19T06:34:43Z</time>
      </trkpt>
      <trkpt lat="41.78945" lon="9.23724">
        <ele>1060.8</ele>
        <time>2015-06-19T06:34:52Z</time>
      </trkpt>
      <trkpt lat="41.78946" lon="9.23722">
        <ele>1061.2</ele>
        <time>2015-06-19T06:34:55Z</time>
      </trkpt>
      <trkpt lat="41.78945" lon="9.23718">
        <ele>1062</ele>
        <time>2015-06-19T06:35:03Z</time>
      </trkpt>
      <trkpt lat="41.78943" lon="9.23712">
        <ele>1063</ele>
        <time>2015-06-19T06:35:15Z</time>
      </trkpt>
      <trkpt lat="41.78944" lon="9.23707">
        <ele>1064.4</ele>
        <time>2015-06-19T06:35:24Z</time>
      </trkpt>
      <trkpt lat="41.78943" lon="9.237">
        <ele>1065.4</ele>
        <time>2015-06-19T06:35:36Z</time>
      </trkpt>
      <trkpt lat="41.78942" lon="9.23694">
        <ele>1066.8</ele>
        <time>2015-06-19T06:35:47Z</time>
      </trkpt>
      <trkpt lat="41.78941" lon="9.23687">
        <ele>1067.6</ele>
        <time>2015-06-19T06:35:57Z</time>
      </trkpt>
      <trkpt lat="41.7894" lon="9.2368">
        <ele>1068.8</ele>
        <time>2015-06-19T06:36:07Z</time>
      </trkpt>
      <trkpt lat="41.78939" lon="9.23668">
        <ele>1070.4</ele>
        <time>2015-06-19T06:36:21Z</time>
      </trkpt>
      <trkpt lat="41.78934" lon="9.23657">
        <ele>1071.6</ele>
        <time>2015-06-19T06:36:37Z</time>
      </trkpt>
      <trkpt lat="41.78936" lon="9.23648">
        <ele>1073</ele>
        <time>2015-06-19T06:36:51Z</time>
      </trkpt>
      <trkpt lat="41.78935" lon="9.23644">
        <ele>1074</ele>
        <time>2015-06-19T06:37:03Z</time>
      </trkpt>
      <trkpt lat="41.78933" lon="9.23629">
        <ele>1075.4</ele>
        <time>2015-06-19T06:37:23Z</time>
      </trkpt>
      <trkpt lat="41.7893" lon="9.23624">
        <ele>1077</ele>
        <time>2015-06-19T06:37:42Z</time>
      </trkpt>
      <trkpt lat="41.78929" lon="9.23625">
        <ele>1077.2</ele>
        <time>2015-06-19T06:37:49Z</time>
      </trkpt>
      <trkpt lat="41.78934" lon="9.23607">
        <ele>1078.2</ele>
        <time>2015-06-19T06:38:45Z</time>
      </trkpt>
      <trkpt lat="41.78934" lon="9.23606">
        <ele>1077.4</ele>
        <time>2015-06-19T06:38:58Z</time>
      </trkpt>
      <trkpt lat="41.78932" lon="9.23609">
        <ele>1076.6</ele>
        <time>2015-06-19T06:39:21Z</time>
      </trkpt>
      <trkpt lat="41.78934" lon="9.23585">
        <ele>1077.2</ele>
        <time>2015-06-19T06:40:14Z</time>
      </trkpt>
      <trkpt lat="41.78937" lon="9.23582">
        <ele>1078</ele>
        <time>2015-06-19T06:40:21Z</time>
      </trkpt>
      <trkpt lat="41.78938" lon="9.23576">
        <ele>1079.2</ele>
        <time>2015-06-19T06:40:28Z</time>
      </trkpt>
      <trkpt lat="41.78941" lon="9.23573">
        <ele>1080.4</ele>
        <time>2015-06-19T06:40:35Z</time>
      </trkpt>
      <trkpt lat="41.78945" lon="9.2357">
        <ele>1081.6</ele>
        <time>2015-06-19T06:40:42Z</time>
      </trkpt>
      <trkpt lat="41.78945" lon="9.23565">
        <ele>1083.2</ele>
        <time>2015-06-19T06:40:51Z</time>
      </trkpt>
      <trkpt lat="41.78945" lon="9.23561">
        <ele>1084.4</ele>
        <time>2015-06-19T06:40:58Z</time>
      </trkpt>
      <trkpt lat="41.78948" lon="9.23559">
        <ele>1085.4</ele>
        <time>2015-06-19T06:41:06Z</time>
      </trkpt>
      <trkpt lat="41.78951" lon="9.23559">
        <ele>1086.4</ele>
        <time>2015-06-19T06:41:13Z</time>
      </trkpt>
      <trkpt lat="41.78954" lon="9.23558">
        <ele>1088.2</ele>
        <time>2015-06-19T06:41:24Z</time>
      </trkpt>
      <trkpt lat="41.78954" lon="9.23556">
        <ele>1089.2</ele>
        <time>2015-06-19T06:41:33Z</time>
      </trkpt>
      <trkpt lat="41.78958" lon="9.23552">
        <ele>1090</ele>
        <time>2015-06-19T06:41:40Z</time>
      </trkpt>
      <trkpt lat="41.78962" lon="9.23551">
        <ele>1090.2</ele>
        <time>2015-06-19T06:41:45Z</time>
      </trkpt>
      <trkpt lat="41.78965" lon="9.23549">
        <ele>1091.2</ele>
        <time>2015-06-19T06:41:52Z</time>
      </trkpt>
      <trkpt lat="41.78967" lon="9.23548">
        <ele>1092.6</ele>
        <time>2015-06-19T06:42:02Z</time>
      </trkpt>
      <trkpt lat="41.78971" lon="9.23548">
        <ele>1093.8</ele>
        <time>2015-06-19T06:42:13Z</time>
      </trkpt>
      <trkpt lat="41.78974" lon="9.23546">
        <ele>1094.6</ele>
        <time>2015-06-19T06:42:35Z</time>
      </trkpt>
      <trkpt lat="41.78977" lon="9.23542">
        <ele>1095.6</ele>
        <time>2015-06-19T06:42:41Z</time>
      </trkpt>
      <trkpt lat="41.78979" lon="9.23539">
        <ele>1097.2</ele>
        <time>2015-06-19T06:42:49Z</time>
      </trkpt>
      <trkpt lat="41.78981" lon="9.23537">
        <ele>1098</ele>
        <time>2015-06-19T06:42:56Z</time>
      </trkpt>
      <trkpt lat="41.78985" lon="9.23536">
        <ele>1099.6</ele>
        <time>2015-06-19T06:43:06Z</time>
      </trkpt>
      <trkpt lat="41.7899" lon="9.23537">
        <ele>1101</ele>
        <time>2015-06-19T06:43:15Z</time>
      </trkpt>
      <trkpt lat="41.78993" lon="9.23534">
        <ele>1101.8</ele>
        <time>2015-06-19T06:43:25Z</time>
      </trkpt>
      <trkpt lat="41.7899" lon="9.23535">
        <ele>1102.8</ele>
        <time>2015-06-19T06:43:33Z</time>
      </trkpt>
      <trkpt lat="41.78992" lon="9.23538">
        <ele>1104</ele>
        <time>2015-06-19T06:43:42Z</time>
      </trkpt>
      <trkpt lat="41.78992" lon="9.23538">
        <ele>1104.2</ele>
        <time>2015-06-19T06:43:43Z</time>
      </trkpt>
      <trkpt lat="41.78989" lon="9.23539">
        <ele>1105</ele>
        <time>2015-06-19T06:43:49Z</time>
      </trkpt>
      <trkpt lat="41.78991" lon="9.23534">
        <ele>1106.6</ele>
        <time>2015-06-19T06:43:58Z</time>
      </trkpt>
      <trkpt lat="41.78994" lon="9.23532">
        <ele>1107</ele>
        <time>2015-06-19T06:44:01Z</time>
      </trkpt>
      <trkpt lat="41.78998" lon="9.23528">
        <ele>1107.6</ele>
        <time>2015-06-19T06:44:05Z</time>
      </trkpt>
      <trkpt lat="41.79001" lon="9.23526">
        <ele>1107.8</ele>
        <time>2015-06-19T06:44:08Z</time>
      </trkpt>
      <trkpt lat="41.79001" lon="9.23525">
        <ele>1108</ele>
        <time>2015-06-19T06:44:09Z</time>
      </trkpt>
      <trkpt lat="41.79001" lon="9.23524">
        <ele>1108</ele>
        <time>2015-06-19T06:44:10Z</time>
      </trkpt>
      <trkpt lat="41.79008" lon="9.2352">
        <ele>1109</ele>
        <time>2015-06-19T06:44:18Z</time>
      </trkpt>
      <trkpt lat="41.79008" lon="9.2352">
        <ele>1109</ele>
        <time>2015-06-19T06:44:19Z</time>
      </trkpt>
      <trkpt lat="41.79011" lon="9.23517">
        <ele>1109.8</ele>
        <time>2015-06-19T06:44:26Z</time>
      </trkpt>
      <trkpt lat="41.79012" lon="9.23514">
        <ele>1111.2</ele>
        <time>2015-06-19T06:44:33Z</time>
      </trkpt>
      <trkpt lat="41.79015" lon="9.23511">
        <ele>1112.4</ele>
        <time>2015-06-19T06:44:42Z</time>
      </trkpt>
      <trkpt lat="41.79019" lon="9.23511">
        <ele>1113.4</ele>
        <time>2015-06-19T06:44:51Z</time>
      </trkpt>
      <trkpt lat="41.79022" lon="9.23513">
        <ele>1114.4</ele>
        <time>2015-06-19T06:45:00Z</time>
      </trkpt>
      <trkpt lat="41.79023" lon="9.23511">
        <ele>1115.6</ele>
        <time>2015-06-19T06:45:09Z</time>
      </trkpt>
      <trkpt lat="41.79022" lon="9.23507">
        <ele>1116.8</ele>
        <time>2015-06-19T06:45:18Z</time>
      </trkpt>
      <trkpt lat="41.79023" lon="9.23506">
        <ele>1118</ele>
        <time>2015-06-19T06:45:27Z</time>
      </trkpt>
      <trkpt lat="41.79029" lon="9.23503">
        <ele>1118.6</ele>
        <time>2015-06-19T06:45:33Z</time>
      </trkpt>
      <trkpt lat="41.79032" lon="9.23501">
        <ele>1118.8</ele>
        <time>2015-06-19T06:45:36Z</time>
      </trkpt>
      <trkpt lat="41.79036" lon="9.23499">
        <ele>1119.2</ele>
        <time>2015-06-19T06:45:39Z</time>
      </trkpt>
      <trkpt lat="41.79038" lon="9.23497">
        <ele>1119.4</ele>
        <time>2015-06-19T06:45:41Z</time>
      </trkpt>
      <trkpt lat="41.79038" lon="9.23497">
        <ele>1119.6</ele>
        <time>2015-06-19T06:45:43Z</time>
      </trkpt>
      <trkpt lat="41.7904" lon="9.23496">
        <ele>1120</ele>
        <time>2015-06-19T06:45:47Z</time>
      </trkpt>
      <trkpt lat="41.79044" lon="9.23494">
        <ele>1121.2</ele>
        <time>2015-06-19T06:45:55Z</time>
      </trkpt>
      <trkpt lat="41.79044" lon="9.23494">
        <ele>1122.4</ele>
        <time>2015-06-19T06:46:03Z</time>
      </trkpt>
      <trkpt lat="41.79044" lon="9.23491">
        <ele>1123.4</ele>
        <time>2015-06-19T06:46:12Z</time>
      </trkpt>
      <trkpt lat="41.79042" lon="9.23488">
        <ele>1124.6</ele>
        <time>2015-06-19T06:46:20Z</time>
      </trkpt>
      <trkpt lat="41.79041" lon="9.23486">
        <ele>1126</ele>
        <time>2015-06-19T06:46:30Z</time>
      </trkpt>
      <trkpt lat="41.79042" lon="9.23485">
        <ele>1126.8</ele>
        <time>2015-06-19T06:46:37Z</time>
      </trkpt>
      <trkpt lat="41.79041" lon="9.23482">
        <ele>1128.2</ele>
        <time>2015-06-19T06:46:45Z</time>
      </trkpt>
      <trkpt lat="41.79043" lon="9.23479">
        <ele>1129.2</ele>
        <time>2015-06-19T06:46:52Z</time>
      </trkpt>
      <trkpt lat="41.79042" lon="9.23475">
        <ele>1130.4</ele>
        <time>2015-06-19T06:47:01Z</time>
      </trkpt>
      <trkpt lat="41.79045" lon="9.23473">
        <ele>1131.2</ele>
        <time>2015-06-19T06:47:08Z</time>
      </trkpt>
      <trkpt lat="41.79047" lon="9.23469">
        <ele>1132.8</ele>
        <time>2015-06-19T06:47:18Z</time>
      </trkpt>
      <trkpt lat="41.79049" lon="9.23463">
        <ele>1133.6</ele>
        <time>2015-06-19T06:47:26Z</time>
      </trkpt>
      <trkpt lat="41.79051" lon="9.23457">
        <ele>1134.8</ele>
        <time>2015-06-19T06:47:34Z</time>
      </trkpt>
      <trkpt lat="41.79054" lon="9.2345">
        <ele>1136.4</ele>
        <time>2015-06-19T06:47:52Z</time>
      </trkpt>
      <trkpt lat="41.79053" lon="9.23446">
        <ele>1137</ele>
        <time>2015-06-19T06:48:04Z</time>
      </trkpt>
      <trkpt lat="41.79054" lon="9.23443">
        <ele>1137.8</ele>
        <time>2015-06-19T06:48:10Z</time>
      </trkpt>
      <trkpt lat="41.79055" lon="9.2344">
        <ele>1139.2</ele>
        <time>2015-06-19T06:48:17Z</time>
      </trkpt>
      <trkpt lat="41.79054" lon="9.23432">
        <ele>1140.6</ele>
        <time>2015-06-19T06:48:27Z</time>
      </trkpt>
      <trkpt lat="41.79055" lon="9.23425">
        <ele>1141.4</ele>
        <time>2015-06-19T06:48:36Z</time>
      </trkpt>
      <trkpt lat="41.79056" lon="9.23425">
        <ele>1141.8</ele>
        <time>2015-06-19T06:48:38Z</time>
      </trkpt>
      <trkpt lat="41.79057" lon="9.23423">
        <ele>1142.4</ele>
        <time>2015-06-19T06:48:43Z</time>
      </trkpt>
      <trkpt lat="41.79061" lon="9.23421">
        <ele>1143.2</ele>
        <time>2015-06-19T06:48:48Z</time>
      </trkpt>
      <trkpt lat="41.79061" lon="9.2342">
        <ele>1143.8</ele>
        <time>2015-06-19T06:48:53Z</time>
      </trkpt>
      <trkpt lat="41.79062" lon="9.2342">
        <ele>1144.8</ele>
        <time>2015-06-19T06:49:01Z</time>
      </trkpt>
      <trkpt lat="41.79064" lon="9.23418">
        <ele>1146</ele>
        <time>2015-06-19T06:49:10Z</time>
      </trkpt>
      <trkpt lat="41.79065" lon="9.23416">
        <ele>1147</ele>
        <time>2015-06-19T06:49:18Z</time>
      </trkpt>
      <trkpt lat="41.79067" lon="9.2341">
        <ele>1148.2</ele>
        <time>2015-06-19T06:49:27Z</time>
      </trkpt>
      <trkpt lat="41.79066" lon="9.23404">
        <ele>1149.6</ele>
        <time>2015-06-19T06:49:37Z</time>
      </trkpt>
      <trkpt lat="41.79069" lon="9.23399">
        <ele>1150.6</ele>
        <time>2015-06-19T06:49:45Z</time>
      </trkpt>
      <trkpt lat="41.79069" lon="9.23393">
        <ele>1151.6</ele>
        <time>2015-06-19T06:49:54Z</time>
      </trkpt>
      <trkpt lat="41.79071" lon="9.23386">
        <ele>1153</ele>
        <time>2015-06-19T06:50:05Z</time>
      </trkpt>
      <trkpt lat="41.79076" lon="9.23383">
        <ele>1154</ele>
        <time>2015-06-19T06:50:14Z</time>
      </trkpt>
      <trkpt lat="41.79067" lon="9.23327">
        <ele>1155.2</ele>
        <time>2015-06-19T06:51:07Z</time>
      </trkpt>
      <trkpt lat="41.79069" lon="9.23319">
        <ele>1155.4</ele>
        <time>2015-06-19T06:51:13Z</time>
      </trkpt>
      <trkpt lat="41.79072" lon="9.23314">
        <ele>1155.4</ele>
        <time>2015-06-19T06:51:17Z</time>
      </trkpt>
      <trkpt lat="41.79083" lon="9.23302">
        <ele>1154.8</ele>
        <time>2015-06-19T06:51:28Z</time>
      </trkpt>
      <trkpt lat="41.79084" lon="9.23282">
        <ele>1154</ele>
        <time>2015-06-19T06:51:42Z</time>
      </trkpt>
      <trkpt lat="41.79084" lon="9.23264">
        <ele>1154</ele>
        <time>2015-06-19T06:51:57Z</time>
      </trkpt>
      <trkpt lat="41.79083" lon="9.23257">
        <ele>1155</ele>
        <time>2015-06-19T06:52:04Z</time>
      </trkpt>
      <trkpt lat="41.79082" lon="9.23252">
        <ele>1156</ele>
        <time>2015-06-19T06:52:10Z</time>
      </trkpt>
      <trkpt lat="41.79084" lon="9.23245">
        <ele>1157.4</ele>
        <time>2015-06-19T06:52:18Z</time>
      </trkpt>
      <trkpt lat="41.79106" lon="9.23239">
        <ele>1158.4</ele>
        <time>2015-06-19T06:54:09Z</time>
      </trkpt>
      <trkpt lat="41.79109" lon="9.2324">
        <ele>1158.6</ele>
        <time>2015-06-19T06:54:12Z</time>
      </trkpt>
      <trkpt lat="41.79111" lon="9.2324">
        <ele>1159.8</ele>
        <time>2015-06-19T06:54:17Z</time>
      </trkpt>
      <trkpt lat="41.79118" lon="9.2324">
        <ele>1160.8</ele>
        <time>2015-06-19T06:54:28Z</time>
      </trkpt>
      <trkpt lat="41.79126" lon="9.23233">
        <ele>1162</ele>
        <time>2015-06-19T06:54:43Z</time>
      </trkpt>
      <trkpt lat="41.79161" lon="9.23195">
        <ele>1162.6</ele>
        <time>2015-06-19T06:55:27Z</time>
      </trkpt>
      <trkpt lat="41.79171" lon="9.23184">
        <ele>1162.8</ele>
        <time>2015-06-19T06:55:40Z</time>
      </trkpt>
      <trkpt lat="41.79173" lon="9.23182">
        <ele>1163</ele>
        <time>2015-06-19T06:55:43Z</time>
      </trkpt>
      <trkpt lat="41.79174" lon="9.23179">
        <ele>1163.4</ele>
        <time>2015-06-19T06:55:48Z</time>
      </trkpt>
      <trkpt lat="41.79179" lon="9.23174">
        <ele>1164.2</ele>
        <time>2015-06-19T06:55:54Z</time>
      </trkpt>
      <trkpt lat="41.79181" lon="9.23167">
        <ele>1164.4</ele>
        <time>2015-06-19T06:56:00Z</time>
      </trkpt>
      <trkpt lat="41.79185" lon="9.23159">
        <ele>1164.4</ele>
        <time>2015-06-19T06:56:06Z</time>
      </trkpt>
      <trkpt lat="41.79194" lon="9.2314">
        <ele>1164.2</ele>
        <time>2015-06-19T06:56:24Z</time>
      </trkpt>
      <trkpt lat="41.79191" lon="9.23079">
        <ele>1164.6</ele>
        <time>2015-06-19T06:57:08Z</time>
      </trkpt>
      <trkpt lat="41.7919" lon="9.23066">
        <ele>1165</ele>
        <time>2015-06-19T06:57:21Z</time>
      </trkpt>
      <trkpt lat="41.79192" lon="9.23058">
        <ele>1165</ele>
        <time>2015-06-19T06:57:26Z</time>
      </trkpt>
      <trkpt lat="41.7921" lon="9.23042">
        <ele>1165.4</ele>
        <time>2015-06-19T06:57:40Z</time>
      </trkpt>
      <trkpt lat="41.79233" lon="9.23041">
        <ele>1166.2</ele>
        <time>2015-06-19T06:58:08Z</time>
      </trkpt>
      <trkpt lat="41.79245" lon="9.23043">
        <ele>1166.2</ele>
        <time>2015-06-19T06:58:25Z</time>
      </trkpt>
      <trkpt lat="41.79252" lon="9.23044">
        <ele>1166.4</ele>
        <time>2015-06-19T06:58:29Z</time>
      </trkpt>
      <trkpt lat="41.79268" lon="9.23048">
        <ele>1167</ele>
        <time>2015-06-19T06:58:39Z</time>
      </trkpt>
      <trkpt lat="41.79272" lon="9.23047">
        <ele>1167.2</ele>
        <time>2015-06-19T06:58:44Z</time>
      </trkpt>
      <trkpt lat="41.79276" lon="9.23048">
        <ele>1167.4</ele>
        <time>2015-06-19T06:58:48Z</time>
      </trkpt>
      <trkpt lat="41.79278" lon="9.23049">
        <ele>1167.6</ele>
        <time>2015-06-19T06:58:50Z</time>
      </trkpt>
      <trkpt lat="41.79286" lon="9.23051">
        <ele>1167.8</ele>
        <time>2015-06-19T06:58:57Z</time>
      </trkpt>
      <trkpt lat="41.79287" lon="9.23051">
        <ele>1167.8</ele>
        <time>2015-06-19T06:58:59Z</time>
      </trkpt>
      <trkpt lat="41.7929" lon="9.23052">
        <ele>1168</ele>
        <time>2015-06-19T06:59:05Z</time>
      </trkpt>
      <trkpt lat="41.79296" lon="9.23049">
        <ele>1168.4</ele>
        <time>2015-06-19T06:59:11Z</time>
      </trkpt>
      <trkpt lat="41.79304" lon="9.23044">
        <ele>1168.4</ele>
        <time>2015-06-19T06:59:19Z</time>
      </trkpt>
      <trkpt lat="41.79308" lon="9.23041">
        <ele>1168.4</ele>
        <time>2015-06-19T06:59:23Z</time>
      </trkpt>
      <trkpt lat="41.7931" lon="9.23039">
        <ele>1168.2</ele>
        <time>2015-06-19T06:59:26Z</time>
      </trkpt>
      <trkpt lat="41.79312" lon="9.23038">
        <ele>1168.2</ele>
        <time>2015-06-19T06:59:28Z</time>
      </trkpt>
      <trkpt lat="41.79321" lon="9.23032">
        <ele>1167.6</ele>
        <time>2015-06-19T06:59:38Z</time>
      </trkpt>
      <trkpt lat="41.79326" lon="9.23028">
        <ele>1167.4</ele>
        <time>2015-06-19T06:59:43Z</time>
      </trkpt>
      <trkpt lat="41.79332" lon="9.23024">
        <ele>1167.2</ele>
        <time>2015-06-19T06:59:50Z</time>
      </trkpt>
      <trkpt lat="41.79333" lon="9.23023">
        <ele>1167.2</ele>
        <time>2015-06-19T06:59:51Z</time>
      </trkpt>
      <trkpt lat="41.79337" lon="9.23021">
        <ele>1167</ele>
        <time>2015-06-19T06:59:56Z</time>
      </trkpt>
      <trkpt lat="41.79338" lon="9.23021">
        <ele>1166.8</ele>
        <time>2015-06-19T06:59:58Z</time>
      </trkpt>
      <trkpt lat="41.79352" lon="9.23013">
        <ele>1166.4</ele>
        <time>2015-06-19T07:00:09Z</time>
      </trkpt>
      <trkpt lat="41.79355" lon="9.23012">
        <ele>1166.4</ele>
        <time>2015-06-19T07:00:11Z</time>
      </trkpt>
      <trkpt lat="41.79358" lon="9.23011">
        <ele>1166.4</ele>
        <time>2015-06-19T07:00:13Z</time>
      </trkpt>
      <trkpt lat="41.79361" lon="9.23009">
        <ele>1166.4</ele>
        <time>2015-06-19T07:00:15Z</time>
      </trkpt>
      <trkpt lat="41.7937" lon="9.23002">
        <ele>1166.8</ele>
        <time>2015-06-19T07:00:24Z</time>
      </trkpt>
      <trkpt lat="41.79377" lon="9.22996">
        <ele>1167</ele>
        <time>2015-06-19T07:00:32Z</time>
      </trkpt>
      <trkpt lat="41.79381" lon="9.22992">
        <ele>1167.4</ele>
        <time>2015-06-19T07:00:36Z</time>
      </trkpt>
      <trkpt lat="41.79394" lon="9.2298">
        <ele>1167.8</ele>
        <time>2015-06-19T07:00:55Z</time>
      </trkpt>
      <trkpt lat="41.79396" lon="9.22978">
        <ele>1167.8</ele>
        <time>2015-06-19T07:00:57Z</time>
      </trkpt>
      <trkpt lat="41.794" lon="9.22975">
        <ele>1168</ele>
        <time>2015-06-19T07:01:01Z</time>
      </trkpt>
      <trkpt lat="41.79401" lon="9.22975">
        <ele>1168.2</ele>
        <time>2015-06-19T07:01:03Z</time>
      </trkpt>
      <trkpt lat="41.79406" lon="9.22968">
        <ele>1168.4</ele>
        <time>2015-06-19T07:01:10Z</time>
      </trkpt>
      <trkpt lat="41.79409" lon="9.22961">
        <ele>1168.4</ele>
        <time>2015-06-19T07:01:15Z</time>
      </trkpt>
      <trkpt lat="41.79411" lon="9.22959">
        <ele>1168.4</ele>
        <time>2015-06-19T07:01:19Z</time>
      </trkpt>
      <trkpt lat="41.79416" lon="9.22958">
        <ele>1168.4</ele>
        <time>2015-06-19T07:01:24Z</time>
      </trkpt>
      <trkpt lat="41.79419" lon="9.22958">
        <ele>1168.2</ele>
        <time>2015-06-19T07:01:27Z</time>
      </trkpt>
      <trkpt lat="41.79426" lon="9.2296">
        <ele>1168.4</ele>
        <time>2015-06-19T07:01:32Z</time>
      </trkpt>
      <trkpt lat="41.79431" lon="9.2296">
        <ele>1168.6</ele>
        <time>2015-06-19T07:01:35Z</time>
      </trkpt>
      <trkpt lat="41.79433" lon="9.22961">
        <ele>1168.6</ele>
        <time>2015-06-19T07:01:37Z</time>
      </trkpt>
      <trkpt lat="41.79443" lon="9.22968">
        <ele>1168.6</ele>
        <time>2015-06-19T07:01:47Z</time>
      </trkpt>
      <trkpt lat="41.79445" lon="9.22969">
        <ele>1168.6</ele>
        <time>2015-06-19T07:01:49Z</time>
      </trkpt>
      <trkpt lat="41.7946" lon="9.22962">
        <ele>1168.6</ele>
        <time>2015-06-19T07:02:06Z</time>
      </trkpt>
      <trkpt lat="41.79472" lon="9.22938">
        <ele>1169.4</ele>
        <time>2015-06-19T07:02:45Z</time>
      </trkpt>
      <trkpt lat="41.79466" lon="9.22916">
        <ele>1169.8</ele>
        <time>2015-06-19T07:03:09Z</time>
      </trkpt>
      <trkpt lat="41.79487" lon="9.22885">
        <ele>1169.2</ele>
        <time>2015-06-19T07:03:58Z</time>
      </trkpt>
      <trkpt lat="41.79493" lon="9.22884">
        <ele>1169.6</ele>
        <time>2015-06-19T07:36:00Z</time>
      </trkpt>
      <trkpt lat="41.79492" lon="9.22873">
        <ele>1171</ele>
        <time>2015-06-19T07:36:13Z</time>
      </trkpt>
      <trkpt lat="41.79495" lon="9.22859">
        <ele>1171</ele>
        <time>2015-06-19T07:36:29Z</time>
      </trkpt>
      <trkpt lat="41.79499" lon="9.22852">
        <ele>1172.2</ele>
        <time>2015-06-19T07:36:40Z</time>
      </trkpt>
      <trkpt lat="41.79507" lon="9.22845">
        <ele>1173.4</ele>
        <time>2015-06-19T07:36:51Z</time>
      </trkpt>
      <trkpt lat="41.79508" lon="9.22844">
        <ele>1173.4</ele>
        <time>2015-06-19T07:36:52Z</time>
      </trkpt>
      <trkpt lat="41.79514" lon="9.22835">
        <ele>1174.2</ele>
        <time>2015-06-19T07:37:01Z</time>
      </trkpt>
      <trkpt lat="41.79518" lon="9.22821">
        <ele>1175.6</ele>
        <time>2015-06-19T07:37:13Z</time>
      </trkpt>
      <trkpt lat="41.79517" lon="9.22806">
        <ele>1176.8</ele>
        <time>2015-06-19T07:37:27Z</time>
      </trkpt>
      <trkpt lat="41.79519" lon="9.22788">
        <ele>1177.8</ele>
        <time>2015-06-19T07:37:42Z</time>
      </trkpt>
      <trkpt lat="41.79523" lon="9.22779">
        <ele>1178.6</ele>
        <time>2015-06-19T07:37:52Z</time>
      </trkpt>
      <trkpt lat="41.79527" lon="9.22769">
        <ele>1179.6</ele>
        <time>2015-06-19T07:38:01Z</time>
      </trkpt>
      <trkpt lat="41.79537" lon="9.22753">
        <ele>1181.2</ele>
        <time>2015-06-19T07:38:14Z</time>
      </trkpt>
      <trkpt lat="41.79542" lon="9.22745">
        <ele>1182</ele>
        <time>2015-06-19T07:38:25Z</time>
      </trkpt>
      <trkpt lat="41.79546" lon="9.2274">
        <ele>1182.6</ele>
        <time>2015-06-19T07:38:31Z</time>
      </trkpt>
      <trkpt lat="41.7955" lon="9.22734">
        <ele>1183</ele>
        <time>2015-06-19T07:38:37Z</time>
      </trkpt>
      <trkpt lat="41.79556" lon="9.22721">
        <ele>1184.4</ele>
        <time>2015-06-19T07:38:50Z</time>
      </trkpt>
      <trkpt lat="41.79559" lon="9.22707">
        <ele>1185.4</ele>
        <time>2015-06-19T07:39:03Z</time>
      </trkpt>
      <trkpt lat="41.79561" lon="9.22705">
        <ele>1185.6</ele>
        <time>2015-06-19T07:39:05Z</time>
      </trkpt>
      <trkpt lat="41.79563" lon="9.22702">
        <ele>1185.8</ele>
        <time>2015-06-19T07:39:08Z</time>
      </trkpt>
      <trkpt lat="41.79564" lon="9.22699">
        <ele>1186.2</ele>
        <time>2015-06-19T07:39:11Z</time>
      </trkpt>
      <trkpt lat="41.79566" lon="9.22697">
        <ele>1186.2</ele>
        <time>2015-06-19T07:39:14Z</time>
      </trkpt>
      <trkpt lat="41.7957" lon="9.22692">
        <ele>1187</ele>
        <time>2015-06-19T07:39:18Z</time>
      </trkpt>
      <trkpt lat="41.79571" lon="9.22689">
        <ele>1187</ele>
        <time>2015-06-19T07:39:21Z</time>
      </trkpt>
      <trkpt lat="41.79572" lon="9.22685">
        <ele>1187.6</ele>
        <time>2015-06-19T07:39:26Z</time>
      </trkpt>
      <trkpt lat="41.79576" lon="9.22675">
        <ele>1188.8</ele>
        <time>2015-06-19T07:39:39Z</time>
      </trkpt>
      <trkpt lat="41.79579" lon="9.22664">
        <ele>1189.6</ele>
        <time>2015-06-19T07:39:49Z</time>
      </trkpt>
      <trkpt lat="41.7958" lon="9.22659">
        <ele>1190</ele>
        <time>2015-06-19T07:39:53Z</time>
      </trkpt>
      <trkpt lat="41.79583" lon="9.22644">
        <ele>1191.2</ele>
        <time>2015-06-19T07:40:06Z</time>
      </trkpt>
      <trkpt lat="41.79584" lon="9.2264">
        <ele>1191.2</ele>
        <time>2015-06-19T07:40:09Z</time>
      </trkpt>
      <trkpt lat="41.79585" lon="9.22636">
        <ele>1191.6</ele>
        <time>2015-06-19T07:40:13Z</time>
      </trkpt>
      <trkpt lat="41.79587" lon="9.22628">
        <ele>1192.6</ele>
        <time>2015-06-19T07:40:21Z</time>
      </trkpt>
      <trkpt lat="41.79587" lon="9.22614">
        <ele>1193.6</ele>
        <time>2015-06-19T07:40:36Z</time>
      </trkpt>
      <trkpt lat="41.79587" lon="9.22607">
        <ele>1194</ele>
        <time>2015-06-19T07:40:41Z</time>
      </trkpt>
      <trkpt lat="41.79587" lon="9.22597">
        <ele>1194.6</ele>
        <time>2015-06-19T07:40:49Z</time>
      </trkpt>
      <trkpt lat="41.7959" lon="9.22578">
        <ele>1196</ele>
        <time>2015-06-19T07:41:05Z</time>
      </trkpt>
      <trkpt lat="41.7959" lon="9.2257">
        <ele>1196.6</ele>
        <time>2015-06-19T07:41:12Z</time>
      </trkpt>
      <trkpt lat="41.7959" lon="9.22562">
        <ele>1197.2</ele>
        <time>2015-06-19T07:41:20Z</time>
      </trkpt>
      <trkpt lat="41.79589" lon="9.22545">
        <ele>1198.2</ele>
        <time>2015-06-19T07:41:32Z</time>
      </trkpt>
      <trkpt lat="41.79588" lon="9.22542">
        <ele>1198.4</ele>
        <time>2015-06-19T07:41:35Z</time>
      </trkpt>
      <trkpt lat="41.79587" lon="9.22527">
        <ele>1199.6</ele>
        <time>2015-06-19T07:41:48Z</time>
      </trkpt>
      <trkpt lat="41.79587" lon="9.22507">
        <ele>1200.4</ele>
        <time>2015-06-19T07:42:04Z</time>
      </trkpt>
      <trkpt lat="41.79587" lon="9.22494">
        <ele>1201.2</ele>
        <time>2015-06-19T07:42:16Z</time>
      </trkpt>
      <trkpt lat="41.79588" lon="9.22481">
        <ele>1201.6</ele>
        <time>2015-06-19T07:44:29Z</time>
      </trkpt>
      <trkpt lat="41.7958" lon="9.22438">
        <ele>1201.6</ele>
        <time>2015-06-19T07:45:09Z</time>
      </trkpt>
      <trkpt lat="41.79584" lon="9.22434">
        <ele>1201.2</ele>
        <time>2015-06-19T07:45:18Z</time>
      </trkpt>
      <trkpt lat="41.79594" lon="9.22429">
        <ele>1200.6</ele>
        <time>2015-06-19T07:45:47Z</time>
      </trkpt>
      <trkpt lat="41.79604" lon="9.22428">
        <ele>1199.6</ele>
        <time>2015-06-19T07:45:58Z</time>
      </trkpt>
      <trkpt lat="41.79621" lon="9.22412">
        <ele>1198</ele>
        <time>2015-06-19T07:46:25Z</time>
      </trkpt>
      <trkpt lat="41.7963" lon="9.22396">
        <ele>1197.2</ele>
        <time>2015-06-19T07:46:41Z</time>
      </trkpt>
      <trkpt lat="41.79635" lon="9.22386">
        <ele>1196.2</ele>
        <time>2015-06-19T07:46:51Z</time>
      </trkpt>
      <trkpt lat="41.79669" lon="9.22347">
        <ele>1195.6</ele>
        <time>2015-06-19T07:47:44Z</time>
      </trkpt>
      <trkpt lat="41.79676" lon="9.22334">
        <ele>1194.2</ele>
        <time>2015-06-19T07:48:00Z</time>
      </trkpt>
      <trkpt lat="41.79683" lon="9.2232">
        <ele>1193.6</ele>
        <time>2015-06-19T07:48:13Z</time>
      </trkpt>
      <trkpt lat="41.79685" lon="9.22309">
        <ele>1192.6</ele>
        <time>2015-06-19T07:48:23Z</time>
      </trkpt>
      <trkpt lat="41.79689" lon="9.22283">
        <ele>1191.2</ele>
        <time>2015-06-19T07:48:41Z</time>
      </trkpt>
      <trkpt lat="41.79691" lon="9.22275">
        <ele>1191.2</ele>
        <time>2015-06-19T07:48:47Z</time>
      </trkpt>
      <trkpt lat="41.79708" lon="9.22244">
        <ele>1190.2</ele>
        <time>2015-06-19T07:49:15Z</time>
      </trkpt>
      <trkpt lat="41.7971" lon="9.22227">
        <ele>1190.4</ele>
        <time>2015-06-19T07:49:41Z</time>
      </trkpt>
      <trkpt lat="41.79711" lon="9.22219">
        <ele>1189.2</ele>
        <time>2015-06-19T07:49:50Z</time>
      </trkpt>
      <trkpt lat="41.79713" lon="9.22208">
        <ele>1188</ele>
        <time>2015-06-19T07:50:05Z</time>
      </trkpt>
      <trkpt lat="41.79719" lon="9.22175">
        <ele>1186.6</ele>
        <time>2015-06-19T07:50:51Z</time>
      </trkpt>
      <trkpt lat="41.7972" lon="9.22171">
        <ele>1186.4</ele>
        <time>2015-06-19T07:50:54Z</time>
      </trkpt>
      <trkpt lat="41.7972" lon="9.22138">
        <ele>1185.6</ele>
        <time>2015-06-19T07:51:49Z</time>
      </trkpt>
      <trkpt lat="41.79724" lon="9.22131">
        <ele>1185.8</ele>
        <time>2015-06-19T07:52:14Z</time>
      </trkpt>
      <trkpt lat="41.79726" lon="9.22134">
        <ele>1186.4</ele>
        <time>2015-06-19T07:52:21Z</time>
      </trkpt>
      <trkpt lat="41.7973" lon="9.22137">
        <ele>1187.4</ele>
        <time>2015-06-19T07:52:29Z</time>
      </trkpt>
      <trkpt lat="41.79733" lon="9.22135">
        <ele>1188.8</ele>
        <time>2015-06-19T07:52:39Z</time>
      </trkpt>
      <trkpt lat="41.79736" lon="9.22136">
        <ele>1190.2</ele>
        <time>2015-06-19T07:52:49Z</time>
      </trkpt>
      <trkpt lat="41.79737" lon="9.22134">
        <ele>1190.6</ele>
        <time>2015-06-19T07:52:58Z</time>
      </trkpt>
      <trkpt lat="41.79738" lon="9.22125">
        <ele>1192.2</ele>
        <time>2015-06-19T07:53:21Z</time>
      </trkpt>
      <trkpt lat="41.79739" lon="9.22123">
        <ele>1193.2</ele>
        <time>2015-06-19T07:53:30Z</time>
      </trkpt>
      <trkpt lat="41.79738" lon="9.22115">
        <ele>1194.6</ele>
        <time>2015-06-19T07:53:43Z</time>
      </trkpt>
      <trkpt lat="41.79741" lon="9.22107">
        <ele>1195.2</ele>
        <time>2015-06-19T07:54:06Z</time>
      </trkpt>
      <trkpt lat="41.79744" lon="9.22104">
        <ele>1196.4</ele>
        <time>2015-06-19T07:54:14Z</time>
      </trkpt>
      <trkpt lat="41.79747" lon="9.22102">
        <ele>1197.6</ele>
        <time>2015-06-19T07:54:24Z</time>
      </trkpt>
      <trkpt lat="41.79749" lon="9.22101">
        <ele>1199.4</ele>
        <time>2015-06-19T07:54:39Z</time>
      </trkpt>
      <trkpt lat="41.7975" lon="9.22097">
        <ele>1200</ele>
        <time>2015-06-19T07:54:48Z</time>
      </trkpt>
      <trkpt lat="41.79751" lon="9.22088">
        <ele>1201.6</ele>
        <time>2015-06-19T07:55:05Z</time>
      </trkpt>
      <trkpt lat="41.79755" lon="9.22084">
        <ele>1202.4</ele>
        <time>2015-06-19T07:55:17Z</time>
      </trkpt>
      <trkpt lat="41.79757" lon="9.2208">
        <ele>1203.2</ele>
        <time>2015-06-19T07:55:24Z</time>
      </trkpt>
      <trkpt lat="41.79749" lon="9.22063">
        <ele>1205</ele>
        <time>2015-06-19T07:56:00Z</time>
      </trkpt>
      <trkpt lat="41.79751" lon="9.22053">
        <ele>1206.4</ele>
        <time>2015-06-19T07:56:22Z</time>
      </trkpt>
      <trkpt lat="41.79751" lon="9.22049">
        <ele>1207</ele>
        <time>2015-06-19T07:56:33Z</time>
      </trkpt>
      <trkpt lat="41.79752" lon="9.22047">
        <ele>1208.4</ele>
        <time>2015-06-19T07:56:46Z</time>
      </trkpt>
      <trkpt lat="41.7975" lon="9.22038">
        <ele>1209.8</ele>
        <time>2015-06-19T07:57:15Z</time>
      </trkpt>
      <trkpt lat="41.79749" lon="9.22033">
        <ele>1210.2</ele>
        <time>2015-06-19T07:57:24Z</time>
      </trkpt>
      <trkpt lat="41.79749" lon="9.2203">
        <ele>1211.8</ele>
        <time>2015-06-19T07:57:35Z</time>
      </trkpt>
      <trkpt lat="41.79748" lon="9.22027">
        <ele>1212.4</ele>
        <time>2015-06-19T07:57:42Z</time>
      </trkpt>
      <trkpt lat="41.79746" lon="9.22024">
        <ele>1214</ele>
        <time>2015-06-19T07:57:56Z</time>
      </trkpt>
      <trkpt lat="41.79745" lon="9.22021">
        <ele>1214.8</ele>
        <time>2015-06-19T07:58:04Z</time>
      </trkpt>
      <trkpt lat="41.79745" lon="9.22018">
        <ele>1216.2</ele>
        <time>2015-06-19T07:58:13Z</time>
      </trkpt>
      <trkpt lat="41.79745" lon="9.22018">
        <ele>1216.6</ele>
        <time>2015-06-19T07:58:16Z</time>
      </trkpt>
      <trkpt lat="41.79746" lon="9.22015">
        <ele>1217.6</ele>
        <time>2015-06-19T07:58:27Z</time>
      </trkpt>
      <trkpt lat="41.79746" lon="9.22011">
        <ele>1218.6</ele>
        <time>2015-06-19T07:58:38Z</time>
      </trkpt>
      <trkpt lat="41.79746" lon="9.22008">
        <ele>1219.6</ele>
        <time>2015-06-19T07:58:47Z</time>
      </trkpt>
      <trkpt lat="41.79748" lon="9.22005">
        <ele>1220.8</ele>
        <time>2015-06-19T07:58:55Z</time>
      </trkpt>
      <trkpt lat="41.79751" lon="9.22003">
        <ele>1222</ele>
        <time>2015-06-19T07:59:05Z</time>
      </trkpt>
      <trkpt lat="41.79753" lon="9.21999">
        <ele>1223.4</ele>
        <time>2015-06-19T07:59:19Z</time>
      </trkpt>
      <trkpt lat="41.79756" lon="9.21996">
        <ele>1224.4</ele>
        <time>2015-06-19T07:59:29Z</time>
      </trkpt>
      <trkpt lat="41.79759" lon="9.21994">
        <ele>1225.4</ele>
        <time>2015-06-19T07:59:37Z</time>
      </trkpt>
      <trkpt lat="41.79765" lon="9.21999">
        <ele>1227</ele>
        <time>2015-06-19T08:00:19Z</time>
      </trkpt>
      <trkpt lat="41.79766" lon="9.22002">
        <ele>1228.4</ele>
        <time>2015-06-19T08:00:30Z</time>
      </trkpt>
      <trkpt lat="41.79768" lon="9.22002">
        <ele>1229.4</ele>
        <time>2015-06-19T08:00:42Z</time>
      </trkpt>
      <trkpt lat="41.79768" lon="9.22001">
        <ele>1230.8</ele>
        <time>2015-06-19T08:00:52Z</time>
      </trkpt>
      <trkpt lat="41.79767" lon="9.21993">
        <ele>1231.6</ele>
        <time>2015-06-19T08:01:18Z</time>
      </trkpt>
      <trkpt lat="41.79766" lon="9.21988">
        <ele>1233.4</ele>
        <time>2015-06-19T08:01:29Z</time>
      </trkpt>
      <trkpt lat="41.79768" lon="9.21978">
        <ele>1234.6</ele>
        <time>2015-06-19T08:01:46Z</time>
      </trkpt>
      <trkpt lat="41.7977" lon="9.21975">
        <ele>1235</ele>
        <time>2015-06-19T08:01:52Z</time>
      </trkpt>
      <trkpt lat="41.79773" lon="9.21978">
        <ele>1236.6</ele>
        <time>2015-06-19T08:02:02Z</time>
      </trkpt>
      <trkpt lat="41.79774" lon="9.21981">
        <ele>1237.6</ele>
        <time>2015-06-19T08:02:11Z</time>
      </trkpt>
      <trkpt lat="41.79779" lon="9.21984">
        <ele>1239</ele>
        <time>2015-06-19T08:02:25Z</time>
      </trkpt>
      <trkpt lat="41.79783" lon="9.21982">
        <ele>1240</ele>
        <time>2015-06-19T08:02:35Z</time>
      </trkpt>
      <trkpt lat="41.79784" lon="9.2198">
        <ele>1241.2</ele>
        <time>2015-06-19T08:02:46Z</time>
      </trkpt>
      <trkpt lat="41.79786" lon="9.2198">
        <ele>1242.2</ele>
        <time>2015-06-19T08:03:00Z</time>
      </trkpt>
      <trkpt lat="41.7979" lon="9.21979">
        <ele>1243.8</ele>
        <time>2015-06-19T08:03:12Z</time>
      </trkpt>
      <trkpt lat="41.7979" lon="9.21975">
        <ele>1245.2</ele>
        <time>2015-06-19T08:03:25Z</time>
      </trkpt>
      <trkpt lat="41.79791" lon="9.21973">
        <ele>1246</ele>
        <time>2015-06-19T08:03:38Z</time>
      </trkpt>
      <trkpt lat="41.79793" lon="9.21969">
        <ele>1247.2</ele>
        <time>2015-06-19T08:03:47Z</time>
      </trkpt>
      <trkpt lat="41.79794" lon="9.21967">
        <ele>1248.4</ele>
        <time>2015-06-19T08:03:59Z</time>
      </trkpt>
      <trkpt lat="41.79795" lon="9.21965">
        <ele>1249.2</ele>
        <time>2015-06-19T08:04:09Z</time>
      </trkpt>
      <trkpt lat="41.79796" lon="9.21968">
        <ele>1250.8</ele>
        <time>2015-06-19T08:04:21Z</time>
      </trkpt>
      <trkpt lat="41.798" lon="9.21966">
        <ele>1251.4</ele>
        <time>2015-06-19T08:04:27Z</time>
      </trkpt>
      <trkpt lat="41.798" lon="9.21965">
        <ele>1251.6</ele>
        <time>2015-06-19T08:04:29Z</time>
      </trkpt>
      <trkpt lat="41.798" lon="9.21966">
        <ele>1251.8</ele>
        <time>2015-06-19T08:04:33Z</time>
      </trkpt>
      <trkpt lat="41.798" lon="9.21966">
        <ele>1253.2</ele>
        <time>2015-06-19T08:04:47Z</time>
      </trkpt>
      <trkpt lat="41.79802" lon="9.21965">
        <ele>1254.2</ele>
        <time>2015-06-19T08:04:58Z</time>
      </trkpt>
      <trkpt lat="41.79803" lon="9.21965">
        <ele>1255.2</ele>
        <time>2015-06-19T08:05:08Z</time>
      </trkpt>
      <trkpt lat="41.79804" lon="9.21964">
        <ele>1256</ele>
        <time>2015-06-19T08:05:14Z</time>
      </trkpt>
      <trkpt lat="41.79804" lon="9.21962">
        <ele>1257.6</ele>
        <time>2015-06-19T08:05:36Z</time>
      </trkpt>
      <trkpt lat="41.79803" lon="9.2196">
        <ele>1258.6</ele>
        <time>2015-06-19T08:05:45Z</time>
      </trkpt>
      <trkpt lat="41.79801" lon="9.21958">
        <ele>1259.8</ele>
        <time>2015-06-19T08:05:54Z</time>
      </trkpt>
      <trkpt lat="41.79799" lon="9.21954">
        <ele>1261.2</ele>
        <time>2015-06-19T08:06:05Z</time>
      </trkpt>
      <trkpt lat="41.79798" lon="9.21945">
        <ele>1262.4</ele>
        <time>2015-06-19T08:06:20Z</time>
      </trkpt>
      <trkpt lat="41.79799" lon="9.21936">
        <ele>1263.4</ele>
        <time>2015-06-19T08:06:46Z</time>
      </trkpt>
      <trkpt lat="41.79799" lon="9.21932">
        <ele>1264.6</ele>
        <time>2015-06-19T08:06:55Z</time>
      </trkpt>
      <trkpt lat="41.798" lon="9.21903">
        <ele>1266.4</ele>
        <time>2015-06-19T08:07:37Z</time>
      </trkpt>
      <trkpt lat="41.79801" lon="9.219">
        <ele>1266.8</ele>
        <time>2015-06-19T08:07:43Z</time>
      </trkpt>
      <trkpt lat="41.79803" lon="9.21897">
        <ele>1268</ele>
        <time>2015-06-19T08:07:52Z</time>
      </trkpt>
      <trkpt lat="41.79805" lon="9.21891">
        <ele>1269.6</ele>
        <time>2015-06-19T08:08:03Z</time>
      </trkpt>
      <trkpt lat="41.79806" lon="9.21884">
        <ele>1270.8</ele>
        <time>2015-06-19T08:08:16Z</time>
      </trkpt>
      <trkpt lat="41.79806" lon="9.21878">
        <ele>1271.4</ele>
        <time>2015-06-19T08:08:26Z</time>
      </trkpt>
      <trkpt lat="41.79808" lon="9.21878">
        <ele>1273</ele>
        <time>2015-06-19T08:09:07Z</time>
      </trkpt>
      <trkpt lat="41.79813" lon="9.2187">
        <ele>1273.2</ele>
        <time>2015-06-19T08:10:07Z</time>
      </trkpt>
      <trkpt lat="41.79821" lon="9.21854">
        <ele>1274</ele>
        <time>2015-06-19T08:10:43Z</time>
      </trkpt>
      <trkpt lat="41.79823" lon="9.21856">
        <ele>1275.4</ele>
        <time>2015-06-19T08:10:53Z</time>
      </trkpt>
      <trkpt lat="41.79826" lon="9.21854">
        <ele>1276.2</ele>
        <time>2015-06-19T08:11:00Z</time>
      </trkpt>
      <trkpt lat="41.79833" lon="9.21848">
        <ele>1277.6</ele>
        <time>2015-06-19T08:11:11Z</time>
      </trkpt>
      <trkpt lat="41.79837" lon="9.21845">
        <ele>1278.4</ele>
        <time>2015-06-19T08:11:20Z</time>
      </trkpt>
      <trkpt lat="41.79845" lon="9.2182">
        <ele>1279.4</ele>
        <time>2015-06-19T08:11:47Z</time>
      </trkpt>
      <trkpt lat="41.79846" lon="9.21817">
        <ele>1279.4</ele>
        <time>2015-06-19T08:11:52Z</time>
      </trkpt>
      <trkpt lat="41.79852" lon="9.21813">
        <ele>1281.2</ele>
        <time>2015-06-19T08:12:09Z</time>
      </trkpt>
      <trkpt lat="41.79856" lon="9.2181">
        <ele>1282.4</ele>
        <time>2015-06-19T08:12:22Z</time>
      </trkpt>
      <trkpt lat="41.7986" lon="9.21808">
        <ele>1283.2</ele>
        <time>2015-06-19T08:12:32Z</time>
      </trkpt>
      <trkpt lat="41.79862" lon="9.21806">
        <ele>1284.4</ele>
        <time>2015-06-19T08:12:41Z</time>
      </trkpt>
      <trkpt lat="41.79862" lon="9.21805">
        <ele>1285.6</ele>
        <time>2015-06-19T08:12:50Z</time>
      </trkpt>
      <trkpt lat="41.79862" lon="9.21805">
        <ele>1286.6</ele>
        <time>2015-06-19T08:13:00Z</time>
      </trkpt>
      <trkpt lat="41.79865" lon="9.21802">
        <ele>1288.2</ele>
        <time>2015-06-19T08:13:14Z</time>
      </trkpt>
      <trkpt lat="41.79869" lon="9.21801">
        <ele>1289.2</ele>
        <time>2015-06-19T08:13:29Z</time>
      </trkpt>
      <trkpt lat="41.79873" lon="9.21802">
        <ele>1289.8</ele>
        <time>2015-06-19T08:13:38Z</time>
      </trkpt>
      <trkpt lat="41.79875" lon="9.21801">
        <ele>1291</ele>
        <time>2015-06-19T08:13:52Z</time>
      </trkpt>
      <trkpt lat="41.79878" lon="9.21799">
        <ele>1292.2</ele>
        <time>2015-06-19T08:14:02Z</time>
      </trkpt>
      <trkpt lat="41.79884" lon="9.21795">
        <ele>1293.2</ele>
        <time>2015-06-19T08:14:11Z</time>
      </trkpt>
      <trkpt lat="41.79884" lon="9.21794">
        <ele>1294</ele>
        <time>2015-06-19T08:14:19Z</time>
      </trkpt>
      <trkpt lat="41.79887" lon="9.21792">
        <ele>1295.4</ele>
        <time>2015-06-19T08:14:30Z</time>
      </trkpt>
      <trkpt lat="41.79888" lon="9.21792">
        <ele>1296.6</ele>
        <time>2015-06-19T08:14:41Z</time>
      </trkpt>
      <trkpt lat="41.79889" lon="9.21791">
        <ele>1297.2</ele>
        <time>2015-06-19T08:14:48Z</time>
      </trkpt>
      <trkpt lat="41.79891" lon="9.21793">
        <ele>1298.6</ele>
        <time>2015-06-19T08:15:01Z</time>
      </trkpt>
      <trkpt lat="41.79894" lon="9.21793">
        <ele>1300.2</ele>
        <time>2015-06-19T08:15:14Z</time>
      </trkpt>
      <trkpt lat="41.79896" lon="9.21792">
        <ele>1300.8</ele>
        <time>2015-06-19T08:15:22Z</time>
      </trkpt>
      <trkpt lat="41.79899" lon="9.21794">
        <ele>1302</ele>
        <time>2015-06-19T08:15:31Z</time>
      </trkpt>
      <trkpt lat="41.79902" lon="9.21793">
        <ele>1303.4</ele>
        <time>2015-06-19T08:15:47Z</time>
      </trkpt>
      <trkpt lat="41.79902" lon="9.21797">
        <ele>1304.6</ele>
        <time>2015-06-19T08:16:00Z</time>
      </trkpt>
      <trkpt lat="41.79902" lon="9.218">
        <ele>1306</ele>
        <time>2015-06-19T08:16:14Z</time>
      </trkpt>
      <trkpt lat="41.79904" lon="9.21801">
        <ele>1306.8</ele>
        <time>2015-06-19T08:16:25Z</time>
      </trkpt>
      <trkpt lat="41.79905" lon="9.21801">
        <ele>1307.8</ele>
        <time>2015-06-19T08:16:54Z</time>
      </trkpt>
      <trkpt lat="41.79909" lon="9.21802">
        <ele>1308.6</ele>
        <time>2015-06-19T08:17:23Z</time>
      </trkpt>
      <trkpt lat="41.7991" lon="9.21799">
        <ele>1310</ele>
        <time>2015-06-19T08:17:36Z</time>
      </trkpt>
      <trkpt lat="41.79912" lon="9.21794">
        <ele>1311</ele>
        <time>2015-06-19T08:17:50Z</time>
      </trkpt>
      <trkpt lat="41.79915" lon="9.21791">
        <ele>1312.2</ele>
        <time>2015-06-19T08:17:59Z</time>
      </trkpt>
      <trkpt lat="41.79916" lon="9.21787">
        <ele>1313.2</ele>
        <time>2015-06-19T08:18:08Z</time>
      </trkpt>
      <trkpt lat="41.79919" lon="9.21787">
        <ele>1314.4</ele>
        <time>2015-06-19T08:18:20Z</time>
      </trkpt>
      <trkpt lat="41.79925" lon="9.21782">
        <ele>1315.6</ele>
        <time>2015-06-19T08:18:31Z</time>
      </trkpt>
      <trkpt lat="41.79926" lon="9.21781">
        <ele>1315.8</ele>
        <time>2015-06-19T08:18:32Z</time>
      </trkpt>
      <trkpt lat="41.79928" lon="9.21779">
        <ele>1316.8</ele>
        <time>2015-06-19T08:18:41Z</time>
      </trkpt>
      <trkpt lat="41.79929" lon="9.21775">
        <ele>1318</ele>
        <time>2015-06-19T08:18:51Z</time>
      </trkpt>
      <trkpt lat="41.7993" lon="9.21779">
        <ele>1319</ele>
        <time>2015-06-19T08:19:01Z</time>
      </trkpt>
      <trkpt lat="41.79929" lon="9.21779">
        <ele>1320.4</ele>
        <time>2015-06-19T08:19:14Z</time>
      </trkpt>
      <trkpt lat="41.79927" lon="9.2178">
        <ele>1320.6</ele>
        <time>2015-06-19T08:19:16Z</time>
      </trkpt>
      <trkpt lat="41.79925" lon="9.21781">
        <ele>1320.6</ele>
        <time>2015-06-19T08:19:17Z</time>
      </trkpt>
      <trkpt lat="41.79923" lon="9.21782">
        <ele>1320.8</ele>
        <time>2015-06-19T08:19:20Z</time>
      </trkpt>
      <trkpt lat="41.79916" lon="9.21787">
        <ele>1321.4</ele>
        <time>2015-06-19T08:19:25Z</time>
      </trkpt>
      <trkpt lat="41.79914" lon="9.21789">
        <ele>1321.6</ele>
        <time>2015-06-19T08:19:26Z</time>
      </trkpt>
      <trkpt lat="41.79925" lon="9.21792">
        <ele>1322.6</ele>
        <time>2015-06-19T08:19:40Z</time>
      </trkpt>
      <trkpt lat="41.79927" lon="9.2179">
        <ele>1322.6</ele>
        <time>2015-06-19T08:19:42Z</time>
      </trkpt>
      <trkpt lat="41.79928" lon="9.2179">
        <ele>1322.8</ele>
        <time>2015-06-19T08:19:44Z</time>
      </trkpt>
      <trkpt lat="41.79933" lon="9.21788">
        <ele>1323.2</ele>
        <time>2015-06-19T08:19:56Z</time>
      </trkpt>
      <trkpt lat="41.79934" lon="9.21789">
        <ele>1324.6</ele>
        <time>2015-06-19T08:20:11Z</time>
      </trkpt>
      <trkpt lat="41.79936" lon="9.21791">
        <ele>1325.6</ele>
        <time>2015-06-19T08:20:20Z</time>
      </trkpt>
      <trkpt lat="41.79943" lon="9.21793">
        <ele>1327.2</ele>
        <time>2015-06-19T08:20:38Z</time>
      </trkpt>
      <trkpt lat="41.79944" lon="9.21795">
        <ele>1328.2</ele>
        <time>2015-06-19T08:20:47Z</time>
      </trkpt>
      <trkpt lat="41.79948" lon="9.21794">
        <ele>1329.4</ele>
        <time>2015-06-19T08:20:59Z</time>
      </trkpt>
      <trkpt lat="41.79951" lon="9.21789">
        <ele>1331</ele>
        <time>2015-06-19T08:21:15Z</time>
      </trkpt>
      <trkpt lat="41.79947" lon="9.21792">
        <ele>1332.2</ele>
        <time>2015-06-19T08:21:28Z</time>
      </trkpt>
      <trkpt lat="41.79947" lon="9.21793">
        <ele>1333</ele>
        <time>2015-06-19T08:21:35Z</time>
      </trkpt>
      <trkpt lat="41.79944" lon="9.21795">
        <ele>1333.8</ele>
        <time>2015-06-19T08:21:41Z</time>
      </trkpt>
      <trkpt lat="41.79945" lon="9.21795">
        <ele>1334</ele>
        <time>2015-06-19T08:21:43Z</time>
      </trkpt>
      <trkpt lat="41.79949" lon="9.21797">
        <ele>1334.4</ele>
        <time>2015-06-19T08:21:49Z</time>
      </trkpt>
      <trkpt lat="41.79949" lon="9.218">
        <ele>1334.4</ele>
        <time>2015-06-19T08:21:56Z</time>
      </trkpt>
      <trkpt lat="41.79948" lon="9.21801">
        <ele>1334.6</ele>
        <time>2015-06-19T08:21:57Z</time>
      </trkpt>
      <trkpt lat="41.79951" lon="9.218">
        <ele>1335</ele>
        <time>2015-06-19T08:22:01Z</time>
      </trkpt>
      <trkpt lat="41.79954" lon="9.218">
        <ele>1335.6</ele>
        <time>2015-06-19T08:22:09Z</time>
      </trkpt>
      <trkpt lat="41.79958" lon="9.218">
        <ele>1336.2</ele>
        <time>2015-06-19T08:22:13Z</time>
      </trkpt>
      <trkpt lat="41.79956" lon="9.218">
        <ele>1336.6</ele>
        <time>2015-06-19T08:22:16Z</time>
      </trkpt>
      <trkpt lat="41.79957" lon="9.21799">
        <ele>1337</ele>
        <time>2015-06-19T08:22:23Z</time>
      </trkpt>
      <trkpt lat="41.79961" lon="9.21797">
        <ele>1338.4</ele>
        <time>2015-06-19T08:22:37Z</time>
      </trkpt>
      <trkpt lat="41.79962" lon="9.21789">
        <ele>1339.6</ele>
        <time>2015-06-19T08:22:47Z</time>
      </trkpt>
      <trkpt lat="41.79962" lon="9.21789">
        <ele>1339.8</ele>
        <time>2015-06-19T08:22:48Z</time>
      </trkpt>
      <trkpt lat="41.79969" lon="9.21789">
        <ele>1340.6</ele>
        <time>2015-06-19T08:23:04Z</time>
      </trkpt>
      <trkpt lat="41.7997" lon="9.2179">
        <ele>1341.8</ele>
        <time>2015-06-19T08:23:12Z</time>
      </trkpt>
      <trkpt lat="41.79972" lon="9.21795">
        <ele>1343</ele>
        <time>2015-06-19T08:23:21Z</time>
      </trkpt>
      <trkpt lat="41.79975" lon="9.21804">
        <ele>1344.4</ele>
        <time>2015-06-19T08:23:38Z</time>
      </trkpt>
      <trkpt lat="41.79974" lon="9.21805">
        <ele>1345.6</ele>
        <time>2015-06-19T08:23:49Z</time>
      </trkpt>
      <trkpt lat="41.7998" lon="9.218">
        <ele>1346.4</ele>
        <time>2015-06-19T08:23:57Z</time>
      </trkpt>
      <trkpt lat="41.7998" lon="9.218">
        <ele>1346.8</ele>
        <time>2015-06-19T08:24:00Z</time>
      </trkpt>
      <trkpt lat="41.79981" lon="9.21797">
        <ele>1348.2</ele>
        <time>2015-06-19T08:24:13Z</time>
      </trkpt>
      <trkpt lat="41.79983" lon="9.21792">
        <ele>1349</ele>
        <time>2015-06-19T08:24:22Z</time>
      </trkpt>
      <trkpt lat="41.79984" lon="9.21794">
        <ele>1350.6</ele>
        <time>2015-06-19T08:24:35Z</time>
      </trkpt>
      <trkpt lat="41.79986" lon="9.21797">
        <ele>1351.8</ele>
        <time>2015-06-19T08:24:51Z</time>
      </trkpt>
      <trkpt lat="41.79985" lon="9.21798">
        <ele>1352.6</ele>
        <time>2015-06-19T08:25:01Z</time>
      </trkpt>
      <trkpt lat="41.79985" lon="9.21804">
        <ele>1354.4</ele>
        <time>2015-06-19T08:25:21Z</time>
      </trkpt>
      <trkpt lat="41.7998" lon="9.21807">
        <ele>1355.4</ele>
        <time>2015-06-19T08:25:33Z</time>
      </trkpt>
      <trkpt lat="41.79979" lon="9.21807">
        <ele>1355.4</ele>
        <time>2015-06-19T08:25:34Z</time>
      </trkpt>
      <trkpt lat="41.79979" lon="9.21807">
        <ele>1355.4</ele>
        <time>2015-06-19T08:25:35Z</time>
      </trkpt>
      <trkpt lat="41.7998" lon="9.21806">
        <ele>1357</ele>
        <time>2015-06-19T08:25:49Z</time>
      </trkpt>
      <trkpt lat="41.79982" lon="9.21805">
        <ele>1358.2</ele>
        <time>2015-06-19T08:26:04Z</time>
      </trkpt>
      <trkpt lat="41.79985" lon="9.2181">
        <ele>1359.4</ele>
        <time>2015-06-19T08:26:17Z</time>
      </trkpt>
      <trkpt lat="41.79988" lon="9.2181">
        <ele>1359.8</ele>
        <time>2015-06-19T08:26:20Z</time>
      </trkpt>
      <trkpt lat="41.79995" lon="9.21807">
        <ele>1360.4</ele>
        <time>2015-06-19T08:26:28Z</time>
      </trkpt>
      <trkpt lat="41.79998" lon="9.21807">
        <ele>1361</ele>
        <time>2015-06-19T08:26:32Z</time>
      </trkpt>
      <trkpt lat="41.80005" lon="9.21802">
        <ele>1362.4</ele>
        <time>2015-06-19T08:26:43Z</time>
      </trkpt>
      <trkpt lat="41.80006" lon="9.218">
        <ele>1362.4</ele>
        <time>2015-06-19T08:26:45Z</time>
      </trkpt>
      <trkpt lat="41.8001" lon="9.21801">
        <ele>1363.4</ele>
        <time>2015-06-19T08:27:01Z</time>
      </trkpt>
      <trkpt lat="41.8001" lon="9.21807">
        <ele>1364.2</ele>
        <time>2015-06-19T08:27:10Z</time>
      </trkpt>
      <trkpt lat="41.8001" lon="9.21808">
        <ele>1364.8</ele>
        <time>2015-06-19T08:27:14Z</time>
      </trkpt>
      <trkpt lat="41.80012" lon="9.21809">
        <ele>1365.4</ele>
        <time>2015-06-19T08:27:25Z</time>
      </trkpt>
      <trkpt lat="41.80011" lon="9.2181">
        <ele>1366.8</ele>
        <time>2015-06-19T08:27:36Z</time>
      </trkpt>
      <trkpt lat="41.80009" lon="9.21807">
        <ele>1368.6</ele>
        <time>2015-06-19T08:27:54Z</time>
      </trkpt>
      <trkpt lat="41.80009" lon="9.218">
        <ele>1369.6</ele>
        <time>2015-06-19T08:28:05Z</time>
      </trkpt>
      <trkpt lat="41.8001" lon="9.218">
        <ele>1369.8</ele>
        <time>2015-06-19T08:28:06Z</time>
      </trkpt>
      <trkpt lat="41.80009" lon="9.21794">
        <ele>1371.4</ele>
        <time>2015-06-19T08:28:25Z</time>
      </trkpt>
      <trkpt lat="41.80002" lon="9.218">
        <ele>1371.4</ele>
        <time>2015-06-19T08:28:30Z</time>
      </trkpt>
      <trkpt lat="41.79999" lon="9.21802">
        <ele>1371.4</ele>
        <time>2015-06-19T08:28:32Z</time>
      </trkpt>
      <trkpt lat="41.79999" lon="9.21802">
        <ele>1371.8</ele>
        <time>2015-06-19T08:28:38Z</time>
      </trkpt>
      <trkpt lat="41.79996" lon="9.21799">
        <ele>1373</ele>
        <time>2015-06-19T08:28:48Z</time>
      </trkpt>
      <trkpt lat="41.79977" lon="9.21799">
        <ele>1374.4</ele>
        <time>2015-06-19T08:28:58Z</time>
      </trkpt>
      <trkpt lat="41.79969" lon="9.21804">
        <ele>1375.6</ele>
        <time>2015-06-19T08:29:09Z</time>
      </trkpt>
      <trkpt lat="41.79981" lon="9.218">
        <ele>1376.8</ele>
        <time>2015-06-19T08:29:21Z</time>
      </trkpt>
      <trkpt lat="41.79983" lon="9.21798">
        <ele>1377.2</ele>
        <time>2015-06-19T08:29:24Z</time>
      </trkpt>
      <trkpt lat="41.79983" lon="9.21797">
        <ele>1377.4</ele>
        <time>2015-06-19T08:29:26Z</time>
      </trkpt>
      <trkpt lat="41.79985" lon="9.21795">
        <ele>1378</ele>
        <time>2015-06-19T08:29:31Z</time>
      </trkpt>
      <trkpt lat="41.79986" lon="9.21793">
        <ele>1378.8</ele>
        <time>2015-06-19T08:29:39Z</time>
      </trkpt>
      <trkpt lat="41.79986" lon="9.21792">
        <ele>1379</ele>
        <time>2015-06-19T08:29:40Z</time>
      </trkpt>
      <trkpt lat="41.79988" lon="9.21789">
        <ele>1379.8</ele>
        <time>2015-06-19T08:29:46Z</time>
      </trkpt>
      <trkpt lat="41.79992" lon="9.2179">
        <ele>1380.4</ele>
        <time>2015-06-19T08:29:55Z</time>
      </trkpt>
      <trkpt lat="41.79996" lon="9.21783">
        <ele>1381.4</ele>
        <time>2015-06-19T08:30:11Z</time>
      </trkpt>
      <trkpt lat="41.79994" lon="9.21781">
        <ele>1381.6</ele>
        <time>2015-06-19T08:30:13Z</time>
      </trkpt>
      <trkpt lat="41.79992" lon="9.21776">
        <ele>1382.2</ele>
        <time>2015-06-19T08:30:19Z</time>
      </trkpt>
      <trkpt lat="41.79992" lon="9.21774">
        <ele>1382.4</ele>
        <time>2015-06-19T08:30:22Z</time>
      </trkpt>
      <trkpt lat="41.79992" lon="9.2177">
        <ele>1383.6</ele>
        <time>2015-06-19T08:30:31Z</time>
      </trkpt>
      <trkpt lat="41.79993" lon="9.21769">
        <ele>1384.8</ele>
        <time>2015-06-19T08:30:50Z</time>
      </trkpt>
      <trkpt lat="41.79995" lon="9.2177">
        <ele>1385.8</ele>
        <time>2015-06-19T08:30:59Z</time>
      </trkpt>
      <trkpt lat="41.80002" lon="9.21769">
        <ele>1387.4</ele>
        <time>2015-06-19T08:31:12Z</time>
      </trkpt>
      <trkpt lat="41.80003" lon="9.21766">
        <ele>1388.4</ele>
        <time>2015-06-19T08:31:21Z</time>
      </trkpt>
      <trkpt lat="41.80002" lon="9.21767">
        <ele>1389.8</ele>
        <time>2015-06-19T08:31:35Z</time>
      </trkpt>
      <trkpt lat="41.80006" lon="9.21769">
        <ele>1390.8</ele>
        <time>2015-06-19T08:31:49Z</time>
      </trkpt>
      <trkpt lat="41.80014" lon="9.21772">
        <ele>1391.6</ele>
        <time>2015-06-19T08:31:58Z</time>
      </trkpt>
      <trkpt lat="41.80014" lon="9.21772">
        <ele>1392</ele>
        <time>2015-06-19T08:32:01Z</time>
      </trkpt>
      <trkpt lat="41.80016" lon="9.21775">
        <ele>1393</ele>
        <time>2015-06-19T08:32:12Z</time>
      </trkpt>
      <trkpt lat="41.80018" lon="9.21774">
        <ele>1393.6</ele>
        <time>2015-06-19T08:32:18Z</time>
      </trkpt>
      <trkpt lat="41.80031" lon="9.21777">
        <ele>1394</ele>
        <time>2015-06-19T08:32:23Z</time>
      </trkpt>
      <trkpt lat="41.80032" lon="9.21778">
        <ele>1394.2</ele>
        <time>2015-06-19T08:32:27Z</time>
      </trkpt>
      <trkpt lat="41.80032" lon="9.21778">
        <ele>1394.2</ele>
        <time>2015-06-19T08:32:28Z</time>
      </trkpt>
      <trkpt lat="41.80028" lon="9.21784">
        <ele>1395.2</ele>
        <time>2015-06-19T08:32:40Z</time>
      </trkpt>
      <trkpt lat="41.80022" lon="9.21788">
        <ele>1396.4</ele>
        <time>2015-06-19T08:32:59Z</time>
      </trkpt>
      <trkpt lat="41.80026" lon="9.21788">
        <ele>1397.8</ele>
        <time>2015-06-19T08:33:14Z</time>
      </trkpt>
      <trkpt lat="41.80025" lon="9.21792">
        <ele>1398.8</ele>
        <time>2015-06-19T08:33:24Z</time>
      </trkpt>
      <trkpt lat="41.80023" lon="9.21793">
        <ele>1399</ele>
        <time>2015-06-19T08:33:28Z</time>
      </trkpt>
      <trkpt lat="41.80021" lon="9.21795">
        <ele>1400.4</ele>
        <time>2015-06-19T08:33:42Z</time>
      </trkpt>
      <trkpt lat="41.80021" lon="9.21798">
        <ele>1401</ele>
        <time>2015-06-19T08:33:51Z</time>
      </trkpt>
      <trkpt lat="41.80023" lon="9.21803">
        <ele>1402</ele>
        <time>2015-06-19T08:34:05Z</time>
      </trkpt>
      <trkpt lat="41.80021" lon="9.218">
        <ele>1402</ele>
        <time>2015-06-19T08:34:10Z</time>
      </trkpt>
      <trkpt lat="41.80018" lon="9.21795">
        <ele>1402</ele>
        <time>2015-06-19T08:34:16Z</time>
      </trkpt>
      <trkpt lat="41.8001" lon="9.21785">
        <ele>1402.2</ele>
        <time>2015-06-19T08:34:21Z</time>
      </trkpt>
      <trkpt lat="41.80009" lon="9.21781">
        <ele>1402.8</ele>
        <time>2015-06-19T08:34:23Z</time>
      </trkpt>
      <trkpt lat="41.80003" lon="9.21771">
        <ele>1403.4</ele>
        <time>2015-06-19T08:34:31Z</time>
      </trkpt>
      <trkpt lat="41.80002" lon="9.21768">
        <ele>1403.4</ele>
        <time>2015-06-19T08:34:33Z</time>
      </trkpt>
      <trkpt lat="41.79997" lon="9.21763">
        <ele>1403.6</ele>
        <time>2015-06-19T08:34:42Z</time>
      </trkpt>
      <trkpt lat="41.79996" lon="9.21762">
        <ele>1403.8</ele>
        <time>2015-06-19T08:34:44Z</time>
      </trkpt>
      <trkpt lat="41.80009" lon="9.21776">
        <ele>1405.2</ele>
        <time>2015-06-19T08:34:59Z</time>
      </trkpt>
      <trkpt lat="41.80009" lon="9.21773">
        <ele>1405.6</ele>
        <time>2015-06-19T08:35:04Z</time>
      </trkpt>
      <trkpt lat="41.80006" lon="9.21767">
        <ele>1405.6</ele>
        <time>2015-06-19T08:35:07Z</time>
      </trkpt>
      <trkpt lat="41.80004" lon="9.21766">
        <ele>1406</ele>
        <time>2015-06-19T08:35:10Z</time>
      </trkpt>
      <trkpt lat="41.80003" lon="9.21764">
        <ele>1406.8</ele>
        <time>2015-06-19T08:35:19Z</time>
      </trkpt>
      <trkpt lat="41.80004" lon="9.21762">
        <ele>1408</ele>
        <time>2015-06-19T08:35:29Z</time>
      </trkpt>
      <trkpt lat="41.80004" lon="9.2176">
        <ele>1409.4</ele>
        <time>2015-06-19T08:35:44Z</time>
      </trkpt>
      <trkpt lat="41.79999" lon="9.21754">
        <ele>1410.8</ele>
        <time>2015-06-19T08:35:59Z</time>
      </trkpt>
      <trkpt lat="41.79996" lon="9.21749">
        <ele>1412</ele>
        <time>2015-06-19T08:36:20Z</time>
      </trkpt>
      <trkpt lat="41.79997" lon="9.21746">
        <ele>1413.2</ele>
        <time>2015-06-19T08:36:36Z</time>
      </trkpt>
      <trkpt lat="41.79997" lon="9.21746">
        <ele>1413.8</ele>
        <time>2015-06-19T08:36:44Z</time>
      </trkpt>
      <trkpt lat="41.79993" lon="9.21743">
        <ele>1415</ele>
        <time>2015-06-19T08:36:58Z</time>
      </trkpt>
      <trkpt lat="41.79998" lon="9.21745">
        <ele>1416.2</ele>
        <time>2015-06-19T08:37:09Z</time>
      </trkpt>
      <trkpt lat="41.79996" lon="9.21741">
        <ele>1417</ele>
        <time>2015-06-19T08:37:14Z</time>
      </trkpt>
      <trkpt lat="41.79995" lon="9.21741">
        <ele>1417</ele>
        <time>2015-06-19T08:37:15Z</time>
      </trkpt>
      <trkpt lat="41.79996" lon="9.21741">
        <ele>1418.4</ele>
        <time>2015-06-19T08:37:25Z</time>
      </trkpt>
      <trkpt lat="41.79998" lon="9.21743">
        <ele>1419.8</ele>
        <time>2015-06-19T08:37:40Z</time>
      </trkpt>
      <trkpt lat="41.79997" lon="9.21738">
        <ele>1421</ele>
        <time>2015-06-19T08:37:50Z</time>
      </trkpt>
      <trkpt lat="41.79998" lon="9.21737">
        <ele>1422.2</ele>
        <time>2015-06-19T08:38:01Z</time>
      </trkpt>
      <trkpt lat="41.80009" lon="9.21739">
        <ele>1423.6</ele>
        <time>2015-06-19T08:38:25Z</time>
      </trkpt>
      <trkpt lat="41.80016" lon="9.21744">
        <ele>1423</ele>
        <time>2015-06-19T08:39:01Z</time>
      </trkpt>
      <trkpt lat="41.80016" lon="9.21746">
        <ele>1422</ele>
        <time>2015-06-19T08:39:14Z</time>
      </trkpt>
      <trkpt lat="41.80024" lon="9.21746">
        <ele>1420.6</ele>
        <time>2015-06-19T08:39:34Z</time>
      </trkpt>
      <trkpt lat="41.80027" lon="9.2175">
        <ele>1420.2</ele>
        <time>2015-06-19T08:39:41Z</time>
      </trkpt>
      <trkpt lat="41.80032" lon="9.2175">
        <ele>1419.4</ele>
        <time>2015-06-19T08:39:48Z</time>
      </trkpt>
      <trkpt lat="41.80031" lon="9.21742">
        <ele>1417.8</ele>
        <time>2015-06-19T08:40:02Z</time>
      </trkpt>
      <trkpt lat="41.80032" lon="9.21739">
        <ele>1417</ele>
        <time>2015-06-19T08:40:15Z</time>
      </trkpt>
      <trkpt lat="41.80034" lon="9.21736">
        <ele>1415.6</ele>
        <time>2015-06-19T08:41:09Z</time>
      </trkpt>
      <trkpt lat="41.80035" lon="9.2173">
        <ele>1415</ele>
        <time>2015-06-19T08:41:27Z</time>
      </trkpt>
      <trkpt lat="41.80034" lon="9.21726">
        <ele>1414</ele>
        <time>2015-06-19T08:41:40Z</time>
      </trkpt>
      <trkpt lat="41.80035" lon="9.21719">
        <ele>1413</ele>
        <time>2015-06-19T08:41:47Z</time>
      </trkpt>
      <trkpt lat="41.80036" lon="9.21713">
        <ele>1412.2</ele>
        <time>2015-06-19T08:41:52Z</time>
      </trkpt>
      <trkpt lat="41.80037" lon="9.21709">
        <ele>1411.4</ele>
        <time>2015-06-19T08:41:56Z</time>
      </trkpt>
      <trkpt lat="41.80036" lon="9.21704">
        <ele>1411.2</ele>
        <time>2015-06-19T08:41:59Z</time>
      </trkpt>
      <trkpt lat="41.80035" lon="9.217">
        <ele>1411.2</ele>
        <time>2015-06-19T08:42:03Z</time>
      </trkpt>
      <trkpt lat="41.80034" lon="9.21699">
        <ele>1411</ele>
        <time>2015-06-19T08:42:05Z</time>
      </trkpt>
      <trkpt lat="41.80033" lon="9.21697">
        <ele>1410.8</ele>
        <time>2015-06-19T08:42:08Z</time>
      </trkpt>
      <trkpt lat="41.80035" lon="9.21689">
        <ele>1410.2</ele>
        <time>2015-06-19T08:42:19Z</time>
      </trkpt>
      <trkpt lat="41.80037" lon="9.21684">
        <ele>1409.2</ele>
        <time>2015-06-19T08:42:41Z</time>
      </trkpt>
      <trkpt lat="41.80039" lon="9.21686">
        <ele>1408.2</ele>
        <time>2015-06-19T08:42:52Z</time>
      </trkpt>
      <trkpt lat="41.80038" lon="9.21685">
        <ele>1408</ele>
        <time>2015-06-19T08:42:57Z</time>
      </trkpt>
      <trkpt lat="41.8004" lon="9.21684">
        <ele>1405.8</ele>
        <time>2015-06-19T08:43:07Z</time>
      </trkpt>
      <trkpt lat="41.80039" lon="9.21676">
        <ele>1404.4</ele>
        <time>2015-06-19T08:43:22Z</time>
      </trkpt>
      <trkpt lat="41.80042" lon="9.21674">
        <ele>1404.2</ele>
        <time>2015-06-19T08:43:29Z</time>
      </trkpt>
      <trkpt lat="41.80044" lon="9.21673">
        <ele>1403.4</ele>
        <time>2015-06-19T08:43:34Z</time>
      </trkpt>
      <trkpt lat="41.80045" lon="9.21661">
        <ele>1401.6</ele>
        <time>2015-06-19T08:44:04Z</time>
      </trkpt>
      <trkpt lat="41.80046" lon="9.21661">
        <ele>1401.2</ele>
        <time>2015-06-19T08:44:13Z</time>
      </trkpt>
      <trkpt lat="41.80048" lon="9.21657">
        <ele>1400</ele>
        <time>2015-06-19T08:44:30Z</time>
      </trkpt>
      <trkpt lat="41.80052" lon="9.21654">
        <ele>1399.2</ele>
        <time>2015-06-19T08:44:41Z</time>
      </trkpt>
      <trkpt lat="41.80056" lon="9.21657">
        <ele>1398</ele>
        <time>2015-06-19T08:44:53Z</time>
      </trkpt>
      <trkpt lat="41.80058" lon="9.2166">
        <ele>1397</ele>
        <time>2015-06-19T08:45:00Z</time>
      </trkpt>
      <trkpt lat="41.80059" lon="9.21661">
        <ele>1395.8</ele>
        <time>2015-06-19T08:45:07Z</time>
      </trkpt>
      <trkpt lat="41.80063" lon="9.21671">
        <ele>1394</ele>
        <time>2015-06-19T08:45:29Z</time>
      </trkpt>
      <trkpt lat="41.80067" lon="9.21672">
        <ele>1393.4</ele>
        <time>2015-06-19T08:45:36Z</time>
      </trkpt>
      <trkpt lat="41.80067" lon="9.21672">
        <ele>1393.2</ele>
        <time>2015-06-19T08:45:37Z</time>
      </trkpt>
      <trkpt lat="41.80068" lon="9.21669">
        <ele>1392.6</ele>
        <time>2015-06-19T08:45:42Z</time>
      </trkpt>
      <trkpt lat="41.80071" lon="9.21672">
        <ele>1391.6</ele>
        <time>2015-06-19T08:45:54Z</time>
      </trkpt>
      <trkpt lat="41.80072" lon="9.21684">
        <ele>1390</ele>
        <time>2015-06-19T08:46:18Z</time>
      </trkpt>
      <trkpt lat="41.80072" lon="9.21682">
        <ele>1389.2</ele>
        <time>2015-06-19T08:46:26Z</time>
      </trkpt>
      <trkpt lat="41.80072" lon="9.2168">
        <ele>1387.8</ele>
        <time>2015-06-19T08:46:35Z</time>
      </trkpt>
      <trkpt lat="41.8007" lon="9.21682">
        <ele>1386.6</ele>
        <time>2015-06-19T08:47:06Z</time>
      </trkpt>
      <trkpt lat="41.80071" lon="9.21689">
        <ele>1385.4</ele>
        <time>2015-06-19T08:47:16Z</time>
      </trkpt>
      <trkpt lat="41.80073" lon="9.21696">
        <ele>1384</ele>
        <time>2015-06-19T08:47:26Z</time>
      </trkpt>
      <trkpt lat="41.80077" lon="9.21693">
        <ele>1383.4</ele>
        <time>2015-06-19T08:47:31Z</time>
      </trkpt>
      <trkpt lat="41.80081" lon="9.21689">
        <ele>1381.4</ele>
        <time>2015-06-19T08:47:41Z</time>
      </trkpt>
      <trkpt lat="41.80082" lon="9.21684">
        <ele>1380.4</ele>
        <time>2015-06-19T08:47:48Z</time>
      </trkpt>
      <trkpt lat="41.80083" lon="9.21678">
        <ele>1379.2</ele>
        <time>2015-06-19T08:47:56Z</time>
      </trkpt>
      <trkpt lat="41.80081" lon="9.21669">
        <ele>1378.4</ele>
        <time>2015-06-19T08:48:05Z</time>
      </trkpt>
      <trkpt lat="41.80083" lon="9.21665">
        <ele>1377</ele>
        <time>2015-06-19T08:48:12Z</time>
      </trkpt>
      <trkpt lat="41.80083" lon="9.21659">
        <ele>1375</ele>
        <time>2015-06-19T08:48:31Z</time>
      </trkpt>
      <trkpt lat="41.80086" lon="9.21656">
        <ele>1374.4</ele>
        <time>2015-06-19T08:48:40Z</time>
      </trkpt>
      <trkpt lat="41.80088" lon="9.21654">
        <ele>1373.2</ele>
        <time>2015-06-19T08:48:47Z</time>
      </trkpt>
      <trkpt lat="41.80091" lon="9.21651">
        <ele>1371.4</ele>
        <time>2015-06-19T08:48:57Z</time>
      </trkpt>
      <trkpt lat="41.80095" lon="9.21646">
        <ele>1370.6</ele>
        <time>2015-06-19T08:49:04Z</time>
      </trkpt>
      <trkpt lat="41.80095" lon="9.21646">
        <ele>1370.2</ele>
        <time>2015-06-19T08:49:05Z</time>
      </trkpt>
      <trkpt lat="41.80107" lon="9.21638">
        <ele>1370</ele>
        <time>2015-06-19T08:49:29Z</time>
      </trkpt>
      <trkpt lat="41.80122" lon="9.2163">
        <ele>1369.6</ele>
        <time>2015-06-19T08:50:26Z</time>
      </trkpt>
      <trkpt lat="41.80124" lon="9.21627">
        <ele>1370.2</ele>
        <time>2015-06-19T08:50:36Z</time>
      </trkpt>
      <trkpt lat="41.80126" lon="9.21625">
        <ele>1371.4</ele>
        <time>2015-06-19T08:50:50Z</time>
      </trkpt>
      <trkpt lat="41.80127" lon="9.21623">
        <ele>1371.8</ele>
        <time>2015-06-19T08:51:03Z</time>
      </trkpt>
      <trkpt lat="41.80131" lon="9.21618">
        <ele>1371.2</ele>
        <time>2015-06-19T08:51:37Z</time>
      </trkpt>
      <trkpt lat="41.80132" lon="9.21615">
        <ele>1371</ele>
        <time>2015-06-19T08:52:00Z</time>
      </trkpt>
      <trkpt lat="41.80134" lon="9.21614">
        <ele>1371.6</ele>
        <time>2015-06-19T08:52:12Z</time>
      </trkpt>
      <trkpt lat="41.8013" lon="9.21612">
        <ele>1372.2</ele>
        <time>2015-06-19T08:52:24Z</time>
      </trkpt>
      <trkpt lat="41.8013" lon="9.2161">
        <ele>1373.2</ele>
        <time>2015-06-19T08:52:36Z</time>
      </trkpt>
      <trkpt lat="41.80135" lon="9.21609">
        <ele>1374.2</ele>
        <time>2015-06-19T08:53:07Z</time>
      </trkpt>
      <trkpt lat="41.80136" lon="9.21602">
        <ele>1374</ele>
        <time>2015-06-19T08:53:29Z</time>
      </trkpt>
      <trkpt lat="41.80136" lon="9.216">
        <ele>1375.2</ele>
        <time>2015-06-19T08:53:38Z</time>
      </trkpt>
      <trkpt lat="41.80132" lon="9.21596">
        <ele>1376.2</ele>
        <time>2015-06-19T08:53:52Z</time>
      </trkpt>
      <trkpt lat="41.80132" lon="9.21593">
        <ele>1376.8</ele>
        <time>2015-06-19T08:53:59Z</time>
      </trkpt>
      <trkpt lat="41.80133" lon="9.2159">
        <ele>1377.8</ele>
        <time>2015-06-19T08:54:08Z</time>
      </trkpt>
      <trkpt lat="41.80134" lon="9.21588">
        <ele>1378.8</ele>
        <time>2015-06-19T08:54:18Z</time>
      </trkpt>
      <trkpt lat="41.80133" lon="9.21585">
        <ele>1380</ele>
        <time>2015-06-19T08:54:27Z</time>
      </trkpt>
      <trkpt lat="41.80131" lon="9.21584">
        <ele>1380.8</ele>
        <time>2015-06-19T08:54:35Z</time>
      </trkpt>
      <trkpt lat="41.80131" lon="9.21582">
        <ele>1382</ele>
        <time>2015-06-19T08:54:50Z</time>
      </trkpt>
      <trkpt lat="41.8013" lon="9.21583">
        <ele>1382</ele>
        <time>2015-06-19T08:54:54Z</time>
      </trkpt>
      <trkpt lat="41.80131" lon="9.21581">
        <ele>1382.6</ele>
        <time>2015-06-19T08:56:00Z</time>
      </trkpt>
      <trkpt lat="41.80128" lon="9.2158">
        <ele>1383</ele>
        <time>2015-06-19T08:56:35Z</time>
      </trkpt>
      <trkpt lat="41.80126" lon="9.21579">
        <ele>1383.6</ele>
        <time>2015-06-19T08:56:43Z</time>
      </trkpt>
      <trkpt lat="41.80126" lon="9.21578">
        <ele>1384.6</ele>
        <time>2015-06-19T08:56:52Z</time>
      </trkpt>
      <trkpt lat="41.80127" lon="9.21576">
        <ele>1385.4</ele>
        <time>2015-06-19T08:57:03Z</time>
      </trkpt>
      <trkpt lat="41.80127" lon="9.21576">
        <ele>1386.8</ele>
        <time>2015-06-19T08:57:15Z</time>
      </trkpt>
      <trkpt lat="41.80127" lon="9.21573">
        <ele>1387.6</ele>
        <time>2015-06-19T08:57:26Z</time>
      </trkpt>
      <trkpt lat="41.80125" lon="9.2157">
        <ele>1388.2</ele>
        <time>2015-06-19T08:57:35Z</time>
      </trkpt>
      <trkpt lat="41.80125" lon="9.21568">
        <ele>1388.4</ele>
        <time>2015-06-19T08:57:36Z</time>
      </trkpt>
      <trkpt lat="41.80123" lon="9.21568">
        <ele>1389.2</ele>
        <time>2015-06-19T08:57:41Z</time>
      </trkpt>
      <trkpt lat="41.80122" lon="9.21566">
        <ele>1390.2</ele>
        <time>2015-06-19T08:57:52Z</time>
      </trkpt>
      <trkpt lat="41.80122" lon="9.21565">
        <ele>1391.4</ele>
        <time>2015-06-19T08:58:33Z</time>
      </trkpt>
      <trkpt lat="41.80119" lon="9.21566">
        <ele>1392.2</ele>
        <time>2015-06-19T08:58:39Z</time>
      </trkpt>
      <trkpt lat="41.8012" lon="9.21566">
        <ele>1392.2</ele>
        <time>2015-06-19T08:58:41Z</time>
      </trkpt>
      <trkpt lat="41.80122" lon="9.21566">
        <ele>1392.4</ele>
        <time>2015-06-19T08:58:43Z</time>
      </trkpt>
      <trkpt lat="41.80121" lon="9.21563">
        <ele>1393.2</ele>
        <time>2015-06-19T08:58:56Z</time>
      </trkpt>
      <trkpt lat="41.80117" lon="9.21558">
        <ele>1394.4</ele>
        <time>2015-06-19T08:59:08Z</time>
      </trkpt>
      <trkpt lat="41.80117" lon="9.21558">
        <ele>1394.4</ele>
        <time>2015-06-19T08:59:09Z</time>
      </trkpt>
      <trkpt lat="41.80118" lon="9.21555">
        <ele>1395.2</ele>
        <time>2015-06-19T08:59:14Z</time>
      </trkpt>
      <trkpt lat="41.80119" lon="9.21556">
        <ele>1396.8</ele>
        <time>2015-06-19T08:59:33Z</time>
      </trkpt>
      <trkpt lat="41.8013" lon="9.21552">
        <ele>1397</ele>
        <time>2015-06-19T08:59:40Z</time>
      </trkpt>
      <trkpt lat="41.80134" lon="9.21553">
        <ele>1397.2</ele>
        <time>2015-06-19T08:59:42Z</time>
      </trkpt>
      <trkpt lat="41.80139" lon="9.21552">
        <ele>1397.2</ele>
        <time>2015-06-19T08:59:43Z</time>
      </trkpt>
      <trkpt lat="41.80142" lon="9.21552">
        <ele>1397.2</ele>
        <time>2015-06-19T08:59:44Z</time>
      </trkpt>
      <trkpt lat="41.80153" lon="9.21552">
        <ele>1397</ele>
        <time>2015-06-19T08:59:46Z</time>
      </trkpt>
      <trkpt lat="41.8015" lon="9.21547">
        <ele>1397.4</ele>
        <time>2015-06-19T08:59:51Z</time>
      </trkpt>
      <trkpt lat="41.8016" lon="9.21539">
        <ele>1397.6</ele>
        <time>2015-06-19T09:00:01Z</time>
      </trkpt>
      <trkpt lat="41.80152" lon="9.21538">
        <ele>1397.6</ele>
        <time>2015-06-19T09:00:07Z</time>
      </trkpt>
      <trkpt lat="41.80152" lon="9.21538">
        <ele>1397.6</ele>
        <time>2015-06-19T09:00:08Z</time>
      </trkpt>
      <trkpt lat="41.80151" lon="9.21534">
        <ele>1398</ele>
        <time>2015-06-19T09:00:12Z</time>
      </trkpt>
      <trkpt lat="41.80152" lon="9.21529">
        <ele>1398.6</ele>
        <time>2015-06-19T09:00:18Z</time>
      </trkpt>
      <trkpt lat="41.80152" lon="9.21528">
        <ele>1399.2</ele>
        <time>2015-06-19T09:00:23Z</time>
      </trkpt>
      <trkpt lat="41.80152" lon="9.21529">
        <ele>1399.4</ele>
        <time>2015-06-19T09:00:25Z</time>
      </trkpt>
      <trkpt lat="41.80154" lon="9.21529">
        <ele>1399.6</ele>
        <time>2015-06-19T09:00:26Z</time>
      </trkpt>
      <trkpt lat="41.80159" lon="9.21525">
        <ele>1400.6</ele>
        <time>2015-06-19T09:00:36Z</time>
      </trkpt>
      <trkpt lat="41.80161" lon="9.21521">
        <ele>1402</ele>
        <time>2015-06-19T09:00:45Z</time>
      </trkpt>
      <trkpt lat="41.80159" lon="9.21523">
        <ele>1402.8</ele>
        <time>2015-06-19T09:00:54Z</time>
      </trkpt>
      <trkpt lat="41.80159" lon="9.21522">
        <ele>1403.2</ele>
        <time>2015-06-19T09:00:57Z</time>
      </trkpt>
      <trkpt lat="41.80159" lon="9.21521">
        <ele>1403.4</ele>
        <time>2015-06-19T09:01:00Z</time>
      </trkpt>
      <trkpt lat="41.80153" lon="9.21513">
        <ele>1405</ele>
        <time>2015-06-19T09:01:18Z</time>
      </trkpt>
      <trkpt lat="41.80151" lon="9.21506">
        <ele>1406.2</ele>
        <time>2015-06-19T09:01:29Z</time>
      </trkpt>
      <trkpt lat="41.80152" lon="9.21502">
        <ele>1407.2</ele>
        <time>2015-06-19T09:01:55Z</time>
      </trkpt>
      <trkpt lat="41.80151" lon="9.21504">
        <ele>1405.8</ele>
        <time>2015-06-19T09:02:05Z</time>
      </trkpt>
      <trkpt lat="41.80151" lon="9.21505">
        <ele>1405.4</ele>
        <time>2015-06-19T09:02:11Z</time>
      </trkpt>
      <trkpt lat="41.80148" lon="9.2151">
        <ele>1404</ele>
        <time>2015-06-19T09:02:20Z</time>
      </trkpt>
      <trkpt lat="41.80145" lon="9.21512">
        <ele>1403.4</ele>
        <time>2015-06-19T09:02:28Z</time>
      </trkpt>
      <trkpt lat="41.80147" lon="9.21513">
        <ele>1402.2</ele>
        <time>2015-06-19T09:02:35Z</time>
      </trkpt>
      <trkpt lat="41.80151" lon="9.21513">
        <ele>1401</ele>
        <time>2015-06-19T09:02:55Z</time>
      </trkpt>
      <trkpt lat="41.80158" lon="9.21513">
        <ele>1399.6</ele>
        <time>2015-06-19T09:03:10Z</time>
      </trkpt>
      <trkpt lat="41.80175" lon="9.21513">
        <ele>1399</ele>
        <time>2015-06-19T09:03:49Z</time>
      </trkpt>
      <trkpt lat="41.80176" lon="9.21516">
        <ele>1400.2</ele>
        <time>2015-06-19T09:03:59Z</time>
      </trkpt>
      <trkpt lat="41.80176" lon="9.21509">
        <ele>1401.2</ele>
        <time>2015-06-19T09:04:12Z</time>
      </trkpt>
      <trkpt lat="41.80176" lon="9.21508">
        <ele>1402.2</ele>
        <time>2015-06-19T09:04:21Z</time>
      </trkpt>
      <trkpt lat="41.80178" lon="9.21506">
        <ele>1403.2</ele>
        <time>2015-06-19T09:04:29Z</time>
      </trkpt>
      <trkpt lat="41.80179" lon="9.21503">
        <ele>1404.4</ele>
        <time>2015-06-19T09:04:39Z</time>
      </trkpt>
      <trkpt lat="41.80181" lon="9.21502">
        <ele>1405.2</ele>
        <time>2015-06-19T09:04:47Z</time>
      </trkpt>
      <trkpt lat="41.80183" lon="9.215">
        <ele>1406.2</ele>
        <time>2015-06-19T09:04:55Z</time>
      </trkpt>
      <trkpt lat="41.80187" lon="9.21499">
        <ele>1407.4</ele>
        <time>2015-06-19T09:05:10Z</time>
      </trkpt>
      <trkpt lat="41.80192" lon="9.215">
        <ele>1408.6</ele>
        <time>2015-06-19T09:05:25Z</time>
      </trkpt>
      <trkpt lat="41.80193" lon="9.21499">
        <ele>1409</ele>
        <time>2015-06-19T09:05:28Z</time>
      </trkpt>
      <trkpt lat="41.80193" lon="9.21495">
        <ele>1409.6</ele>
        <time>2015-06-19T09:05:42Z</time>
      </trkpt>
      <trkpt lat="41.80194" lon="9.21491">
        <ele>1410.6</ele>
        <time>2015-06-19T09:05:52Z</time>
      </trkpt>
      <trkpt lat="41.80196" lon="9.21492">
        <ele>1411.6</ele>
        <time>2015-06-19T09:06:03Z</time>
      </trkpt>
      <trkpt lat="41.802" lon="9.21491">
        <ele>1412.6</ele>
        <time>2015-06-19T09:06:19Z</time>
      </trkpt>
      <trkpt lat="41.80199" lon="9.21492">
        <ele>1413.6</ele>
        <time>2015-06-19T09:06:29Z</time>
      </trkpt>
      <trkpt lat="41.802" lon="9.21487">
        <ele>1414.8</ele>
        <time>2015-06-19T09:06:46Z</time>
      </trkpt>
      <trkpt lat="41.802" lon="9.21487">
        <ele>1415.6</ele>
        <time>2015-06-19T09:06:55Z</time>
      </trkpt>
      <trkpt lat="41.80202" lon="9.21486">
        <ele>1417.2</ele>
        <time>2015-06-19T09:07:16Z</time>
      </trkpt>
      <trkpt lat="41.80202" lon="9.21487">
        <ele>1418.2</ele>
        <time>2015-06-19T09:07:27Z</time>
      </trkpt>
      <trkpt lat="41.80203" lon="9.21483">
        <ele>1419.2</ele>
        <time>2015-06-19T09:07:42Z</time>
      </trkpt>
      <trkpt lat="41.80205" lon="9.2148">
        <ele>1420.2</ele>
        <time>2015-06-19T09:07:52Z</time>
      </trkpt>
      <trkpt lat="41.80205" lon="9.21473">
        <ele>1421.8</ele>
        <time>2015-06-19T09:08:10Z</time>
      </trkpt>
      <trkpt lat="41.80205" lon="9.21473">
        <ele>1421.8</ele>
        <time>2015-06-19T09:08:11Z</time>
      </trkpt>
      <trkpt lat="41.802" lon="9.21461">
        <ele>1422.6</ele>
        <time>2015-06-19T09:08:25Z</time>
      </trkpt>
      <trkpt lat="41.80205" lon="9.21474">
        <ele>1422.8</ele>
        <time>2015-06-19T09:09:00Z</time>
      </trkpt>
      <trkpt lat="41.8021" lon="9.21479">
        <ele>1423.4</ele>
        <time>2015-06-19T09:09:04Z</time>
      </trkpt>
      <trkpt lat="41.80211" lon="9.21481">
        <ele>1423.4</ele>
        <time>2015-06-19T09:09:07Z</time>
      </trkpt>
      <trkpt lat="41.80208" lon="9.21487">
        <ele>1423.6</ele>
        <time>2015-06-19T09:09:17Z</time>
      </trkpt>
      <trkpt lat="41.80212" lon="9.2149">
        <ele>1423.2</ele>
        <time>2015-06-19T09:09:27Z</time>
      </trkpt>
      <trkpt lat="41.80214" lon="9.21489">
        <ele>1423</ele>
        <time>2015-06-19T09:09:29Z</time>
      </trkpt>
      <trkpt lat="41.80214" lon="9.2149">
        <ele>1422.6</ele>
        <time>2015-06-19T09:09:33Z</time>
      </trkpt>
      <trkpt lat="41.80212" lon="9.21503">
        <ele>1420.8</ele>
        <time>2015-06-19T09:10:01Z</time>
      </trkpt>
      <trkpt lat="41.80217" lon="9.2152">
        <ele>1420.8</ele>
        <time>2015-06-19T09:10:05Z</time>
      </trkpt>
      <trkpt lat="41.80225" lon="9.21507">
        <ele>1420.6</ele>
        <time>2015-06-19T09:10:08Z</time>
      </trkpt>
      <trkpt lat="41.80226" lon="9.21498">
        <ele>1420.4</ele>
        <time>2015-06-19T09:10:14Z</time>
      </trkpt>
      <trkpt lat="41.80218" lon="9.21501">
        <ele>1421.4</ele>
        <time>2015-06-19T09:10:59Z</time>
      </trkpt>
      <trkpt lat="41.80217" lon="9.21498">
        <ele>1421.2</ele>
        <time>2015-06-19T09:13:37Z</time>
      </trkpt>
      <trkpt lat="41.80215" lon="9.21492">
        <ele>1421.2</ele>
        <time>2015-06-19T09:14:31Z</time>
      </trkpt>
      <trkpt lat="41.80219" lon="9.2149">
        <ele>1420</ele>
        <time>2015-06-19T09:14:46Z</time>
      </trkpt>
      <trkpt lat="41.80222" lon="9.21489">
        <ele>1419.8</ele>
        <time>2015-06-19T09:14:56Z</time>
      </trkpt>
      <trkpt lat="41.80223" lon="9.21491">
        <ele>1418.6</ele>
        <time>2015-06-19T09:15:10Z</time>
      </trkpt>
      <trkpt lat="41.80224" lon="9.2149">
        <ele>1417.8</ele>
        <time>2015-06-19T09:15:18Z</time>
      </trkpt>
      <trkpt lat="41.80224" lon="9.2149">
        <ele>1417.4</ele>
        <time>2015-06-19T09:15:22Z</time>
      </trkpt>
      <trkpt lat="41.8022" lon="9.21493">
        <ele>1415.4</ele>
        <time>2015-06-19T09:15:38Z</time>
      </trkpt>
      <trkpt lat="41.80247" lon="9.21493">
        <ele>1414.4</ele>
        <time>2015-06-19T09:16:05Z</time>
      </trkpt>
      <trkpt lat="41.80257" lon="9.21492">
        <ele>1414.4</ele>
        <time>2015-06-19T09:16:07Z</time>
      </trkpt>
      <trkpt lat="41.80256" lon="9.21494">
        <ele>1414.2</ele>
        <time>2015-06-19T09:16:09Z</time>
      </trkpt>
      <trkpt lat="41.80265" lon="9.21498">
        <ele>1414</ele>
        <time>2015-06-19T09:16:13Z</time>
      </trkpt>
      <trkpt lat="41.80299" lon="9.21506">
        <ele>1413.8</ele>
        <time>2015-06-19T09:16:19Z</time>
      </trkpt>
      <trkpt lat="41.80311" lon="9.21505">
        <ele>1413.8</ele>
        <time>2015-06-19T09:16:21Z</time>
      </trkpt>
      <trkpt lat="41.8032" lon="9.21505">
        <ele>1413.6</ele>
        <time>2015-06-19T09:16:23Z</time>
      </trkpt>
      <trkpt lat="41.80335" lon="9.21503">
        <ele>1413.4</ele>
        <time>2015-06-19T09:16:25Z</time>
      </trkpt>
      <trkpt lat="41.80354" lon="9.215">
        <ele>1413.4</ele>
        <time>2015-06-19T09:16:29Z</time>
      </trkpt>
      <trkpt lat="41.80365" lon="9.21499">
        <ele>1413.2</ele>
        <time>2015-06-19T09:16:33Z</time>
      </trkpt>
      <trkpt lat="41.80368" lon="9.21498">
        <ele>1412.8</ele>
        <time>2015-06-19T09:16:35Z</time>
      </trkpt>
      <trkpt lat="41.80369" lon="9.21497">
        <ele>1412.6</ele>
        <time>2015-06-19T09:16:37Z</time>
      </trkpt>
      <trkpt lat="41.80358" lon="9.215">
        <ele>1412.6</ele>
        <time>2015-06-19T09:16:42Z</time>
      </trkpt>
      <trkpt lat="41.80357" lon="9.215">
        <ele>1412.4</ele>
        <time>2015-06-19T09:16:44Z</time>
      </trkpt>
      <trkpt lat="41.80356" lon="9.215">
        <ele>1412</ele>
        <time>2015-06-19T09:16:49Z</time>
      </trkpt>
      <trkpt lat="41.80345" lon="9.215">
        <ele>1412</ele>
        <time>2015-06-19T09:16:53Z</time>
      </trkpt>
      <trkpt lat="41.80333" lon="9.21501">
        <ele>1411.8</ele>
        <time>2015-06-19T09:17:00Z</time>
      </trkpt>
      <trkpt lat="41.80322" lon="9.21506">
        <ele>1411.8</ele>
        <time>2015-06-19T09:17:08Z</time>
      </trkpt>
      <trkpt lat="41.80322" lon="9.21506">
        <ele>1411.8</ele>
        <time>2015-06-19T09:17:10Z</time>
      </trkpt>
      <trkpt lat="41.80314" lon="9.21506">
        <ele>1411.8</ele>
        <time>2015-06-19T09:17:17Z</time>
      </trkpt>
      <trkpt lat="41.80312" lon="9.21508">
        <ele>1411.6</ele>
        <time>2015-06-19T09:17:19Z</time>
      </trkpt>
      <trkpt lat="41.80313" lon="9.21507">
        <ele>1411.6</ele>
        <time>2015-06-19T09:17:22Z</time>
      </trkpt>
      <trkpt lat="41.80312" lon="9.21507">
        <ele>1411.8</ele>
        <time>2015-06-19T09:17:25Z</time>
      </trkpt>
      <trkpt lat="41.80309" lon="9.21507">
        <ele>1411.6</ele>
        <time>2015-06-19T09:17:27Z</time>
      </trkpt>
      <trkpt lat="41.80311" lon="9.21507">
        <ele>1411.6</ele>
        <time>2015-06-19T09:17:29Z</time>
      </trkpt>
      <trkpt lat="41.80317" lon="9.21507">
        <ele>1411.2</ele>
        <time>2015-06-19T09:17:33Z</time>
      </trkpt>
      <trkpt lat="41.80318" lon="9.21509">
        <ele>1411</ele>
        <time>2015-06-19T09:17:35Z</time>
      </trkpt>
      <trkpt lat="41.80319" lon="9.21513">
        <ele>1410.8</ele>
        <time>2015-06-19T09:17:38Z</time>
      </trkpt>
      <trkpt lat="41.80321" lon="9.21516">
        <ele>1410.4</ele>
        <time>2015-06-19T09:17:42Z</time>
      </trkpt>
      <trkpt lat="41.80325" lon="9.21516">
        <ele>1409.4</ele>
        <time>2015-06-19T09:17:50Z</time>
      </trkpt>
      <trkpt lat="41.80322" lon="9.21516">
        <ele>1408.6</ele>
        <time>2015-06-19T09:17:58Z</time>
      </trkpt>
      <trkpt lat="41.8032" lon="9.21516">
        <ele>1408.4</ele>
        <time>2015-06-19T09:18:00Z</time>
      </trkpt>
      <trkpt lat="41.80315" lon="9.21514">
        <ele>1407.6</ele>
        <time>2015-06-19T09:18:05Z</time>
      </trkpt>
      <trkpt lat="41.80311" lon="9.21512">
        <ele>1406.4</ele>
        <time>2015-06-19T09:18:20Z</time>
      </trkpt>
      <trkpt lat="41.80315" lon="9.21509">
        <ele>1405.2</ele>
        <time>2015-06-19T09:18:29Z</time>
      </trkpt>
      <trkpt lat="41.80314" lon="9.215">
        <ele>1403.8</ele>
        <time>2015-06-19T09:18:55Z</time>
      </trkpt>
      <trkpt lat="41.8032" lon="9.21497">
        <ele>1403.8</ele>
        <time>2015-06-19T09:19:11Z</time>
      </trkpt>
      <trkpt lat="41.80324" lon="9.21496">
        <ele>1403.8</ele>
        <time>2015-06-19T09:19:24Z</time>
      </trkpt>
      <trkpt lat="41.80328" lon="9.21495">
        <ele>1403.6</ele>
        <time>2015-06-19T09:19:27Z</time>
      </trkpt>
      <trkpt lat="41.80329" lon="9.21495">
        <ele>1403.8</ele>
        <time>2015-06-19T09:19:29Z</time>
      </trkpt>
      <trkpt lat="41.80319" lon="9.21497">
        <ele>1403.4</ele>
        <time>2015-06-19T09:19:42Z</time>
      </trkpt>
      <trkpt lat="41.80301" lon="9.21495">
        <ele>1403.2</ele>
        <time>2015-06-19T09:20:01Z</time>
      </trkpt>
      <trkpt lat="41.80324" lon="9.21497">
        <ele>1403.4</ele>
        <time>2015-06-19T09:20:28Z</time>
      </trkpt>
      <trkpt lat="41.80317" lon="9.21496">
        <ele>1403.2</ele>
        <time>2015-06-19T09:20:34Z</time>
      </trkpt>
      <trkpt lat="41.80318" lon="9.21496">
        <ele>1403.2</ele>
        <time>2015-06-19T09:20:37Z</time>
      </trkpt>
      <trkpt lat="41.80319" lon="9.21496">
        <ele>1403.2</ele>
        <time>2015-06-19T09:20:40Z</time>
      </trkpt>
      <trkpt lat="41.80318" lon="9.21495">
        <ele>1403.4</ele>
        <time>2015-06-19T09:20:45Z</time>
      </trkpt>
      <trkpt lat="41.80314" lon="9.21492">
        <ele>1404</ele>
        <time>2015-06-19T09:20:52Z</time>
      </trkpt>
      <trkpt lat="41.80306" lon="9.21492">
        <ele>1404.4</ele>
        <time>2015-06-19T09:20:55Z</time>
      </trkpt>
      <trkpt lat="41.80303" lon="9.21491">
        <ele>1404.8</ele>
        <time>2015-06-19T09:20:59Z</time>
      </trkpt>
      <trkpt lat="41.80299" lon="9.21491">
        <ele>1405.2</ele>
        <time>2015-06-19T09:21:02Z</time>
      </trkpt>
      <trkpt lat="41.80286" lon="9.21493">
        <ele>1405.4</ele>
        <time>2015-06-19T09:21:04Z</time>
      </trkpt>
      <trkpt lat="41.80284" lon="9.21494">
        <ele>1405.8</ele>
        <time>2015-06-19T09:21:07Z</time>
      </trkpt>
      <trkpt lat="41.80283" lon="9.21494">
        <ele>1405.6</ele>
        <time>2015-06-19T09:21:08Z</time>
      </trkpt>
      <trkpt lat="41.80277" lon="9.21495">
        <ele>1406.4</ele>
        <time>2015-06-19T09:21:14Z</time>
      </trkpt>
      <trkpt lat="41.80271" lon="9.21496">
        <ele>1407</ele>
        <time>2015-06-19T09:21:19Z</time>
      </trkpt>
      <trkpt lat="41.80269" lon="9.21491">
        <ele>1408</ele>
        <time>2015-06-19T09:21:25Z</time>
      </trkpt>
      <trkpt lat="41.80271" lon="9.2149">
        <ele>1408.6</ele>
        <time>2015-06-19T09:21:30Z</time>
      </trkpt>
      <trkpt lat="41.80272" lon="9.21488">
        <ele>1408.8</ele>
        <time>2015-06-19T09:21:36Z</time>
      </trkpt>
      <trkpt lat="41.80272" lon="9.2148">
        <ele>1410.2</ele>
        <time>2015-06-19T09:21:45Z</time>
      </trkpt>
      <trkpt lat="41.80272" lon="9.21481">
        <ele>1410.6</ele>
        <time>2015-06-19T09:21:52Z</time>
      </trkpt>
      <trkpt lat="41.80276" lon="9.21473">
        <ele>1411.8</ele>
        <time>2015-06-19T09:22:03Z</time>
      </trkpt>
      <trkpt lat="41.80276" lon="9.21466">
        <ele>1412.2</ele>
        <time>2015-06-19T09:22:08Z</time>
      </trkpt>
      <trkpt lat="41.80276" lon="9.21463">
        <ele>1412.6</ele>
        <time>2015-06-19T09:22:11Z</time>
      </trkpt>
      <trkpt lat="41.80276" lon="9.21462">
        <ele>1412.6</ele>
        <time>2015-06-19T09:22:12Z</time>
      </trkpt>
      <trkpt lat="41.80276" lon="9.21455">
        <ele>1413.8</ele>
        <time>2015-06-19T09:22:25Z</time>
      </trkpt>
      <trkpt lat="41.80283" lon="9.21455">
        <ele>1414.4</ele>
        <time>2015-06-19T09:22:39Z</time>
      </trkpt>
      <trkpt lat="41.80285" lon="9.21452">
        <ele>1415</ele>
        <time>2015-06-19T09:22:48Z</time>
      </trkpt>
      <trkpt lat="41.80287" lon="9.2145">
        <ele>1415.8</ele>
        <time>2015-06-19T09:22:55Z</time>
      </trkpt>
      <trkpt lat="41.80289" lon="9.21449">
        <ele>1417.2</ele>
        <time>2015-06-19T09:23:05Z</time>
      </trkpt>
      <trkpt lat="41.80294" lon="9.21451">
        <ele>1417.8</ele>
        <time>2015-06-19T09:23:18Z</time>
      </trkpt>
      <trkpt lat="41.80297" lon="9.21449">
        <ele>1419</ele>
        <time>2015-06-19T09:23:29Z</time>
      </trkpt>
      <trkpt lat="41.80299" lon="9.21445">
        <ele>1419.4</ele>
        <time>2015-06-19T09:23:39Z</time>
      </trkpt>
      <trkpt lat="41.803" lon="9.21444">
        <ele>1420.6</ele>
        <time>2015-06-19T09:23:48Z</time>
      </trkpt>
      <trkpt lat="41.803" lon="9.21441">
        <ele>1421.8</ele>
        <time>2015-06-19T09:24:03Z</time>
      </trkpt>
      <trkpt lat="41.80298" lon="9.21437">
        <ele>1422.6</ele>
        <time>2015-06-19T09:24:13Z</time>
      </trkpt>
      <trkpt lat="41.80301" lon="9.21434">
        <ele>1423.6</ele>
        <time>2015-06-19T09:24:23Z</time>
      </trkpt>
      <trkpt lat="41.80301" lon="9.21431">
        <ele>1424.8</ele>
        <time>2015-06-19T09:24:41Z</time>
      </trkpt>
      <trkpt lat="41.80299" lon="9.21428">
        <ele>1425.4</ele>
        <time>2015-06-19T09:24:49Z</time>
      </trkpt>
      <trkpt lat="41.80299" lon="9.21423">
        <ele>1426.6</ele>
        <time>2015-06-19T09:25:00Z</time>
      </trkpt>
      <trkpt lat="41.80299" lon="9.21422">
        <ele>1427</ele>
        <time>2015-06-19T09:25:07Z</time>
      </trkpt>
      <trkpt lat="41.80304" lon="9.21423">
        <ele>1428.4</ele>
        <time>2015-06-19T09:25:22Z</time>
      </trkpt>
      <trkpt lat="41.80308" lon="9.21421">
        <ele>1429.8</ele>
        <time>2015-06-19T09:25:34Z</time>
      </trkpt>
      <trkpt lat="41.8031" lon="9.21418">
        <ele>1430.4</ele>
        <time>2015-06-19T09:25:56Z</time>
      </trkpt>
      <trkpt lat="41.80313" lon="9.21419">
        <ele>1431.4</ele>
        <time>2015-06-19T09:26:04Z</time>
      </trkpt>
      <trkpt lat="41.80316" lon="9.21419">
        <ele>1432.6</ele>
        <time>2015-06-19T09:26:18Z</time>
      </trkpt>
      <trkpt lat="41.80316" lon="9.21416">
        <ele>1433.4</ele>
        <time>2015-06-19T09:26:27Z</time>
      </trkpt>
      <trkpt lat="41.80314" lon="9.21413">
        <ele>1434.6</ele>
        <time>2015-06-19T09:26:35Z</time>
      </trkpt>
      <trkpt lat="41.80312" lon="9.2141">
        <ele>1435.6</ele>
        <time>2015-06-19T09:26:43Z</time>
      </trkpt>
      <trkpt lat="41.80312" lon="9.21406">
        <ele>1436.4</ele>
        <time>2015-06-19T09:26:58Z</time>
      </trkpt>
      <trkpt lat="41.80312" lon="9.21403">
        <ele>1436.6</ele>
        <time>2015-06-19T09:27:03Z</time>
      </trkpt>
      <trkpt lat="41.80312" lon="9.214">
        <ele>1437.8</ele>
        <time>2015-06-19T09:27:11Z</time>
      </trkpt>
      <trkpt lat="41.80313" lon="9.21397">
        <ele>1438.8</ele>
        <time>2015-06-19T09:27:31Z</time>
      </trkpt>
      <trkpt lat="41.80314" lon="9.21392">
        <ele>1440.2</ele>
        <time>2015-06-19T09:27:45Z</time>
      </trkpt>
      <trkpt lat="41.80315" lon="9.21389">
        <ele>1441.2</ele>
        <time>2015-06-19T09:27:58Z</time>
      </trkpt>
      <trkpt lat="41.80319" lon="9.21391">
        <ele>1442.4</ele>
        <time>2015-06-19T09:28:11Z</time>
      </trkpt>
      <trkpt lat="41.80323" lon="9.21395">
        <ele>1443.4</ele>
        <time>2015-06-19T09:28:23Z</time>
      </trkpt>
      <trkpt lat="41.80329" lon="9.21394">
        <ele>1444.2</ele>
        <time>2015-06-19T09:28:33Z</time>
      </trkpt>
      <trkpt lat="41.80332" lon="9.21396">
        <ele>1445.4</ele>
        <time>2015-06-19T09:28:43Z</time>
      </trkpt>
      <trkpt lat="41.80335" lon="9.21396">
        <ele>1447.2</ele>
        <time>2015-06-19T09:29:07Z</time>
      </trkpt>
      <trkpt lat="41.80336" lon="9.21396">
        <ele>1447.6</ele>
        <time>2015-06-19T09:29:16Z</time>
      </trkpt>
      <trkpt lat="41.80338" lon="9.21395">
        <ele>1449.2</ele>
        <time>2015-06-19T09:29:28Z</time>
      </trkpt>
      <trkpt lat="41.80341" lon="9.21395">
        <ele>1450.2</ele>
        <time>2015-06-19T09:29:39Z</time>
      </trkpt>
      <trkpt lat="41.80344" lon="9.21397">
        <ele>1451.6</ele>
        <time>2015-06-19T09:29:59Z</time>
      </trkpt>
      <trkpt lat="41.80346" lon="9.21398">
        <ele>1453</ele>
        <time>2015-06-19T09:30:16Z</time>
      </trkpt>
      <trkpt lat="41.80347" lon="9.21394">
        <ele>1453.8</ele>
        <time>2015-06-19T09:30:37Z</time>
      </trkpt>
      <trkpt lat="41.8035" lon="9.21398">
        <ele>1455.2</ele>
        <time>2015-06-19T09:30:49Z</time>
      </trkpt>
      <trkpt lat="41.80352" lon="9.21403">
        <ele>1456.4</ele>
        <time>2015-06-19T09:31:01Z</time>
      </trkpt>
      <trkpt lat="41.80358" lon="9.21413">
        <ele>1458.4</ele>
        <time>2015-06-19T09:32:44Z</time>
      </trkpt>
      <trkpt lat="41.8036" lon="9.21413">
        <ele>1459.4</ele>
        <time>2015-06-19T09:32:52Z</time>
      </trkpt>
      <trkpt lat="41.8036" lon="9.21412">
        <ele>1460.8</ele>
        <time>2015-06-19T09:33:01Z</time>
      </trkpt>
      <trkpt lat="41.80364" lon="9.21415">
        <ele>1462.2</ele>
        <time>2015-06-19T09:33:23Z</time>
      </trkpt>
      <trkpt lat="41.80369" lon="9.21417">
        <ele>1463.4</ele>
        <time>2015-06-19T09:33:39Z</time>
      </trkpt>
      <trkpt lat="41.80371" lon="9.21416">
        <ele>1464.4</ele>
        <time>2015-06-19T09:33:49Z</time>
      </trkpt>
      <trkpt lat="41.80372" lon="9.21418">
        <ele>1465.4</ele>
        <time>2015-06-19T09:33:59Z</time>
      </trkpt>
      <trkpt lat="41.80376" lon="9.2142">
        <ele>1467.2</ele>
        <time>2015-06-19T09:34:17Z</time>
      </trkpt>
      <trkpt lat="41.80385" lon="9.21425">
        <ele>1468.2</ele>
        <time>2015-06-19T09:34:36Z</time>
      </trkpt>
      <trkpt lat="41.80386" lon="9.21427">
        <ele>1469.2</ele>
        <time>2015-06-19T09:34:43Z</time>
      </trkpt>
      <trkpt lat="41.80387" lon="9.21426">
        <ele>1470.8</ele>
        <time>2015-06-19T09:34:59Z</time>
      </trkpt>
      <trkpt lat="41.80389" lon="9.21428">
        <ele>1471.8</ele>
        <time>2015-06-19T09:35:10Z</time>
      </trkpt>
      <trkpt lat="41.80392" lon="9.21428">
        <ele>1473</ele>
        <time>2015-06-19T09:35:21Z</time>
      </trkpt>
      <trkpt lat="41.80391" lon="9.21432">
        <ele>1474</ele>
        <time>2015-06-19T09:35:34Z</time>
      </trkpt>
      <trkpt lat="41.80394" lon="9.21443">
        <ele>1474.4</ele>
        <time>2015-06-19T09:35:47Z</time>
      </trkpt>
      <trkpt lat="41.80396" lon="9.21448">
        <ele>1475.6</ele>
        <time>2015-06-19T09:36:02Z</time>
      </trkpt>
      <trkpt lat="41.80399" lon="9.21449">
        <ele>1476.6</ele>
        <time>2015-06-19T09:36:10Z</time>
      </trkpt>
      <trkpt lat="41.8041" lon="9.21452">
        <ele>1478</ele>
        <time>2015-06-19T09:36:32Z</time>
      </trkpt>
      <trkpt lat="41.80409" lon="9.21453">
        <ele>1479.2</ele>
        <time>2015-06-19T09:36:44Z</time>
      </trkpt>
      <trkpt lat="41.80409" lon="9.21452">
        <ele>1480.4</ele>
        <time>2015-06-19T09:37:01Z</time>
      </trkpt>
      <trkpt lat="41.80412" lon="9.21453">
        <ele>1481.2</ele>
        <time>2015-06-19T09:37:11Z</time>
      </trkpt>
      <trkpt lat="41.80415" lon="9.21458">
        <ele>1482.6</ele>
        <time>2015-06-19T09:37:27Z</time>
      </trkpt>
      <trkpt lat="41.80417" lon="9.21456">
        <ele>1483.8</ele>
        <time>2015-06-19T09:37:38Z</time>
      </trkpt>
      <trkpt lat="41.80417" lon="9.21454">
        <ele>1485.2</ele>
        <time>2015-06-19T09:37:56Z</time>
      </trkpt>
      <trkpt lat="41.8042" lon="9.21452">
        <ele>1486.2</ele>
        <time>2015-06-19T09:38:40Z</time>
      </trkpt>
      <trkpt lat="41.80419" lon="9.21452">
        <ele>1487</ele>
        <time>2015-06-19T09:38:50Z</time>
      </trkpt>
      <trkpt lat="41.8042" lon="9.21453">
        <ele>1488</ele>
        <time>2015-06-19T09:38:59Z</time>
      </trkpt>
      <trkpt lat="41.80423" lon="9.21458">
        <ele>1489.8</ele>
        <time>2015-06-19T09:39:18Z</time>
      </trkpt>
      <trkpt lat="41.80426" lon="9.21458">
        <ele>1490.4</ele>
        <time>2015-06-19T09:39:28Z</time>
      </trkpt>
      <trkpt lat="41.8043" lon="9.21458">
        <ele>1492</ele>
        <time>2015-06-19T09:39:42Z</time>
      </trkpt>
      <trkpt lat="41.80431" lon="9.21462">
        <ele>1492.8</ele>
        <time>2015-06-19T09:39:52Z</time>
      </trkpt>
      <trkpt lat="41.80434" lon="9.2147">
        <ele>1494</ele>
        <time>2015-06-19T09:40:07Z</time>
      </trkpt>
      <trkpt lat="41.80442" lon="9.21489">
        <ele>1494.8</ele>
        <time>2015-06-19T09:41:02Z</time>
      </trkpt>
      <trkpt lat="41.80443" lon="9.21488">
        <ele>1496</ele>
        <time>2015-06-19T09:41:12Z</time>
      </trkpt>
      <trkpt lat="41.80446" lon="9.21489">
        <ele>1497</ele>
        <time>2015-06-19T09:41:19Z</time>
      </trkpt>
      <trkpt lat="41.80447" lon="9.21487">
        <ele>1498.2</ele>
        <time>2015-06-19T09:41:28Z</time>
      </trkpt>
      <trkpt lat="41.80451" lon="9.21483">
        <ele>1499.4</ele>
        <time>2015-06-19T09:41:41Z</time>
      </trkpt>
      <trkpt lat="41.80454" lon="9.21481">
        <ele>1500.6</ele>
        <time>2015-06-19T09:42:00Z</time>
      </trkpt>
      <trkpt lat="41.80457" lon="9.21479">
        <ele>1501.4</ele>
        <time>2015-06-19T09:42:10Z</time>
      </trkpt>
      <trkpt lat="41.80457" lon="9.21476">
        <ele>1502.8</ele>
        <time>2015-06-19T09:42:28Z</time>
      </trkpt>
      <trkpt lat="41.80457" lon="9.21474">
        <ele>1503.2</ele>
        <time>2015-06-19T09:42:41Z</time>
      </trkpt>
      <trkpt lat="41.80461" lon="9.21476">
        <ele>1504.6</ele>
        <time>2015-06-19T09:42:59Z</time>
      </trkpt>
      <trkpt lat="41.80465" lon="9.21485">
        <ele>1506.2</ele>
        <time>2015-06-19T09:43:22Z</time>
      </trkpt>
      <trkpt lat="41.80465" lon="9.21484">
        <ele>1506.2</ele>
        <time>2015-06-19T09:43:33Z</time>
      </trkpt>
      <trkpt lat="41.80463" lon="9.21483">
        <ele>1505.8</ele>
        <time>2015-06-19T09:43:43Z</time>
      </trkpt>
      <trkpt lat="41.80465" lon="9.21483">
        <ele>1505.8</ele>
        <time>2015-06-19T09:49:03Z</time>
      </trkpt>
      <trkpt lat="41.80477" lon="9.21481">
        <ele>1506.4</ele>
        <time>2015-06-19T09:49:57Z</time>
      </trkpt>
      <trkpt lat="41.80481" lon="9.21482">
        <ele>1506.4</ele>
        <time>2015-06-19T09:50:08Z</time>
      </trkpt>
      <trkpt lat="41.80484" lon="9.21486">
        <ele>1506.4</ele>
        <time>2015-06-19T09:50:26Z</time>
      </trkpt>
      <trkpt lat="41.80493" lon="9.21493">
        <ele>1506.6</ele>
        <time>2015-06-19T09:50:49Z</time>
      </trkpt>
      <trkpt lat="41.80496" lon="9.21493">
        <ele>1507.4</ele>
        <time>2015-06-19T09:50:58Z</time>
      </trkpt>
      <trkpt lat="41.80499" lon="9.21491">
        <ele>1508.8</ele>
        <time>2015-06-19T09:51:13Z</time>
      </trkpt>
      <trkpt lat="41.80503" lon="9.21488">
        <ele>1509.6</ele>
        <time>2015-06-19T09:51:23Z</time>
      </trkpt>
      <trkpt lat="41.8052" lon="9.215">
        <ele>1511</ele>
        <time>2015-06-19T09:52:03Z</time>
      </trkpt>
      <trkpt lat="41.80536" lon="9.21497">
        <ele>1512.4</ele>
        <time>2015-06-19T09:52:32Z</time>
      </trkpt>
      <trkpt lat="41.8055" lon="9.21491">
        <ele>1512.6</ele>
        <time>2015-06-19T09:53:34Z</time>
      </trkpt>
      <trkpt lat="41.80551" lon="9.21494">
        <ele>1512.4</ele>
        <time>2015-06-19T09:53:37Z</time>
      </trkpt>
      <trkpt lat="41.80552" lon="9.21497">
        <ele>1511.8</ele>
        <time>2015-06-19T09:53:40Z</time>
      </trkpt>
      <trkpt lat="41.80553" lon="9.21496">
        <ele>1511.6</ele>
        <time>2015-06-19T09:53:41Z</time>
      </trkpt>
      <trkpt lat="41.80583" lon="9.21494">
        <ele>1511.4</ele>
        <time>2015-06-19T09:54:38Z</time>
      </trkpt>
      <trkpt lat="41.80573" lon="9.21497">
        <ele>1511.4</ele>
        <time>2015-06-19T09:55:08Z</time>
      </trkpt>
      <trkpt lat="41.80567" lon="9.21495">
        <ele>1510.2</ele>
        <time>2015-06-19T09:55:18Z</time>
      </trkpt>
      <trkpt lat="41.80562" lon="9.21489">
        <ele>1510.4</ele>
        <time>2015-06-19T09:55:32Z</time>
      </trkpt>
      <trkpt lat="41.80562" lon="9.21486">
        <ele>1511.2</ele>
        <time>2015-06-19T09:55:45Z</time>
      </trkpt>
      <trkpt lat="41.80566" lon="9.21485">
        <ele>1512.4</ele>
        <time>2015-06-19T09:55:53Z</time>
      </trkpt>
      <trkpt lat="41.80569" lon="9.21484">
        <ele>1513.6</ele>
        <time>2015-06-19T09:56:03Z</time>
      </trkpt>
      <trkpt lat="41.80572" lon="9.21483">
        <ele>1514.8</ele>
        <time>2015-06-19T09:56:13Z</time>
      </trkpt>
      <trkpt lat="41.80574" lon="9.21481">
        <ele>1515.8</ele>
        <time>2015-06-19T09:56:23Z</time>
      </trkpt>
      <trkpt lat="41.80584" lon="9.2148">
        <ele>1517.4</ele>
        <time>2015-06-19T09:56:45Z</time>
      </trkpt>
      <trkpt lat="41.80599" lon="9.21477">
        <ele>1518.2</ele>
        <time>2015-06-19T09:57:13Z</time>
      </trkpt>
      <trkpt lat="41.80599" lon="9.21472">
        <ele>1519.2</ele>
        <time>2015-06-19T09:57:22Z</time>
      </trkpt>
      <trkpt lat="41.806" lon="9.21472">
        <ele>1520.4</ele>
        <time>2015-06-19T09:57:32Z</time>
      </trkpt>
      <trkpt lat="41.80602" lon="9.21471">
        <ele>1521.8</ele>
        <time>2015-06-19T09:57:41Z</time>
      </trkpt>
      <trkpt lat="41.80606" lon="9.21471">
        <ele>1522.6</ele>
        <time>2015-06-19T09:57:52Z</time>
      </trkpt>
      <trkpt lat="41.80611" lon="9.21464">
        <ele>1523.4</ele>
        <time>2015-06-19T09:58:05Z</time>
      </trkpt>
      <trkpt lat="41.80615" lon="9.21458">
        <ele>1524.4</ele>
        <time>2015-06-19T09:58:17Z</time>
      </trkpt>
      <trkpt lat="41.80615" lon="9.21452">
        <ele>1525.4</ele>
        <time>2015-06-19T09:58:26Z</time>
      </trkpt>
      <trkpt lat="41.80617" lon="9.21445">
        <ele>1526.6</ele>
        <time>2015-06-19T09:58:37Z</time>
      </trkpt>
      <trkpt lat="41.8062" lon="9.21443">
        <ele>1527.4</ele>
        <time>2015-06-19T09:58:46Z</time>
      </trkpt>
      <trkpt lat="41.80624" lon="9.2144">
        <ele>1528</ele>
        <time>2015-06-19T09:58:53Z</time>
      </trkpt>
      <trkpt lat="41.80628" lon="9.21434">
        <ele>1529.6</ele>
        <time>2015-06-19T09:59:04Z</time>
      </trkpt>
      <trkpt lat="41.80631" lon="9.21432">
        <ele>1530.8</ele>
        <time>2015-06-19T09:59:17Z</time>
      </trkpt>
      <trkpt lat="41.80635" lon="9.21428">
        <ele>1531.4</ele>
        <time>2015-06-19T09:59:26Z</time>
      </trkpt>
      <trkpt lat="41.80638" lon="9.21423">
        <ele>1532</ele>
        <time>2015-06-19T09:59:36Z</time>
      </trkpt>
      <trkpt lat="41.8064" lon="9.21423">
        <ele>1532.8</ele>
        <time>2015-06-19T09:59:41Z</time>
      </trkpt>
      <trkpt lat="41.80641" lon="9.21425">
        <ele>1534</ele>
        <time>2015-06-19T09:59:47Z</time>
      </trkpt>
      <trkpt lat="41.80644" lon="9.21427">
        <ele>1534.2</ele>
        <time>2015-06-19T09:59:52Z</time>
      </trkpt>
      <trkpt lat="41.80649" lon="9.21428">
        <ele>1535.4</ele>
        <time>2015-06-19T10:00:03Z</time>
      </trkpt>
      <trkpt lat="41.80654" lon="9.21427">
        <ele>1536</ele>
        <time>2015-06-19T10:00:13Z</time>
      </trkpt>
      <trkpt lat="41.80658" lon="9.21427">
        <ele>1537.4</ele>
        <time>2015-06-19T10:00:22Z</time>
      </trkpt>
      <trkpt lat="41.80662" lon="9.21426">
        <ele>1538.2</ele>
        <time>2015-06-19T10:00:30Z</time>
      </trkpt>
      <trkpt lat="41.80666" lon="9.21423">
        <ele>1539.4</ele>
        <time>2015-06-19T10:00:40Z</time>
      </trkpt>
      <trkpt lat="41.80669" lon="9.21426">
        <ele>1540</ele>
        <time>2015-06-19T10:00:47Z</time>
      </trkpt>
      <trkpt lat="41.80671" lon="9.21428">
        <ele>1541.4</ele>
        <time>2015-06-19T10:00:54Z</time>
      </trkpt>
      <trkpt lat="41.80677" lon="9.21427">
        <ele>1542.6</ele>
        <time>2015-06-19T10:01:04Z</time>
      </trkpt>
      <trkpt lat="41.8068" lon="9.21428">
        <ele>1543.4</ele>
        <time>2015-06-19T10:01:14Z</time>
      </trkpt>
      <trkpt lat="41.80685" lon="9.21428">
        <ele>1544.4</ele>
        <time>2015-06-19T10:01:25Z</time>
      </trkpt>
      <trkpt lat="41.80689" lon="9.21428">
        <ele>1545.4</ele>
        <time>2015-06-19T10:01:36Z</time>
      </trkpt>
      <trkpt lat="41.80692" lon="9.21428">
        <ele>1546.4</ele>
        <time>2015-06-19T10:01:44Z</time>
      </trkpt>
      <trkpt lat="41.80697" lon="9.21427">
        <ele>1547.4</ele>
        <time>2015-06-19T10:01:55Z</time>
      </trkpt>
      <trkpt lat="41.80699" lon="9.21427">
        <ele>1548.4</ele>
        <time>2015-06-19T10:02:03Z</time>
      </trkpt>
      <trkpt lat="41.80701" lon="9.21426">
        <ele>1549</ele>
        <time>2015-06-19T10:02:10Z</time>
      </trkpt>
      <trkpt lat="41.80705" lon="9.21424">
        <ele>1550.4</ele>
        <time>2015-06-19T10:02:19Z</time>
      </trkpt>
      <trkpt lat="41.80708" lon="9.21419">
        <ele>1551.2</ele>
        <time>2015-06-19T10:02:29Z</time>
      </trkpt>
      <trkpt lat="41.80709" lon="9.21416">
        <ele>1552.2</ele>
        <time>2015-06-19T10:02:37Z</time>
      </trkpt>
      <trkpt lat="41.80711" lon="9.21414">
        <ele>1553.2</ele>
        <time>2015-06-19T10:02:47Z</time>
      </trkpt>
      <trkpt lat="41.80712" lon="9.2141">
        <ele>1554</ele>
        <time>2015-06-19T10:02:54Z</time>
      </trkpt>
      <trkpt lat="41.80715" lon="9.21409">
        <ele>1555.4</ele>
        <time>2015-06-19T10:03:04Z</time>
      </trkpt>
      <trkpt lat="41.8072" lon="9.21406">
        <ele>1556.2</ele>
        <time>2015-06-19T10:03:14Z</time>
      </trkpt>
      <trkpt lat="41.80724" lon="9.21406">
        <ele>1557.2</ele>
        <time>2015-06-19T10:03:25Z</time>
      </trkpt>
      <trkpt lat="41.8073" lon="9.21405">
        <ele>1558.2</ele>
        <time>2015-06-19T10:03:35Z</time>
      </trkpt>
      <trkpt lat="41.80733" lon="9.21404">
        <ele>1559.2</ele>
        <time>2015-06-19T10:03:43Z</time>
      </trkpt>
      <trkpt lat="41.80737" lon="9.21405">
        <ele>1560.4</ele>
        <time>2015-06-19T10:03:52Z</time>
      </trkpt>
      <trkpt lat="41.8074" lon="9.214">
        <ele>1561.6</ele>
        <time>2015-06-19T10:04:03Z</time>
      </trkpt>
      <trkpt lat="41.80739" lon="9.21393">
        <ele>1562.6</ele>
        <time>2015-06-19T10:04:15Z</time>
      </trkpt>
      <trkpt lat="41.80739" lon="9.2139">
        <ele>1563.4</ele>
        <time>2015-06-19T10:04:22Z</time>
      </trkpt>
      <trkpt lat="41.8074" lon="9.2139">
        <ele>1564.4</ele>
        <time>2015-06-19T10:04:30Z</time>
      </trkpt>
      <trkpt lat="41.80745" lon="9.21389">
        <ele>1565.8</ele>
        <time>2015-06-19T10:04:41Z</time>
      </trkpt>
      <trkpt lat="41.80748" lon="9.21389">
        <ele>1566.8</ele>
        <time>2015-06-19T10:04:50Z</time>
      </trkpt>
      <trkpt lat="41.80755" lon="9.21389">
        <ele>1567.6</ele>
        <time>2015-06-19T10:05:00Z</time>
      </trkpt>
      <trkpt lat="41.80758" lon="9.21389">
        <ele>1568.4</ele>
        <time>2015-06-19T10:05:08Z</time>
      </trkpt>
      <trkpt lat="41.80761" lon="9.21389">
        <ele>1569.4</ele>
        <time>2015-06-19T10:05:16Z</time>
      </trkpt>
      <trkpt lat="41.80763" lon="9.21389">
        <ele>1570.6</ele>
        <time>2015-06-19T10:05:25Z</time>
      </trkpt>
      <trkpt lat="41.80766" lon="9.21388">
        <ele>1571.8</ele>
        <time>2015-06-19T10:05:37Z</time>
      </trkpt>
      <trkpt lat="41.80768" lon="9.21387">
        <ele>1572.2</ele>
        <time>2015-06-19T10:05:44Z</time>
      </trkpt>
      <trkpt lat="41.8077" lon="9.21387">
        <ele>1573.6</ele>
        <time>2015-06-19T10:05:52Z</time>
      </trkpt>
      <trkpt lat="41.80773" lon="9.21385">
        <ele>1574.6</ele>
        <time>2015-06-19T10:06:01Z</time>
      </trkpt>
      <trkpt lat="41.80775" lon="9.21384">
        <ele>1575.6</ele>
        <time>2015-06-19T10:06:15Z</time>
      </trkpt>
      <trkpt lat="41.80778" lon="9.21384">
        <ele>1576.8</ele>
        <time>2015-06-19T10:06:23Z</time>
      </trkpt>
      <trkpt lat="41.80779" lon="9.21381">
        <ele>1577.8</ele>
        <time>2015-06-19T10:06:33Z</time>
      </trkpt>
      <trkpt lat="41.80778" lon="9.21377">
        <ele>1578.6</ele>
        <time>2015-06-19T10:06:42Z</time>
      </trkpt>
      <trkpt lat="41.8078" lon="9.21375">
        <ele>1579.6</ele>
        <time>2015-06-19T10:06:50Z</time>
      </trkpt>
      <trkpt lat="41.80782" lon="9.21372">
        <ele>1581</ele>
        <time>2015-06-19T10:07:01Z</time>
      </trkpt>
      <trkpt lat="41.80783" lon="9.21368">
        <ele>1581.8</ele>
        <time>2015-06-19T10:07:17Z</time>
      </trkpt>
      <trkpt lat="41.80786" lon="9.21363">
        <ele>1582.8</ele>
        <time>2015-06-19T10:07:29Z</time>
      </trkpt>
      <trkpt lat="41.80789" lon="9.21361">
        <ele>1583.6</ele>
        <time>2015-06-19T10:07:39Z</time>
      </trkpt>
      <trkpt lat="41.8079" lon="9.21362">
        <ele>1584.6</ele>
        <time>2015-06-19T10:07:48Z</time>
      </trkpt>
      <trkpt lat="41.80794" lon="9.21362">
        <ele>1586</ele>
        <time>2015-06-19T10:08:04Z</time>
      </trkpt>
      <trkpt lat="41.80797" lon="9.21363">
        <ele>1587</ele>
        <time>2015-06-19T10:08:14Z</time>
      </trkpt>
      <trkpt lat="41.80797" lon="9.21364">
        <ele>1588</ele>
        <time>2015-06-19T10:08:23Z</time>
      </trkpt>
      <trkpt lat="41.80802" lon="9.21364">
        <ele>1588.8</ele>
        <time>2015-06-19T10:08:36Z</time>
      </trkpt>
      <trkpt lat="41.80805" lon="9.21362">
        <ele>1590</ele>
        <time>2015-06-19T10:08:47Z</time>
      </trkpt>
      <trkpt lat="41.8081" lon="9.21357">
        <ele>1591</ele>
        <time>2015-06-19T10:09:02Z</time>
      </trkpt>
      <trkpt lat="41.80816" lon="9.21355">
        <ele>1592</ele>
        <time>2015-06-19T10:09:14Z</time>
      </trkpt>
      <trkpt lat="41.8082" lon="9.21355">
        <ele>1592.8</ele>
        <time>2015-06-19T10:09:27Z</time>
      </trkpt>
      <trkpt lat="41.80824" lon="9.21356">
        <ele>1593.8</ele>
        <time>2015-06-19T10:09:40Z</time>
      </trkpt>
      <trkpt lat="41.80828" lon="9.21355">
        <ele>1594.8</ele>
        <time>2015-06-19T10:09:51Z</time>
      </trkpt>
      <trkpt lat="41.80831" lon="9.21355">
        <ele>1595.6</ele>
        <time>2015-06-19T10:10:02Z</time>
      </trkpt>
      <trkpt lat="41.80836" lon="9.21356">
        <ele>1596.4</ele>
        <time>2015-06-19T10:10:14Z</time>
      </trkpt>
      <trkpt lat="41.8084" lon="9.21357">
        <ele>1597.8</ele>
        <time>2015-06-19T10:10:25Z</time>
      </trkpt>
      <trkpt lat="41.80843" lon="9.21354">
        <ele>1598.6</ele>
        <time>2015-06-19T10:10:33Z</time>
      </trkpt>
      <trkpt lat="41.80846" lon="9.21355">
        <ele>1599.6</ele>
        <time>2015-06-19T10:10:45Z</time>
      </trkpt>
      <trkpt lat="41.80849" lon="9.21356">
        <ele>1600.6</ele>
        <time>2015-06-19T10:10:54Z</time>
      </trkpt>
      <trkpt lat="41.80853" lon="9.21357">
        <ele>1601.8</ele>
        <time>2015-06-19T10:11:10Z</time>
      </trkpt>
      <trkpt lat="41.80857" lon="9.21358">
        <ele>1602.4</ele>
        <time>2015-06-19T10:11:20Z</time>
      </trkpt>
      <trkpt lat="41.80861" lon="9.21359">
        <ele>1603.6</ele>
        <time>2015-06-19T10:11:29Z</time>
      </trkpt>
      <trkpt lat="41.80865" lon="9.2136">
        <ele>1605</ele>
        <time>2015-06-19T10:11:42Z</time>
      </trkpt>
      <trkpt lat="41.80869" lon="9.21363">
        <ele>1605.8</ele>
        <time>2015-06-19T10:11:55Z</time>
      </trkpt>
      <trkpt lat="41.80874" lon="9.21363">
        <ele>1607</ele>
        <time>2015-06-19T10:12:08Z</time>
      </trkpt>
      <trkpt lat="41.80878" lon="9.21365">
        <ele>1608</ele>
        <time>2015-06-19T10:12:18Z</time>
      </trkpt>
      <trkpt lat="41.80884" lon="9.21366">
        <ele>1608.8</ele>
        <time>2015-06-19T10:12:29Z</time>
      </trkpt>
      <trkpt lat="41.80886" lon="9.21368">
        <ele>1609.8</ele>
        <time>2015-06-19T10:12:39Z</time>
      </trkpt>
      <trkpt lat="41.80889" lon="9.21374">
        <ele>1610.8</ele>
        <time>2015-06-19T10:12:52Z</time>
      </trkpt>
      <trkpt lat="41.80891" lon="9.21379">
        <ele>1611.8</ele>
        <time>2015-06-19T10:13:01Z</time>
      </trkpt>
      <trkpt lat="41.80895" lon="9.21381">
        <ele>1613.2</ele>
        <time>2015-06-19T10:13:22Z</time>
      </trkpt>
      <trkpt lat="41.80897" lon="9.21381">
        <ele>1613.4</ele>
        <time>2015-06-19T10:13:28Z</time>
      </trkpt>
      <trkpt lat="41.809" lon="9.21378">
        <ele>1614.6</ele>
        <time>2015-06-19T10:13:36Z</time>
      </trkpt>
      <trkpt lat="41.80903" lon="9.21379">
        <ele>1615.8</ele>
        <time>2015-06-19T10:13:45Z</time>
      </trkpt>
      <trkpt lat="41.80916" lon="9.21374">
        <ele>1617.2</ele>
        <time>2015-06-19T10:14:23Z</time>
      </trkpt>
      <trkpt lat="41.80923" lon="9.21375">
        <ele>1617.8</ele>
        <time>2015-06-19T10:14:43Z</time>
      </trkpt>
      <trkpt lat="41.80924" lon="9.21376">
        <ele>1618.4</ele>
        <time>2015-06-19T10:14:51Z</time>
      </trkpt>
      <trkpt lat="41.80934" lon="9.21377">
        <ele>1620</ele>
        <time>2015-06-19T10:15:09Z</time>
      </trkpt>
      <trkpt lat="41.80939" lon="9.21379">
        <ele>1620.8</ele>
        <time>2015-06-19T10:15:21Z</time>
      </trkpt>
      <trkpt lat="41.80943" lon="9.21379">
        <ele>1621.4</ele>
        <time>2015-06-19T10:15:30Z</time>
      </trkpt>
      <trkpt lat="41.8095" lon="9.21381">
        <ele>1622.6</ele>
        <time>2015-06-19T10:15:42Z</time>
      </trkpt>
      <trkpt lat="41.80956" lon="9.21381">
        <ele>1623.6</ele>
        <time>2015-06-19T10:15:54Z</time>
      </trkpt>
      <trkpt lat="41.80962" lon="9.2138">
        <ele>1624.4</ele>
        <time>2015-06-19T10:16:05Z</time>
      </trkpt>
      <trkpt lat="41.80966" lon="9.21381">
        <ele>1625.2</ele>
        <time>2015-06-19T10:16:13Z</time>
      </trkpt>
      <trkpt lat="41.80973" lon="9.21382">
        <ele>1626.8</ele>
        <time>2015-06-19T10:16:29Z</time>
      </trkpt>
      <trkpt lat="41.80977" lon="9.21379">
        <ele>1627.4</ele>
        <time>2015-06-19T10:16:38Z</time>
      </trkpt>
      <trkpt lat="41.80983" lon="9.2138">
        <ele>1628.6</ele>
        <time>2015-06-19T10:16:52Z</time>
      </trkpt>
      <trkpt lat="41.80986" lon="9.21383">
        <ele>1629.4</ele>
        <time>2015-06-19T10:17:02Z</time>
      </trkpt>
      <trkpt lat="41.80991" lon="9.21382">
        <ele>1630</ele>
        <time>2015-06-19T10:17:12Z</time>
      </trkpt>
      <trkpt lat="41.80997" lon="9.21382">
        <ele>1631.4</ele>
        <time>2015-06-19T10:17:24Z</time>
      </trkpt>
      <trkpt lat="41.80998" lon="9.2138">
        <ele>1632.2</ele>
        <time>2015-06-19T10:17:32Z</time>
      </trkpt>
      <trkpt lat="41.81003" lon="9.21382">
        <ele>1633.2</ele>
        <time>2015-06-19T10:17:48Z</time>
      </trkpt>
      <trkpt lat="41.8101" lon="9.21383">
        <ele>1634.2</ele>
        <time>2015-06-19T10:18:00Z</time>
      </trkpt>
      <trkpt lat="41.81014" lon="9.21381">
        <ele>1635.2</ele>
        <time>2015-06-19T10:18:13Z</time>
      </trkpt>
      <trkpt lat="41.81019" lon="9.21381">
        <ele>1636.4</ele>
        <time>2015-06-19T10:18:24Z</time>
      </trkpt>
      <trkpt lat="41.81023" lon="9.21377">
        <ele>1637.4</ele>
        <time>2015-06-19T10:18:38Z</time>
      </trkpt>
      <trkpt lat="41.81027" lon="9.21376">
        <ele>1637.8</ele>
        <time>2015-06-19T10:18:45Z</time>
      </trkpt>
      <trkpt lat="41.81034" lon="9.21377">
        <ele>1639.4</ele>
        <time>2015-06-19T10:19:03Z</time>
      </trkpt>
      <trkpt lat="41.81033" lon="9.21377">
        <ele>1639.8</ele>
        <time>2015-06-19T10:19:16Z</time>
      </trkpt>
      <trkpt lat="41.8107" lon="9.21402">
        <ele>1643.4</ele>
        <time>2015-06-19T10:35:57Z</time>
      </trkpt>
      <trkpt lat="41.81076" lon="9.2141">
        <ele>1644</ele>
        <time>2015-06-19T10:36:17Z</time>
      </trkpt>
      <trkpt lat="41.81082" lon="9.21417">
        <ele>1645</ele>
        <time>2015-06-19T10:36:33Z</time>
      </trkpt>
      <trkpt lat="41.81094" lon="9.21429">
        <ele>1646.2</ele>
        <time>2015-06-19T10:37:15Z</time>
      </trkpt>
      <trkpt lat="41.81096" lon="9.21432">
        <ele>1646.8</ele>
        <time>2015-06-19T10:37:24Z</time>
      </trkpt>
      <trkpt lat="41.81114" lon="9.21439">
        <ele>1647.6</ele>
        <time>2015-06-19T10:38:13Z</time>
      </trkpt>
      <trkpt lat="41.81121" lon="9.21438">
        <ele>1646</ele>
        <time>2015-06-19T10:38:23Z</time>
      </trkpt>
      <trkpt lat="41.81136" lon="9.21437">
        <ele>1645</ele>
        <time>2015-06-19T10:38:56Z</time>
      </trkpt>
      <trkpt lat="41.81139" lon="9.21435">
        <ele>1644.2</ele>
        <time>2015-06-19T10:39:14Z</time>
      </trkpt>
      <trkpt lat="41.81142" lon="9.21434">
        <ele>1643.2</ele>
        <time>2015-06-19T10:39:20Z</time>
      </trkpt>
      <trkpt lat="41.81143" lon="9.21434">
        <ele>1643.2</ele>
        <time>2015-06-19T10:39:22Z</time>
      </trkpt>
      <trkpt lat="41.81146" lon="9.21435">
        <ele>1641.8</ele>
        <time>2015-06-19T10:39:30Z</time>
      </trkpt>
      <trkpt lat="41.81144" lon="9.21434">
        <ele>1640.8</ele>
        <time>2015-06-19T10:39:38Z</time>
      </trkpt>
      <trkpt lat="41.81147" lon="9.21433">
        <ele>1639.6</ele>
        <time>2015-06-19T10:39:46Z</time>
      </trkpt>
      <trkpt lat="41.81148" lon="9.21434">
        <ele>1637.8</ele>
        <time>2015-06-19T10:39:57Z</time>
      </trkpt>
      <trkpt lat="41.8115" lon="9.21433">
        <ele>1637</ele>
        <time>2015-06-19T10:40:05Z</time>
      </trkpt>
      <trkpt lat="41.81152" lon="9.2143">
        <ele>1636.2</ele>
        <time>2015-06-19T10:40:13Z</time>
      </trkpt>
      <trkpt lat="41.81151" lon="9.21428">
        <ele>1635</ele>
        <time>2015-06-19T10:40:19Z</time>
      </trkpt>
      <trkpt lat="41.81152" lon="9.21426">
        <ele>1634.4</ele>
        <time>2015-06-19T10:40:24Z</time>
      </trkpt>
      <trkpt lat="41.81156" lon="9.21427">
        <ele>1632.8</ele>
        <time>2015-06-19T10:40:31Z</time>
      </trkpt>
      <trkpt lat="41.81159" lon="9.21425">
        <ele>1631.8</ele>
        <time>2015-06-19T10:40:37Z</time>
      </trkpt>
      <trkpt lat="41.8116" lon="9.21424">
        <ele>1631.6</ele>
        <time>2015-06-19T10:40:38Z</time>
      </trkpt>
      <trkpt lat="41.81163" lon="9.21424">
        <ele>1630.8</ele>
        <time>2015-06-19T10:40:44Z</time>
      </trkpt>
      <trkpt lat="41.81167" lon="9.21424">
        <ele>1629.2</ele>
        <time>2015-06-19T10:40:56Z</time>
      </trkpt>
      <trkpt lat="41.81167" lon="9.2142">
        <ele>1628.4</ele>
        <time>2015-06-19T10:41:02Z</time>
      </trkpt>
      <trkpt lat="41.81168" lon="9.21418">
        <ele>1627.8</ele>
        <time>2015-06-19T10:41:05Z</time>
      </trkpt>
      <trkpt lat="41.81173" lon="9.21418">
        <ele>1625.4</ele>
        <time>2015-06-19T10:41:16Z</time>
      </trkpt>
      <trkpt lat="41.81177" lon="9.2142">
        <ele>1625.2</ele>
        <time>2015-06-19T10:41:22Z</time>
      </trkpt>
      <trkpt lat="41.8118" lon="9.21421">
        <ele>1624.2</ele>
        <time>2015-06-19T10:41:27Z</time>
      </trkpt>
      <trkpt lat="41.81186" lon="9.21423">
        <ele>1622.6</ele>
        <time>2015-06-19T10:41:34Z</time>
      </trkpt>
      <trkpt lat="41.8119" lon="9.21422">
        <ele>1621.4</ele>
        <time>2015-06-19T10:41:41Z</time>
      </trkpt>
      <trkpt lat="41.81191" lon="9.21423">
        <ele>1621.4</ele>
        <time>2015-06-19T10:41:42Z</time>
      </trkpt>
      <trkpt lat="41.81193" lon="9.21421">
        <ele>1620</ele>
        <time>2015-06-19T10:41:52Z</time>
      </trkpt>
      <trkpt lat="41.81192" lon="9.21419">
        <ele>1619.2</ele>
        <time>2015-06-19T10:42:00Z</time>
      </trkpt>
      <trkpt lat="41.81197" lon="9.21416">
        <ele>1617.8</ele>
        <time>2015-06-19T10:42:08Z</time>
      </trkpt>
      <trkpt lat="41.81205" lon="9.21415">
        <ele>1616.4</ele>
        <time>2015-06-19T10:42:17Z</time>
      </trkpt>
      <trkpt lat="41.81208" lon="9.21413">
        <ele>1615.6</ele>
        <time>2015-06-19T10:42:26Z</time>
      </trkpt>
      <trkpt lat="41.81211" lon="9.21412">
        <ele>1615.2</ele>
        <time>2015-06-19T10:42:30Z</time>
      </trkpt>
      <trkpt lat="41.81215" lon="9.21409">
        <ele>1613.6</ele>
        <time>2015-06-19T10:42:38Z</time>
      </trkpt>
      <trkpt lat="41.81242" lon="9.21408">
        <ele>1612.2</ele>
        <time>2015-06-19T10:43:30Z</time>
      </trkpt>
      <trkpt lat="41.81244" lon="9.21405">
        <ele>1611</ele>
        <time>2015-06-19T10:43:38Z</time>
      </trkpt>
      <trkpt lat="41.81246" lon="9.21405">
        <ele>1610.2</ele>
        <time>2015-06-19T10:43:44Z</time>
      </trkpt>
      <trkpt lat="41.81247" lon="9.21403">
        <ele>1608.8</ele>
        <time>2015-06-19T10:43:52Z</time>
      </trkpt>
      <trkpt lat="41.81248" lon="9.21401">
        <ele>1607.4</ele>
        <time>2015-06-19T10:43:59Z</time>
      </trkpt>
      <trkpt lat="41.81246" lon="9.21398">
        <ele>1607</ele>
        <time>2015-06-19T10:44:03Z</time>
      </trkpt>
      <trkpt lat="41.81245" lon="9.21396">
        <ele>1606.6</ele>
        <time>2015-06-19T10:44:05Z</time>
      </trkpt>
      <trkpt lat="41.81241" lon="9.21392">
        <ele>1605.4</ele>
        <time>2015-06-19T10:44:12Z</time>
      </trkpt>
      <trkpt lat="41.81244" lon="9.21389">
        <ele>1604</ele>
        <time>2015-06-19T10:44:21Z</time>
      </trkpt>
      <trkpt lat="41.81249" lon="9.21389">
        <ele>1603</ele>
        <time>2015-06-19T10:44:28Z</time>
      </trkpt>
      <trkpt lat="41.81253" lon="9.21389">
        <ele>1601.8</ele>
        <time>2015-06-19T10:44:36Z</time>
      </trkpt>
      <trkpt lat="41.81252" lon="9.21388">
        <ele>1601.6</ele>
        <time>2015-06-19T10:44:39Z</time>
      </trkpt>
      <trkpt lat="41.81252" lon="9.21386">
        <ele>1600.6</ele>
        <time>2015-06-19T10:44:45Z</time>
      </trkpt>
      <trkpt lat="41.81249" lon="9.21385">
        <ele>1599.6</ele>
        <time>2015-06-19T10:44:52Z</time>
      </trkpt>
      <trkpt lat="41.81245" lon="9.21378">
        <ele>1598.8</ele>
        <time>2015-06-19T10:45:00Z</time>
      </trkpt>
      <trkpt lat="41.81247" lon="9.21377">
        <ele>1597.4</ele>
        <time>2015-06-19T10:45:07Z</time>
      </trkpt>
      <trkpt lat="41.81249" lon="9.21376">
        <ele>1596.2</ele>
        <time>2015-06-19T10:45:15Z</time>
      </trkpt>
      <trkpt lat="41.81248" lon="9.21372">
        <ele>1595.2</ele>
        <time>2015-06-19T10:45:32Z</time>
      </trkpt>
      <trkpt lat="41.81246" lon="9.21369">
        <ele>1593.8</ele>
        <time>2015-06-19T10:45:43Z</time>
      </trkpt>
      <trkpt lat="41.81247" lon="9.21365">
        <ele>1593.4</ele>
        <time>2015-06-19T10:45:47Z</time>
      </trkpt>
      <trkpt lat="41.81251" lon="9.21363">
        <ele>1591.6</ele>
        <time>2015-06-19T10:45:55Z</time>
      </trkpt>
      <trkpt lat="41.81254" lon="9.21362">
        <ele>1590.6</ele>
        <time>2015-06-19T10:46:03Z</time>
      </trkpt>
      <trkpt lat="41.81259" lon="9.21359">
        <ele>1589.6</ele>
        <time>2015-06-19T10:46:10Z</time>
      </trkpt>
      <trkpt lat="41.81261" lon="9.21359">
        <ele>1588.2</ele>
        <time>2015-06-19T10:46:24Z</time>
      </trkpt>
      <trkpt lat="41.81267" lon="9.21359">
        <ele>1587.2</ele>
        <time>2015-06-19T10:46:31Z</time>
      </trkpt>
      <trkpt lat="41.81278" lon="9.21354">
        <ele>1585.2</ele>
        <time>2015-06-19T10:46:55Z</time>
      </trkpt>
      <trkpt lat="41.81278" lon="9.21352">
        <ele>1585.2</ele>
        <time>2015-06-19T10:47:01Z</time>
      </trkpt>
      <trkpt lat="41.81278" lon="9.21348">
        <ele>1583.4</ele>
        <time>2015-06-19T10:47:13Z</time>
      </trkpt>
      <trkpt lat="41.81278" lon="9.21345">
        <ele>1582.6</ele>
        <time>2015-06-19T10:47:20Z</time>
      </trkpt>
      <trkpt lat="41.8128" lon="9.21342">
        <ele>1581.8</ele>
        <time>2015-06-19T10:47:25Z</time>
      </trkpt>
      <trkpt lat="41.81283" lon="9.21338">
        <ele>1580.8</ele>
        <time>2015-06-19T10:47:30Z</time>
      </trkpt>
      <trkpt lat="41.81297" lon="9.21327">
        <ele>1578.8</ele>
        <time>2015-06-19T10:47:53Z</time>
      </trkpt>
      <trkpt lat="41.81304" lon="9.21326">
        <ele>1577.8</ele>
        <time>2015-06-19T10:48:02Z</time>
      </trkpt>
      <trkpt lat="41.81311" lon="9.21323">
        <ele>1576.4</ele>
        <time>2015-06-19T10:48:22Z</time>
      </trkpt>
      <trkpt lat="41.81316" lon="9.21323">
        <ele>1575.2</ele>
        <time>2015-06-19T10:48:31Z</time>
      </trkpt>
      <trkpt lat="41.81324" lon="9.21325">
        <ele>1574.2</ele>
        <time>2015-06-19T10:48:41Z</time>
      </trkpt>
      <trkpt lat="41.81327" lon="9.21323">
        <ele>1574</ele>
        <time>2015-06-19T10:48:44Z</time>
      </trkpt>
      <trkpt lat="41.81331" lon="9.21321">
        <ele>1572.8</ele>
        <time>2015-06-19T10:48:54Z</time>
      </trkpt>
      <trkpt lat="41.81333" lon="9.2132">
        <ele>1572.6</ele>
        <time>2015-06-19T10:48:58Z</time>
      </trkpt>
      <trkpt lat="41.81339" lon="9.21321">
        <ele>1570.8</ele>
        <time>2015-06-19T10:49:07Z</time>
      </trkpt>
      <trkpt lat="41.8135" lon="9.21325">
        <ele>1569.6</ele>
        <time>2015-06-19T10:49:22Z</time>
      </trkpt>
      <trkpt lat="41.81369" lon="9.2134">
        <ele>1569.6</ele>
        <time>2015-06-19T10:49:51Z</time>
      </trkpt>
      <trkpt lat="41.81374" lon="9.21343">
        <ele>1568.8</ele>
        <time>2015-06-19T10:49:57Z</time>
      </trkpt>
      <trkpt lat="41.81385" lon="9.21344">
        <ele>1567.6</ele>
        <time>2015-06-19T10:50:14Z</time>
      </trkpt>
      <trkpt lat="41.81389" lon="9.21341">
        <ele>1566.4</ele>
        <time>2015-06-19T10:50:23Z</time>
      </trkpt>
      <trkpt lat="41.81393" lon="9.21341">
        <ele>1565.6</ele>
        <time>2015-06-19T10:50:31Z</time>
      </trkpt>
      <trkpt lat="41.81396" lon="9.21338">
        <ele>1564.6</ele>
        <time>2015-06-19T10:50:38Z</time>
      </trkpt>
      <trkpt lat="41.81398" lon="9.21337">
        <ele>1564.2</ele>
        <time>2015-06-19T10:50:42Z</time>
      </trkpt>
      <trkpt lat="41.81401" lon="9.21335">
        <ele>1562.8</ele>
        <time>2015-06-19T10:50:48Z</time>
      </trkpt>
      <trkpt lat="41.81404" lon="9.2133">
        <ele>1561.2</ele>
        <time>2015-06-19T10:51:00Z</time>
      </trkpt>
      <trkpt lat="41.81406" lon="9.21326">
        <ele>1560.2</ele>
        <time>2015-06-19T10:51:09Z</time>
      </trkpt>
      <trkpt lat="41.81408" lon="9.21323">
        <ele>1559.4</ele>
        <time>2015-06-19T10:51:15Z</time>
      </trkpt>
      <trkpt lat="41.81411" lon="9.21321">
        <ele>1558.2</ele>
        <time>2015-06-19T10:51:23Z</time>
      </trkpt>
      <trkpt lat="41.81412" lon="9.21318">
        <ele>1557</ele>
        <time>2015-06-19T10:51:36Z</time>
      </trkpt>
      <trkpt lat="41.81411" lon="9.21317">
        <ele>1555.8</ele>
        <time>2015-06-19T10:51:45Z</time>
      </trkpt>
      <trkpt lat="41.8141" lon="9.21312">
        <ele>1555</ele>
        <time>2015-06-19T10:51:58Z</time>
      </trkpt>
      <trkpt lat="41.81412" lon="9.21311">
        <ele>1554.4</ele>
        <time>2015-06-19T10:52:03Z</time>
      </trkpt>
      <trkpt lat="41.8141" lon="9.21306">
        <ele>1552.8</ele>
        <time>2015-06-19T10:52:12Z</time>
      </trkpt>
      <trkpt lat="41.81408" lon="9.21304">
        <ele>1551.8</ele>
        <time>2015-06-19T10:52:21Z</time>
      </trkpt>
      <trkpt lat="41.81408" lon="9.21299">
        <ele>1550.4</ele>
        <time>2015-06-19T10:52:30Z</time>
      </trkpt>
      <trkpt lat="41.81412" lon="9.21294">
        <ele>1549.6</ele>
        <time>2015-06-19T10:52:37Z</time>
      </trkpt>
      <trkpt lat="41.81416" lon="9.21289">
        <ele>1548</ele>
        <time>2015-06-19T10:52:53Z</time>
      </trkpt>
      <trkpt lat="41.81418" lon="9.21284">
        <ele>1547.4</ele>
        <time>2015-06-19T10:53:01Z</time>
      </trkpt>
      <trkpt lat="41.81419" lon="9.21283">
        <ele>1546.6</ele>
        <time>2015-06-19T10:53:07Z</time>
      </trkpt>
      <trkpt lat="41.8142" lon="9.21282">
        <ele>1545.2</ele>
        <time>2015-06-19T10:53:13Z</time>
      </trkpt>
      <trkpt lat="41.81416" lon="9.21278">
        <ele>1543.8</ele>
        <time>2015-06-19T10:53:23Z</time>
      </trkpt>
      <trkpt lat="41.81416" lon="9.21276">
        <ele>1543</ele>
        <time>2015-06-19T10:53:30Z</time>
      </trkpt>
      <trkpt lat="41.81418" lon="9.21275">
        <ele>1542</ele>
        <time>2015-06-19T10:53:35Z</time>
      </trkpt>
      <trkpt lat="41.81424" lon="9.21274">
        <ele>1540.2</ele>
        <time>2015-06-19T10:53:46Z</time>
      </trkpt>
      <trkpt lat="41.81425" lon="9.2127">
        <ele>1539.6</ele>
        <time>2015-06-19T10:53:56Z</time>
      </trkpt>
      <trkpt lat="41.81425" lon="9.21268">
        <ele>1538.4</ele>
        <time>2015-06-19T10:54:04Z</time>
      </trkpt>
      <trkpt lat="41.81425" lon="9.2126">
        <ele>1537</ele>
        <time>2015-06-19T10:54:15Z</time>
      </trkpt>
      <trkpt lat="41.81425" lon="9.21258">
        <ele>1536.8</ele>
        <time>2015-06-19T10:54:17Z</time>
      </trkpt>
      <trkpt lat="41.81426" lon="9.21255">
        <ele>1536.6</ele>
        <time>2015-06-19T10:54:20Z</time>
      </trkpt>
      <trkpt lat="41.81429" lon="9.21251">
        <ele>1535.8</ele>
        <time>2015-06-19T10:54:25Z</time>
      </trkpt>
      <trkpt lat="41.81434" lon="9.21251">
        <ele>1533.8</ele>
        <time>2015-06-19T10:54:33Z</time>
      </trkpt>
      <trkpt lat="41.8144" lon="9.21249">
        <ele>1532.6</ele>
        <time>2015-06-19T10:54:45Z</time>
      </trkpt>
      <trkpt lat="41.81436" lon="9.21245">
        <ele>1531.8</ele>
        <time>2015-06-19T10:54:51Z</time>
      </trkpt>
      <trkpt lat="41.81435" lon="9.21245">
        <ele>1531.8</ele>
        <time>2015-06-19T10:54:52Z</time>
      </trkpt>
      <trkpt lat="41.81434" lon="9.21246">
        <ele>1531.2</ele>
        <time>2015-06-19T10:54:55Z</time>
      </trkpt>
      <trkpt lat="41.81432" lon="9.21246">
        <ele>1530.4</ele>
        <time>2015-06-19T10:54:59Z</time>
      </trkpt>
      <trkpt lat="41.81429" lon="9.21248">
        <ele>1529.6</ele>
        <time>2015-06-19T10:55:07Z</time>
      </trkpt>
      <trkpt lat="41.81427" lon="9.21243">
        <ele>1528.6</ele>
        <time>2015-06-19T10:55:14Z</time>
      </trkpt>
      <trkpt lat="41.81429" lon="9.21242">
        <ele>1527.8</ele>
        <time>2015-06-19T10:55:18Z</time>
      </trkpt>
      <trkpt lat="41.81433" lon="9.2124">
        <ele>1525.8</ele>
        <time>2015-06-19T10:55:33Z</time>
      </trkpt>
      <trkpt lat="41.81435" lon="9.21238">
        <ele>1524.8</ele>
        <time>2015-06-19T10:55:46Z</time>
      </trkpt>
      <trkpt lat="41.81437" lon="9.21235">
        <ele>1523.8</ele>
        <time>2015-06-19T10:55:54Z</time>
      </trkpt>
      <trkpt lat="41.81439" lon="9.21232">
        <ele>1523</ele>
        <time>2015-06-19T10:56:01Z</time>
      </trkpt>
      <trkpt lat="41.8144" lon="9.21231">
        <ele>1522.8</ele>
        <time>2015-06-19T10:56:03Z</time>
      </trkpt>
      <trkpt lat="41.81442" lon="9.21229">
        <ele>1521.8</ele>
        <time>2015-06-19T10:56:09Z</time>
      </trkpt>
      <trkpt lat="41.81444" lon="9.21224">
        <ele>1520.4</ele>
        <time>2015-06-19T10:56:15Z</time>
      </trkpt>
      <trkpt lat="41.81445" lon="9.21224">
        <ele>1518.6</ele>
        <time>2015-06-19T10:56:26Z</time>
      </trkpt>
      <trkpt lat="41.81445" lon="9.2122">
        <ele>1518</ele>
        <time>2015-06-19T10:56:36Z</time>
      </trkpt>
      <trkpt lat="41.81447" lon="9.21218">
        <ele>1517.4</ele>
        <time>2015-06-19T10:56:41Z</time>
      </trkpt>
      <trkpt lat="41.81448" lon="9.21213">
        <ele>1515.8</ele>
        <time>2015-06-19T10:56:47Z</time>
      </trkpt>
      <trkpt lat="41.8145" lon="9.2121">
        <ele>1514.2</ele>
        <time>2015-06-19T10:56:56Z</time>
      </trkpt>
      <trkpt lat="41.81452" lon="9.21204">
        <ele>1513.2</ele>
        <time>2015-06-19T10:57:07Z</time>
      </trkpt>
      <trkpt lat="41.81449" lon="9.212">
        <ele>1512</ele>
        <time>2015-06-19T10:57:25Z</time>
      </trkpt>
      <trkpt lat="41.81447" lon="9.21199">
        <ele>1510.8</ele>
        <time>2015-06-19T10:57:32Z</time>
      </trkpt>
      <trkpt lat="41.81447" lon="9.21196">
        <ele>1510</ele>
        <time>2015-06-19T10:57:38Z</time>
      </trkpt>
      <trkpt lat="41.81446" lon="9.21193">
        <ele>1508.4</ele>
        <time>2015-06-19T10:57:50Z</time>
      </trkpt>
      <trkpt lat="41.81451" lon="9.21191">
        <ele>1507.6</ele>
        <time>2015-06-19T10:57:56Z</time>
      </trkpt>
      <trkpt lat="41.81452" lon="9.21188">
        <ele>1506</ele>
        <time>2015-06-19T10:58:04Z</time>
      </trkpt>
      <trkpt lat="41.81454" lon="9.21182">
        <ele>1504.6</ele>
        <time>2015-06-19T10:58:13Z</time>
      </trkpt>
      <trkpt lat="41.81455" lon="9.2118">
        <ele>1503.8</ele>
        <time>2015-06-19T10:58:19Z</time>
      </trkpt>
      <trkpt lat="41.81453" lon="9.21178">
        <ele>1502.8</ele>
        <time>2015-06-19T10:58:25Z</time>
      </trkpt>
      <trkpt lat="41.81455" lon="9.21174">
        <ele>1501.6</ele>
        <time>2015-06-19T10:58:31Z</time>
      </trkpt>
      <trkpt lat="41.81461" lon="9.2117">
        <ele>1500</ele>
        <time>2015-06-19T10:58:40Z</time>
      </trkpt>
      <trkpt lat="41.81465" lon="9.2117">
        <ele>1499.4</ele>
        <time>2015-06-19T10:58:47Z</time>
      </trkpt>
      <trkpt lat="41.81468" lon="9.21165">
        <ele>1498.2</ele>
        <time>2015-06-19T10:58:53Z</time>
      </trkpt>
      <trkpt lat="41.81469" lon="9.21165">
        <ele>1498</ele>
        <time>2015-06-19T10:58:54Z</time>
      </trkpt>
      <trkpt lat="41.81471" lon="9.21164">
        <ele>1497.2</ele>
        <time>2015-06-19T10:58:59Z</time>
      </trkpt>
      <trkpt lat="41.81475" lon="9.21163">
        <ele>1495.8</ele>
        <time>2015-06-19T10:59:05Z</time>
      </trkpt>
      <trkpt lat="41.8148" lon="9.21163">
        <ele>1494.6</ele>
        <time>2015-06-19T10:59:11Z</time>
      </trkpt>
      <trkpt lat="41.81483" lon="9.21163">
        <ele>1493.6</ele>
        <time>2015-06-19T10:59:16Z</time>
      </trkpt>
      <trkpt lat="41.81485" lon="9.21156">
        <ele>1492</ele>
        <time>2015-06-19T10:59:24Z</time>
      </trkpt>
      <trkpt lat="41.81485" lon="9.21154">
        <ele>1491.6</ele>
        <time>2015-06-19T10:59:26Z</time>
      </trkpt>
      <trkpt lat="41.81484" lon="9.21148">
        <ele>1491</ele>
        <time>2015-06-19T10:59:30Z</time>
      </trkpt>
      <trkpt lat="41.81486" lon="9.21146">
        <ele>1490.6</ele>
        <time>2015-06-19T10:59:32Z</time>
      </trkpt>
      <trkpt lat="41.81488" lon="9.21144">
        <ele>1490.2</ele>
        <time>2015-06-19T10:59:34Z</time>
      </trkpt>
      <trkpt lat="41.81494" lon="9.21136">
        <ele>1488.2</ele>
        <time>2015-06-19T10:59:42Z</time>
      </trkpt>
      <trkpt lat="41.815" lon="9.21132">
        <ele>1486.8</ele>
        <time>2015-06-19T10:59:50Z</time>
      </trkpt>
      <trkpt lat="41.815" lon="9.21128">
        <ele>1485.8</ele>
        <time>2015-06-19T10:59:57Z</time>
      </trkpt>
      <trkpt lat="41.81496" lon="9.21129">
        <ele>1485</ele>
        <time>2015-06-19T11:00:03Z</time>
      </trkpt>
      <trkpt lat="41.81499" lon="9.21127">
        <ele>1483.4</ele>
        <time>2015-06-19T11:00:10Z</time>
      </trkpt>
      <trkpt lat="41.81501" lon="9.21125">
        <ele>1482.4</ele>
        <time>2015-06-19T11:00:19Z</time>
      </trkpt>
      <trkpt lat="41.81504" lon="9.21121">
        <ele>1480.8</ele>
        <time>2015-06-19T11:00:30Z</time>
      </trkpt>
      <trkpt lat="41.81509" lon="9.2112">
        <ele>1480</ele>
        <time>2015-06-19T11:00:36Z</time>
      </trkpt>
      <trkpt lat="41.81511" lon="9.2112">
        <ele>1479.8</ele>
        <time>2015-06-19T11:00:38Z</time>
      </trkpt>
      <trkpt lat="41.81517" lon="9.21123">
        <ele>1478.6</ele>
        <time>2015-06-19T11:00:45Z</time>
      </trkpt>
      <trkpt lat="41.8152" lon="9.21129">
        <ele>1477.4</ele>
        <time>2015-06-19T11:00:53Z</time>
      </trkpt>
      <trkpt lat="41.81524" lon="9.21129">
        <ele>1476.4</ele>
        <time>2015-06-19T11:01:01Z</time>
      </trkpt>
      <trkpt lat="41.81528" lon="9.2113">
        <ele>1475.8</ele>
        <time>2015-06-19T11:01:05Z</time>
      </trkpt>
      <trkpt lat="41.8153" lon="9.21131">
        <ele>1475.4</ele>
        <time>2015-06-19T11:01:07Z</time>
      </trkpt>
      <trkpt lat="41.81536" lon="9.21134">
        <ele>1473.8</ele>
        <time>2015-06-19T11:01:15Z</time>
      </trkpt>
      <trkpt lat="41.81539" lon="9.21133">
        <ele>1473.2</ele>
        <time>2015-06-19T11:01:21Z</time>
      </trkpt>
      <trkpt lat="41.81543" lon="9.21135">
        <ele>1471.8</ele>
        <time>2015-06-19T11:01:27Z</time>
      </trkpt>
      <trkpt lat="41.81545" lon="9.21137">
        <ele>1470.4</ele>
        <time>2015-06-19T11:01:35Z</time>
      </trkpt>
      <trkpt lat="41.81551" lon="9.21141">
        <ele>1469</ele>
        <time>2015-06-19T11:01:44Z</time>
      </trkpt>
      <trkpt lat="41.81556" lon="9.21143">
        <ele>1468</ele>
        <time>2015-06-19T11:01:51Z</time>
      </trkpt>
      <trkpt lat="41.81559" lon="9.21144">
        <ele>1467.2</ele>
        <time>2015-06-19T11:01:57Z</time>
      </trkpt>
      <trkpt lat="41.81561" lon="9.21146">
        <ele>1465.2</ele>
        <time>2015-06-19T11:02:07Z</time>
      </trkpt>
      <trkpt lat="41.81563" lon="9.21145">
        <ele>1464.8</ele>
        <time>2015-06-19T11:02:14Z</time>
      </trkpt>
      <trkpt lat="41.81565" lon="9.21143">
        <ele>1463.4</ele>
        <time>2015-06-19T11:02:22Z</time>
      </trkpt>
      <trkpt lat="41.81569" lon="9.21144">
        <ele>1462.6</ele>
        <time>2015-06-19T11:02:27Z</time>
      </trkpt>
      <trkpt lat="41.81575" lon="9.21146">
        <ele>1461.2</ele>
        <time>2015-06-19T11:02:33Z</time>
      </trkpt>
      <trkpt lat="41.81582" lon="9.21144">
        <ele>1459.8</ele>
        <time>2015-06-19T11:02:41Z</time>
      </trkpt>
      <trkpt lat="41.81589" lon="9.21145">
        <ele>1458.2</ele>
        <time>2015-06-19T11:02:51Z</time>
      </trkpt>
      <trkpt lat="41.81595" lon="9.21146">
        <ele>1457.2</ele>
        <time>2015-06-19T11:03:01Z</time>
      </trkpt>
      <trkpt lat="41.81596" lon="9.2115">
        <ele>1456.2</ele>
        <time>2015-06-19T11:03:10Z</time>
      </trkpt>
      <trkpt lat="41.81599" lon="9.21153">
        <ele>1455</ele>
        <time>2015-06-19T11:03:18Z</time>
      </trkpt>
      <trkpt lat="41.81603" lon="9.21157">
        <ele>1454</ele>
        <time>2015-06-19T11:03:26Z</time>
      </trkpt>
      <trkpt lat="41.81603" lon="9.21156">
        <ele>1453.6</ele>
        <time>2015-06-19T11:03:28Z</time>
      </trkpt>
      <trkpt lat="41.81605" lon="9.21158">
        <ele>1452.8</ele>
        <time>2015-06-19T11:03:35Z</time>
      </trkpt>
      <trkpt lat="41.81607" lon="9.21163">
        <ele>1451.4</ele>
        <time>2015-06-19T11:03:44Z</time>
      </trkpt>
      <trkpt lat="41.8161" lon="9.21162">
        <ele>1450.2</ele>
        <time>2015-06-19T11:03:52Z</time>
      </trkpt>
      <trkpt lat="41.81612" lon="9.21161">
        <ele>1449</ele>
        <time>2015-06-19T11:04:00Z</time>
      </trkpt>
      <trkpt lat="41.81611" lon="9.21161">
        <ele>1447.6</ele>
        <time>2015-06-19T11:04:09Z</time>
      </trkpt>
      <trkpt lat="41.81613" lon="9.2116">
        <ele>1446.6</ele>
        <time>2015-06-19T11:04:17Z</time>
      </trkpt>
      <trkpt lat="41.81616" lon="9.21161">
        <ele>1445.4</ele>
        <time>2015-06-19T11:04:25Z</time>
      </trkpt>
      <trkpt lat="41.81616" lon="9.2116">
        <ele>1444.4</ele>
        <time>2015-06-19T11:04:32Z</time>
      </trkpt>
      <trkpt lat="41.81616" lon="9.21164">
        <ele>1443</ele>
        <time>2015-06-19T11:04:41Z</time>
      </trkpt>
      <trkpt lat="41.81623" lon="9.21172">
        <ele>1441.6</ele>
        <time>2015-06-19T11:04:50Z</time>
      </trkpt>
      <trkpt lat="41.81628" lon="9.21173">
        <ele>1440.2</ele>
        <time>2015-06-19T11:05:05Z</time>
      </trkpt>
      <trkpt lat="41.81628" lon="9.21172">
        <ele>1439.6</ele>
        <time>2015-06-19T11:05:10Z</time>
      </trkpt>
      <trkpt lat="41.81631" lon="9.21173">
        <ele>1438.6</ele>
        <time>2015-06-19T11:05:16Z</time>
      </trkpt>
      <trkpt lat="41.81631" lon="9.21168">
        <ele>1437</ele>
        <time>2015-06-19T11:05:23Z</time>
      </trkpt>
      <trkpt lat="41.81627" lon="9.21159">
        <ele>1434.8</ele>
        <time>2015-06-19T11:05:36Z</time>
      </trkpt>
      <trkpt lat="41.81628" lon="9.21155">
        <ele>1434.6</ele>
        <time>2015-06-19T11:05:44Z</time>
      </trkpt>
      <trkpt lat="41.81632" lon="9.21158">
        <ele>1433.2</ele>
        <time>2015-06-19T11:05:55Z</time>
      </trkpt>
      <trkpt lat="41.81635" lon="9.21159">
        <ele>1433</ele>
        <time>2015-06-19T11:06:00Z</time>
      </trkpt>
      <trkpt lat="41.81638" lon="9.21161">
        <ele>1432.8</ele>
        <time>2015-06-19T11:06:01Z</time>
      </trkpt>
      <trkpt lat="41.8164" lon="9.21156">
        <ele>1432.2</ele>
        <time>2015-06-19T11:06:07Z</time>
      </trkpt>
      <trkpt lat="41.8164" lon="9.2115">
        <ele>1431.2</ele>
        <time>2015-06-19T11:06:12Z</time>
      </trkpt>
      <trkpt lat="41.8164" lon="9.21149">
        <ele>1431</ele>
        <time>2015-06-19T11:06:13Z</time>
      </trkpt>
      <trkpt lat="41.81641" lon="9.21147">
        <ele>1429.8</ele>
        <time>2015-06-19T11:06:19Z</time>
      </trkpt>
      <trkpt lat="41.81639" lon="9.2114">
        <ele>1428</ele>
        <time>2015-06-19T11:06:30Z</time>
      </trkpt>
      <trkpt lat="41.81637" lon="9.21137">
        <ele>1427.2</ele>
        <time>2015-06-19T11:06:39Z</time>
      </trkpt>
      <trkpt lat="41.81636" lon="9.21132">
        <ele>1425.6</ele>
        <time>2015-06-19T11:06:48Z</time>
      </trkpt>
      <trkpt lat="41.81637" lon="9.21125">
        <ele>1424.6</ele>
        <time>2015-06-19T11:06:56Z</time>
      </trkpt>
      <trkpt lat="41.81635" lon="9.2112">
        <ele>1424.2</ele>
        <time>2015-06-19T11:07:01Z</time>
      </trkpt>
      <trkpt lat="41.81638" lon="9.21115">
        <ele>1423.4</ele>
        <time>2015-06-19T11:07:06Z</time>
      </trkpt>
      <trkpt lat="41.81639" lon="9.21113">
        <ele>1423.2</ele>
        <time>2015-06-19T11:07:08Z</time>
      </trkpt>
      <trkpt lat="41.81638" lon="9.21112">
        <ele>1423</ele>
        <time>2015-06-19T11:07:09Z</time>
      </trkpt>
      <trkpt lat="41.81637" lon="9.21109">
        <ele>1422.8</ele>
        <time>2015-06-19T11:07:11Z</time>
      </trkpt>
      <trkpt lat="41.81638" lon="9.21104">
        <ele>1422</ele>
        <time>2015-06-19T11:07:17Z</time>
      </trkpt>
      <trkpt lat="41.81635" lon="9.21098">
        <ele>1421.2</ele>
        <time>2015-06-19T11:07:22Z</time>
      </trkpt>
      <trkpt lat="41.81636" lon="9.21096">
        <ele>1420.6</ele>
        <time>2015-06-19T11:07:25Z</time>
      </trkpt>
      <trkpt lat="41.81637" lon="9.2109">
        <ele>1419.8</ele>
        <time>2015-06-19T11:07:31Z</time>
      </trkpt>
      <trkpt lat="41.81638" lon="9.2109">
        <ele>1419.6</ele>
        <time>2015-06-19T11:07:32Z</time>
      </trkpt>
      <trkpt lat="41.8164" lon="9.21086">
        <ele>1418.6</ele>
        <time>2015-06-19T11:07:38Z</time>
      </trkpt>
      <trkpt lat="41.81641" lon="9.21081">
        <ele>1417.6</ele>
        <time>2015-06-19T11:07:44Z</time>
      </trkpt>
      <trkpt lat="41.81641" lon="9.21077">
        <ele>1416</ele>
        <time>2015-06-19T11:07:51Z</time>
      </trkpt>
      <trkpt lat="41.81644" lon="9.21075">
        <ele>1414.6</ele>
        <time>2015-06-19T11:07:59Z</time>
      </trkpt>
      <trkpt lat="41.81643" lon="9.2107">
        <ele>1413.4</ele>
        <time>2015-06-19T11:08:06Z</time>
      </trkpt>
      <trkpt lat="41.81642" lon="9.21066">
        <ele>1412.6</ele>
        <time>2015-06-19T11:08:12Z</time>
      </trkpt>
      <trkpt lat="41.81642" lon="9.2106">
        <ele>1411</ele>
        <time>2015-06-19T11:08:19Z</time>
      </trkpt>
      <trkpt lat="41.81642" lon="9.21059">
        <ele>1411</ele>
        <time>2015-06-19T11:08:20Z</time>
      </trkpt>
      <trkpt lat="41.81644" lon="9.21056">
        <ele>1410</ele>
        <time>2015-06-19T11:08:26Z</time>
      </trkpt>
      <trkpt lat="41.81644" lon="9.21052">
        <ele>1409</ele>
        <time>2015-06-19T11:08:32Z</time>
      </trkpt>
      <trkpt lat="41.81644" lon="9.2105">
        <ele>1407.8</ele>
        <time>2015-06-19T11:08:37Z</time>
      </trkpt>
      <trkpt lat="41.81642" lon="9.21048">
        <ele>1406.6</ele>
        <time>2015-06-19T11:08:43Z</time>
      </trkpt>
      <trkpt lat="41.81643" lon="9.21048">
        <ele>1405.6</ele>
        <time>2015-06-19T11:08:48Z</time>
      </trkpt>
      <trkpt lat="41.81642" lon="9.21044">
        <ele>1404.2</ele>
        <time>2015-06-19T11:08:54Z</time>
      </trkpt>
      <trkpt lat="41.81638" lon="9.21035">
        <ele>1402</ele>
        <time>2015-06-19T11:09:12Z</time>
      </trkpt>
      <trkpt lat="41.81638" lon="9.21031">
        <ele>1401.4</ele>
        <time>2015-06-19T11:09:19Z</time>
      </trkpt>
      <trkpt lat="41.81641" lon="9.21026">
        <ele>1400.6</ele>
        <time>2015-06-19T11:09:24Z</time>
      </trkpt>
      <trkpt lat="41.81642" lon="9.21026">
        <ele>1400.2</ele>
        <time>2015-06-19T11:09:25Z</time>
      </trkpt>
      <trkpt lat="41.81646" lon="9.21022">
        <ele>1399</ele>
        <time>2015-06-19T11:09:31Z</time>
      </trkpt>
      <trkpt lat="41.81646" lon="9.21021">
        <ele>1398.8</ele>
        <time>2015-06-19T11:09:33Z</time>
      </trkpt>
      <trkpt lat="41.81648" lon="9.21015">
        <ele>1397.6</ele>
        <time>2015-06-19T11:09:40Z</time>
      </trkpt>
      <trkpt lat="41.81649" lon="9.21013">
        <ele>1396</ele>
        <time>2015-06-19T11:09:49Z</time>
      </trkpt>
      <trkpt lat="41.81651" lon="9.21012">
        <ele>1395.4</ele>
        <time>2015-06-19T11:09:56Z</time>
      </trkpt>
      <trkpt lat="41.81655" lon="9.21009">
        <ele>1394.2</ele>
        <time>2015-06-19T11:10:03Z</time>
      </trkpt>
      <trkpt lat="41.81655" lon="9.21006">
        <ele>1392.8</ele>
        <time>2015-06-19T11:10:10Z</time>
      </trkpt>
      <trkpt lat="41.81657" lon="9.21003">
        <ele>1391.6</ele>
        <time>2015-06-19T11:10:17Z</time>
      </trkpt>
      <trkpt lat="41.81665" lon="9.21002">
        <ele>1390</ele>
        <time>2015-06-19T11:10:25Z</time>
      </trkpt>
      <trkpt lat="41.81665" lon="9.21">
        <ele>1389.8</ele>
        <time>2015-06-19T11:10:26Z</time>
      </trkpt>
      <trkpt lat="41.81666" lon="9.20996">
        <ele>1388.8</ele>
        <time>2015-06-19T11:10:32Z</time>
      </trkpt>
      <trkpt lat="41.81672" lon="9.20995">
        <ele>1387.4</ele>
        <time>2015-06-19T11:10:41Z</time>
      </trkpt>
      <trkpt lat="41.81675" lon="9.20993">
        <ele>1386.4</ele>
        <time>2015-06-19T11:10:48Z</time>
      </trkpt>
      <trkpt lat="41.81678" lon="9.2099">
        <ele>1384.6</ele>
        <time>2015-06-19T11:10:58Z</time>
      </trkpt>
      <trkpt lat="41.8168" lon="9.20991">
        <ele>1383.8</ele>
        <time>2015-06-19T11:11:05Z</time>
      </trkpt>
      <trkpt lat="41.81686" lon="9.20993">
        <ele>1382.6</ele>
        <time>2015-06-19T11:11:13Z</time>
      </trkpt>
      <trkpt lat="41.8169" lon="9.20992">
        <ele>1381.4</ele>
        <time>2015-06-19T11:11:20Z</time>
      </trkpt>
      <trkpt lat="41.81689" lon="9.20987">
        <ele>1379.8</ele>
        <time>2015-06-19T11:11:29Z</time>
      </trkpt>
      <trkpt lat="41.8169" lon="9.20982">
        <ele>1378.8</ele>
        <time>2015-06-19T11:11:35Z</time>
      </trkpt>
      <trkpt lat="41.81689" lon="9.20978">
        <ele>1377.4</ele>
        <time>2015-06-19T11:11:41Z</time>
      </trkpt>
      <trkpt lat="41.8169" lon="9.20975">
        <ele>1375.8</ele>
        <time>2015-06-19T11:11:49Z</time>
      </trkpt>
      <trkpt lat="41.8169" lon="9.20971">
        <ele>1374.4</ele>
        <time>2015-06-19T11:11:59Z</time>
      </trkpt>
      <trkpt lat="41.81689" lon="9.20965">
        <ele>1373.8</ele>
        <time>2015-06-19T11:12:04Z</time>
      </trkpt>
      <trkpt lat="41.8169" lon="9.20964">
        <ele>1373.4</ele>
        <time>2015-06-19T11:12:07Z</time>
      </trkpt>
      <trkpt lat="41.8169" lon="9.20961">
        <ele>1372</ele>
        <time>2015-06-19T11:12:13Z</time>
      </trkpt>
      <trkpt lat="41.81692" lon="9.2096">
        <ele>1371.2</ele>
        <time>2015-06-19T11:12:20Z</time>
      </trkpt>
      <trkpt lat="41.81692" lon="9.20958">
        <ele>1370.2</ele>
        <time>2015-06-19T11:12:25Z</time>
      </trkpt>
      <trkpt lat="41.8169" lon="9.20949">
        <ele>1368.6</ele>
        <time>2015-06-19T11:12:32Z</time>
      </trkpt>
      <trkpt lat="41.81691" lon="9.20949">
        <ele>1368.2</ele>
        <time>2015-06-19T11:12:34Z</time>
      </trkpt>
      <trkpt lat="41.81692" lon="9.20947">
        <ele>1368</ele>
        <time>2015-06-19T11:12:36Z</time>
      </trkpt>
      <trkpt lat="41.81694" lon="9.20946">
        <ele>1367</ele>
        <time>2015-06-19T11:12:40Z</time>
      </trkpt>
      <trkpt lat="41.81696" lon="9.20946">
        <ele>1366.2</ele>
        <time>2015-06-19T11:12:46Z</time>
      </trkpt>
      <trkpt lat="41.81698" lon="9.20945">
        <ele>1364.6</ele>
        <time>2015-06-19T11:12:54Z</time>
      </trkpt>
      <trkpt lat="41.81699" lon="9.2094">
        <ele>1363.4</ele>
        <time>2015-06-19T11:13:02Z</time>
      </trkpt>
      <trkpt lat="41.81697" lon="9.20936">
        <ele>1362.6</ele>
        <time>2015-06-19T11:13:07Z</time>
      </trkpt>
      <trkpt lat="41.81696" lon="9.20934">
        <ele>1361.4</ele>
        <time>2015-06-19T11:13:12Z</time>
      </trkpt>
      <trkpt lat="41.81695" lon="9.20924">
        <ele>1359.6</ele>
        <time>2015-06-19T11:13:20Z</time>
      </trkpt>
      <trkpt lat="41.81698" lon="9.20921">
        <ele>1358</ele>
        <time>2015-06-19T11:13:29Z</time>
      </trkpt>
      <trkpt lat="41.81705" lon="9.20918">
        <ele>1356.8</ele>
        <time>2015-06-19T11:13:39Z</time>
      </trkpt>
      <trkpt lat="41.81708" lon="9.20913">
        <ele>1356.2</ele>
        <time>2015-06-19T11:13:44Z</time>
      </trkpt>
      <trkpt lat="41.81709" lon="9.20913">
        <ele>1356</ele>
        <time>2015-06-19T11:13:45Z</time>
      </trkpt>
      <trkpt lat="41.8171" lon="9.20909">
        <ele>1355.2</ele>
        <time>2015-06-19T11:13:49Z</time>
      </trkpt>
      <trkpt lat="41.81711" lon="9.20908">
        <ele>1354.8</ele>
        <time>2015-06-19T11:13:51Z</time>
      </trkpt>
      <trkpt lat="41.81714" lon="9.20907">
        <ele>1353</ele>
        <time>2015-06-19T11:14:00Z</time>
      </trkpt>
      <trkpt lat="41.81716" lon="9.20905">
        <ele>1352</ele>
        <time>2015-06-19T11:14:10Z</time>
      </trkpt>
      <trkpt lat="41.81718" lon="9.20901">
        <ele>1350.8</ele>
        <time>2015-06-19T11:14:16Z</time>
      </trkpt>
      <trkpt lat="41.8172" lon="9.20898">
        <ele>1349.4</ele>
        <time>2015-06-19T11:14:22Z</time>
      </trkpt>
      <trkpt lat="41.81722" lon="9.20898">
        <ele>1349</ele>
        <time>2015-06-19T11:14:24Z</time>
      </trkpt>
      <trkpt lat="41.81722" lon="9.20895">
        <ele>1348.2</ele>
        <time>2015-06-19T11:14:29Z</time>
      </trkpt>
      <trkpt lat="41.81723" lon="9.20891">
        <ele>1347.2</ele>
        <time>2015-06-19T11:14:36Z</time>
      </trkpt>
      <trkpt lat="41.81724" lon="9.20884">
        <ele>1345.6</ele>
        <time>2015-06-19T11:14:43Z</time>
      </trkpt>
      <trkpt lat="41.81724" lon="9.20884">
        <ele>1345.2</ele>
        <time>2015-06-19T11:14:45Z</time>
      </trkpt>
      <trkpt lat="41.81724" lon="9.20882">
        <ele>1344.6</ele>
        <time>2015-06-19T11:14:48Z</time>
      </trkpt>
      <trkpt lat="41.81723" lon="9.2088">
        <ele>1342.6</ele>
        <time>2015-06-19T11:14:56Z</time>
      </trkpt>
      <trkpt lat="41.81726" lon="9.20873">
        <ele>1341.4</ele>
        <time>2015-06-19T11:15:04Z</time>
      </trkpt>
      <trkpt lat="41.81729" lon="9.20872">
        <ele>1340</ele>
        <time>2015-06-19T11:15:13Z</time>
      </trkpt>
      <trkpt lat="41.81733" lon="9.20867">
        <ele>1338.8</ele>
        <time>2015-06-19T11:15:21Z</time>
      </trkpt>
      <trkpt lat="41.81737" lon="9.20861">
        <ele>1338.4</ele>
        <time>2015-06-19T11:15:25Z</time>
      </trkpt>
      <trkpt lat="41.8174" lon="9.20856">
        <ele>1337</ele>
        <time>2015-06-19T11:15:33Z</time>
      </trkpt>
      <trkpt lat="41.81743" lon="9.20855">
        <ele>1336.4</ele>
        <time>2015-06-19T11:15:40Z</time>
      </trkpt>
      <trkpt lat="41.81743" lon="9.20851">
        <ele>1335</ele>
        <time>2015-06-19T11:15:48Z</time>
      </trkpt>
      <trkpt lat="41.81741" lon="9.20846">
        <ele>1333.2</ele>
        <time>2015-06-19T11:15:58Z</time>
      </trkpt>
      <trkpt lat="41.81745" lon="9.20846">
        <ele>1331.6</ele>
        <time>2015-06-19T11:16:26Z</time>
      </trkpt>
      <trkpt lat="41.81744" lon="9.20842">
        <ele>1330.2</ele>
        <time>2015-06-19T11:16:38Z</time>
      </trkpt>
      <trkpt lat="41.81745" lon="9.20839">
        <ele>1329.4</ele>
        <time>2015-06-19T11:16:45Z</time>
      </trkpt>
      <trkpt lat="41.81746" lon="9.20832">
        <ele>1328.2</ele>
        <time>2015-06-19T11:16:53Z</time>
      </trkpt>
      <trkpt lat="41.81751" lon="9.20828">
        <ele>1326.4</ele>
        <time>2015-06-19T11:17:04Z</time>
      </trkpt>
      <trkpt lat="41.81752" lon="9.20826">
        <ele>1325.6</ele>
        <time>2015-06-19T11:17:12Z</time>
      </trkpt>
      <trkpt lat="41.81751" lon="9.20823">
        <ele>1324.6</ele>
        <time>2015-06-19T11:17:19Z</time>
      </trkpt>
      <trkpt lat="41.81758" lon="9.20822">
        <ele>1322.6</ele>
        <time>2015-06-19T11:17:33Z</time>
      </trkpt>
      <trkpt lat="41.81762" lon="9.20821">
        <ele>1322</ele>
        <time>2015-06-19T11:17:39Z</time>
      </trkpt>
      <trkpt lat="41.81761" lon="9.20816">
        <ele>1320.4</ele>
        <time>2015-06-19T11:17:46Z</time>
      </trkpt>
      <trkpt lat="41.81764" lon="9.20816">
        <ele>1318.6</ele>
        <time>2015-06-19T11:17:57Z</time>
      </trkpt>
      <trkpt lat="41.81765" lon="9.20812">
        <ele>1317.4</ele>
        <time>2015-06-19T11:18:15Z</time>
      </trkpt>
      <trkpt lat="41.81765" lon="9.20807">
        <ele>1316.8</ele>
        <time>2015-06-19T11:18:19Z</time>
      </trkpt>
      <trkpt lat="41.81769" lon="9.20803">
        <ele>1314.4</ele>
        <time>2015-06-19T11:18:30Z</time>
      </trkpt>
      <trkpt lat="41.8177" lon="9.20801">
        <ele>1313.2</ele>
        <time>2015-06-19T11:18:39Z</time>
      </trkpt>
      <trkpt lat="41.81772" lon="9.20798">
        <ele>1312.4</ele>
        <time>2015-06-19T11:18:45Z</time>
      </trkpt>
      <trkpt lat="41.81774" lon="9.20795">
        <ele>1311</ele>
        <time>2015-06-19T11:18:53Z</time>
      </trkpt>
      <trkpt lat="41.81775" lon="9.20791">
        <ele>1309.4</ele>
        <time>2015-06-19T11:19:02Z</time>
      </trkpt>
      <trkpt lat="41.81777" lon="9.20789">
        <ele>1308.8</ele>
        <time>2015-06-19T11:19:08Z</time>
      </trkpt>
      <trkpt lat="41.81782" lon="9.20789">
        <ele>1308.2</ele>
        <time>2015-06-19T11:19:12Z</time>
      </trkpt>
      <trkpt lat="41.81783" lon="9.20788">
        <ele>1307.4</ele>
        <time>2015-06-19T11:19:14Z</time>
      </trkpt>
      <trkpt lat="41.81785" lon="9.20785">
        <ele>1306.2</ele>
        <time>2015-06-19T11:19:20Z</time>
      </trkpt>
      <trkpt lat="41.81786" lon="9.20785">
        <ele>1305.8</ele>
        <time>2015-06-19T11:19:22Z</time>
      </trkpt>
      <trkpt lat="41.81785" lon="9.20782">
        <ele>1304.8</ele>
        <time>2015-06-19T11:19:26Z</time>
      </trkpt>
      <trkpt lat="41.81787" lon="9.20782">
        <ele>1303.6</ele>
        <time>2015-06-19T11:19:32Z</time>
      </trkpt>
      <trkpt lat="41.81791" lon="9.20781">
        <ele>1302</ele>
        <time>2015-06-19T11:19:39Z</time>
      </trkpt>
      <trkpt lat="41.81795" lon="9.20778">
        <ele>1300.4</ele>
        <time>2015-06-19T11:19:46Z</time>
      </trkpt>
      <trkpt lat="41.81793" lon="9.20773">
        <ele>1298.6</ele>
        <time>2015-06-19T11:19:57Z</time>
      </trkpt>
      <trkpt lat="41.81785" lon="9.20773">
        <ele>1298.2</ele>
        <time>2015-06-19T11:20:13Z</time>
      </trkpt>
      <trkpt lat="41.81786" lon="9.20775">
        <ele>1298</ele>
        <time>2015-06-19T11:20:26Z</time>
      </trkpt>
      <trkpt lat="41.81793" lon="9.20775">
        <ele>1298.2</ele>
        <time>2015-06-19T11:20:40Z</time>
      </trkpt>
      <trkpt lat="41.81793" lon="9.20774">
        <ele>1296.2</ele>
        <time>2015-06-19T11:20:49Z</time>
      </trkpt>
      <trkpt lat="41.81803" lon="9.20811">
        <ele>1297.8</ele>
        <time>2015-06-19T11:52:53Z</time>
      </trkpt>
      <trkpt lat="41.81804" lon="9.20829">
        <ele>1297</ele>
        <time>2015-06-19T11:53:28Z</time>
      </trkpt>
      <trkpt lat="41.81803" lon="9.20835">
        <ele>1296</ele>
        <time>2015-06-19T11:53:38Z</time>
      </trkpt>
      <trkpt lat="41.81804" lon="9.20847">
        <ele>1295.8</ele>
        <time>2015-06-19T11:54:05Z</time>
      </trkpt>
      <trkpt lat="41.81802" lon="9.20851">
        <ele>1297</ele>
        <time>2015-06-19T11:54:13Z</time>
      </trkpt>
      <trkpt lat="41.818" lon="9.20855">
        <ele>1297.8</ele>
        <time>2015-06-19T11:54:22Z</time>
      </trkpt>
      <trkpt lat="41.81799" lon="9.20861">
        <ele>1299</ele>
        <time>2015-06-19T11:54:30Z</time>
      </trkpt>
      <trkpt lat="41.81798" lon="9.20861">
        <ele>1299.8</ele>
        <time>2015-06-19T11:54:37Z</time>
      </trkpt>
      <trkpt lat="41.818" lon="9.20859">
        <ele>1300</ele>
        <time>2015-06-19T11:54:39Z</time>
      </trkpt>
      <trkpt lat="41.81803" lon="9.20856">
        <ele>1301.2</ele>
        <time>2015-06-19T11:54:48Z</time>
      </trkpt>
      <trkpt lat="41.81809" lon="9.20855">
        <ele>1302.6</ele>
        <time>2015-06-19T11:55:06Z</time>
      </trkpt>
      <trkpt lat="41.81813" lon="9.20859">
        <ele>1303.4</ele>
        <time>2015-06-19T11:55:16Z</time>
      </trkpt>
      <trkpt lat="41.81819" lon="9.20868">
        <ele>1304.6</ele>
        <time>2015-06-19T11:55:30Z</time>
      </trkpt>
      <trkpt lat="41.81816" lon="9.20874">
        <ele>1305.2</ele>
        <time>2015-06-19T11:55:36Z</time>
      </trkpt>
      <trkpt lat="41.81813" lon="9.20875">
        <ele>1305.6</ele>
        <time>2015-06-19T11:55:39Z</time>
      </trkpt>
      <trkpt lat="41.81809" lon="9.20875">
        <ele>1307</ele>
        <time>2015-06-19T11:55:49Z</time>
      </trkpt>
      <trkpt lat="41.81808" lon="9.2088">
        <ele>1307.6</ele>
        <time>2015-06-19T11:56:00Z</time>
      </trkpt>
      <trkpt lat="41.81827" lon="9.20889">
        <ele>1309.6</ele>
        <time>2015-06-19T11:56:47Z</time>
      </trkpt>
      <trkpt lat="41.81832" lon="9.20894">
        <ele>1310.2</ele>
        <time>2015-06-19T11:56:54Z</time>
      </trkpt>
      <trkpt lat="41.81835" lon="9.20896">
        <ele>1310.8</ele>
        <time>2015-06-19T11:56:59Z</time>
      </trkpt>
      <trkpt lat="41.81837" lon="9.20904">
        <ele>1312</ele>
        <time>2015-06-19T11:57:15Z</time>
      </trkpt>
      <trkpt lat="41.81845" lon="9.20929">
        <ele>1313.8</ele>
        <time>2015-06-19T11:57:53Z</time>
      </trkpt>
      <trkpt lat="41.81846" lon="9.20935">
        <ele>1314</ele>
        <time>2015-06-19T11:58:00Z</time>
      </trkpt>
      <trkpt lat="41.81858" lon="9.20937">
        <ele>1314.4</ele>
        <time>2015-06-19T11:58:10Z</time>
      </trkpt>
      <trkpt lat="41.81862" lon="9.20939">
        <ele>1314.6</ele>
        <time>2015-06-19T11:58:14Z</time>
      </trkpt>
      <trkpt lat="41.81865" lon="9.20944">
        <ele>1314.6</ele>
        <time>2015-06-19T11:58:20Z</time>
      </trkpt>
      <trkpt lat="41.81865" lon="9.20945">
        <ele>1314.8</ele>
        <time>2015-06-19T11:58:21Z</time>
      </trkpt>
      <trkpt lat="41.81875" lon="9.20954">
        <ele>1315.6</ele>
        <time>2015-06-19T11:58:37Z</time>
      </trkpt>
      <trkpt lat="41.81903" lon="9.20944">
        <ele>1317.2</ele>
        <time>2015-06-19T11:59:59Z</time>
      </trkpt>
      <trkpt lat="41.81904" lon="9.20946">
        <ele>1317.8</ele>
        <time>2015-06-19T12:00:02Z</time>
      </trkpt>
      <trkpt lat="41.81905" lon="9.20948">
        <ele>1317.8</ele>
        <time>2015-06-19T12:00:03Z</time>
      </trkpt>
      <trkpt lat="41.81907" lon="9.20949">
        <ele>1318.2</ele>
        <time>2015-06-19T12:00:06Z</time>
      </trkpt>
      <trkpt lat="41.81931" lon="9.20948">
        <ele>1318.6</ele>
        <time>2015-06-19T12:00:33Z</time>
      </trkpt>
      <trkpt lat="41.81939" lon="9.20947">
        <ele>1320.2</ele>
        <time>2015-06-19T12:00:46Z</time>
      </trkpt>
      <trkpt lat="41.81953" lon="9.20947">
        <ele>1321.2</ele>
        <time>2015-06-19T12:01:01Z</time>
      </trkpt>
      <trkpt lat="41.81969" lon="9.20948">
        <ele>1322.8</ele>
        <time>2015-06-19T12:01:19Z</time>
      </trkpt>
      <trkpt lat="41.81975" lon="9.20945">
        <ele>1323.6</ele>
        <time>2015-06-19T12:01:27Z</time>
      </trkpt>
      <trkpt lat="41.81988" lon="9.20943">
        <ele>1325.6</ele>
        <time>2015-06-19T12:01:42Z</time>
      </trkpt>
      <trkpt lat="41.81995" lon="9.2095">
        <ele>1326.8</ele>
        <time>2015-06-19T12:01:55Z</time>
      </trkpt>
      <trkpt lat="41.82004" lon="9.20951">
        <ele>1328</ele>
        <time>2015-06-19T12:02:06Z</time>
      </trkpt>
      <trkpt lat="41.82018" lon="9.20946">
        <ele>1330.2</ele>
        <time>2015-06-19T12:02:24Z</time>
      </trkpt>
      <trkpt lat="41.82042" lon="9.20946">
        <ele>1330.4</ele>
        <time>2015-06-19T12:02:51Z</time>
      </trkpt>
      <trkpt lat="41.82074" lon="9.20971">
        <ele>1331.6</ele>
        <time>2015-06-19T12:03:32Z</time>
      </trkpt>
      <trkpt lat="41.82081" lon="9.20976">
        <ele>1332.2</ele>
        <time>2015-06-19T12:03:42Z</time>
      </trkpt>
      <trkpt lat="41.82084" lon="9.20977">
        <ele>1332.2</ele>
        <time>2015-06-19T12:03:46Z</time>
      </trkpt>
      <trkpt lat="41.82085" lon="9.20977">
        <ele>1332.8</ele>
        <time>2015-06-19T12:03:49Z</time>
      </trkpt>
      <trkpt lat="41.82088" lon="9.20978">
        <ele>1333.2</ele>
        <time>2015-06-19T12:03:58Z</time>
      </trkpt>
      <trkpt lat="41.82089" lon="9.20978">
        <ele>1332.6</ele>
        <time>2015-06-19T12:04:05Z</time>
      </trkpt>
      <trkpt lat="41.82099" lon="9.20974">
        <ele>1332.6</ele>
        <time>2015-06-19T12:04:26Z</time>
      </trkpt>
      <trkpt lat="41.82114" lon="9.20976">
        <ele>1333.6</ele>
        <time>2015-06-19T12:04:41Z</time>
      </trkpt>
      <trkpt lat="41.82118" lon="9.20976">
        <ele>1333.6</ele>
        <time>2015-06-19T12:04:44Z</time>
      </trkpt>
      <trkpt lat="41.8215" lon="9.20975">
        <ele>1335</ele>
        <time>2015-06-19T12:05:14Z</time>
      </trkpt>
      <trkpt lat="41.82164" lon="9.20978">
        <ele>1337</ele>
        <time>2015-06-19T12:05:35Z</time>
      </trkpt>
      <trkpt lat="41.82176" lon="9.20978">
        <ele>1338.8</ele>
        <time>2015-06-19T12:05:51Z</time>
      </trkpt>
      <trkpt lat="41.82187" lon="9.2098">
        <ele>1340.4</ele>
        <time>2015-06-19T12:06:08Z</time>
      </trkpt>
      <trkpt lat="41.82194" lon="9.20985">
        <ele>1341.4</ele>
        <time>2015-06-19T12:06:18Z</time>
      </trkpt>
      <trkpt lat="41.82195" lon="9.20986">
        <ele>1341.4</ele>
        <time>2015-06-19T12:06:20Z</time>
      </trkpt>
      <trkpt lat="41.82198" lon="9.20989">
        <ele>1341.8</ele>
        <time>2015-06-19T12:06:24Z</time>
      </trkpt>
      <trkpt lat="41.82208" lon="9.20999">
        <ele>1344.2</ele>
        <time>2015-06-19T12:06:47Z</time>
      </trkpt>
      <trkpt lat="41.82225" lon="9.21015">
        <ele>1346.6</ele>
        <time>2015-06-19T12:07:15Z</time>
      </trkpt>
      <trkpt lat="41.82244" lon="9.21028">
        <ele>1348.8</ele>
        <time>2015-06-19T12:07:43Z</time>
      </trkpt>
      <trkpt lat="41.82281" lon="9.2106">
        <ele>1352.4</ele>
        <time>2015-06-19T12:08:39Z</time>
      </trkpt>
      <trkpt lat="41.82302" lon="9.21089">
        <ele>1353.8</ele>
        <time>2015-06-19T12:09:14Z</time>
      </trkpt>
      <trkpt lat="41.82307" lon="9.21097">
        <ele>1353.4</ele>
        <time>2015-06-19T12:09:23Z</time>
      </trkpt>
      <trkpt lat="41.82309" lon="9.21099">
        <ele>1353.4</ele>
        <time>2015-06-19T12:09:26Z</time>
      </trkpt>
      <trkpt lat="41.82313" lon="9.211">
        <ele>1352.8</ele>
        <time>2015-06-19T12:09:31Z</time>
      </trkpt>
      <trkpt lat="41.82316" lon="9.21103">
        <ele>1352.4</ele>
        <time>2015-06-19T12:09:36Z</time>
      </trkpt>
      <trkpt lat="41.82321" lon="9.21107">
        <ele>1351.2</ele>
        <time>2015-06-19T12:09:46Z</time>
      </trkpt>
      <trkpt lat="41.82323" lon="9.21108">
        <ele>1351</ele>
        <time>2015-06-19T12:09:51Z</time>
      </trkpt>
      <trkpt lat="41.82367" lon="9.21094">
        <ele>1352.6</ele>
        <time>2015-06-19T12:11:01Z</time>
      </trkpt>
      <trkpt lat="41.82371" lon="9.21093">
        <ele>1352.6</ele>
        <time>2015-06-19T12:11:07Z</time>
      </trkpt>
      <trkpt lat="41.8238" lon="9.21095">
        <ele>1352.6</ele>
        <time>2015-06-19T12:11:21Z</time>
      </trkpt>
      <trkpt lat="41.82423" lon="9.21108">
        <ele>1355.2</ele>
        <time>2015-06-19T12:12:07Z</time>
      </trkpt>
      <trkpt lat="41.82462" lon="9.21115">
        <ele>1356.4</ele>
        <time>2015-06-19T12:12:50Z</time>
      </trkpt>
      <trkpt lat="41.82496" lon="9.21132">
        <ele>1358</ele>
        <time>2015-06-19T12:13:33Z</time>
      </trkpt>
      <trkpt lat="41.82515" lon="9.21143">
        <ele>1359</ele>
        <time>2015-06-19T12:13:54Z</time>
      </trkpt>
      <trkpt lat="41.82526" lon="9.21143">
        <ele>1359.2</ele>
        <time>2015-06-19T12:13:59Z</time>
      </trkpt>
      <trkpt lat="41.8256" lon="9.21176">
        <ele>1360.2</ele>
        <time>2015-06-19T12:14:43Z</time>
      </trkpt>
      <trkpt lat="41.82568" lon="9.21177">
        <ele>1359.8</ele>
        <time>2015-06-19T12:14:52Z</time>
      </trkpt>
      <trkpt lat="41.82582" lon="9.21177">
        <ele>1360.2</ele>
        <time>2015-06-19T12:15:11Z</time>
      </trkpt>
      <trkpt lat="41.8259" lon="9.21179">
        <ele>1359.6</ele>
        <time>2015-06-19T12:15:23Z</time>
      </trkpt>
      <trkpt lat="41.82598" lon="9.2118">
        <ele>1359.4</ele>
        <time>2015-06-19T12:15:33Z</time>
      </trkpt>
      <trkpt lat="41.826" lon="9.21181">
        <ele>1359.2</ele>
        <time>2015-06-19T12:15:35Z</time>
      </trkpt>
      <trkpt lat="41.82617" lon="9.2119">
        <ele>1358.6</ele>
        <time>2015-06-19T12:15:50Z</time>
      </trkpt>
      <trkpt lat="41.82653" lon="9.21225">
        <ele>1359</ele>
        <time>2015-06-19T12:16:36Z</time>
      </trkpt>
      <trkpt lat="41.82664" lon="9.21265">
        <ele>1359.8</ele>
        <time>2015-06-19T12:17:08Z</time>
      </trkpt>
      <trkpt lat="41.82668" lon="9.21269">
        <ele>1359.8</ele>
        <time>2015-06-19T12:17:13Z</time>
      </trkpt>
      <trkpt lat="41.82677" lon="9.21278">
        <ele>1360.4</ele>
        <time>2015-06-19T12:17:26Z</time>
      </trkpt>
      <trkpt lat="41.82677" lon="9.2128">
        <ele>1360.6</ele>
        <time>2015-06-19T12:17:28Z</time>
      </trkpt>
      <trkpt lat="41.8268" lon="9.21283">
        <ele>1361</ele>
        <time>2015-06-19T12:17:32Z</time>
      </trkpt>
      <trkpt lat="41.82682" lon="9.21284">
        <ele>1361.2</ele>
        <time>2015-06-19T12:17:35Z</time>
      </trkpt>
      <trkpt lat="41.82706" lon="9.2129">
        <ele>1362.8</ele>
        <time>2015-06-19T12:18:17Z</time>
      </trkpt>
      <trkpt lat="41.82729" lon="9.21295">
        <ele>1364.4</ele>
        <time>2015-06-19T12:19:09Z</time>
      </trkpt>
      <trkpt lat="41.8273" lon="9.21292">
        <ele>1364.2</ele>
        <time>2015-06-19T12:19:14Z</time>
      </trkpt>
      <trkpt lat="41.82731" lon="9.2129">
        <ele>1363.6</ele>
        <time>2015-06-19T12:19:18Z</time>
      </trkpt>
      <trkpt lat="41.82732" lon="9.21287">
        <ele>1362.2</ele>
        <time>2015-06-19T12:19:22Z</time>
      </trkpt>
      <trkpt lat="41.82734" lon="9.21285">
        <ele>1361.4</ele>
        <time>2015-06-19T12:19:27Z</time>
      </trkpt>
      <trkpt lat="41.82734" lon="9.21283">
        <ele>1360</ele>
        <time>2015-06-19T12:19:34Z</time>
      </trkpt>
      <trkpt lat="41.82735" lon="9.2128">
        <ele>1359.4</ele>
        <time>2015-06-19T12:19:39Z</time>
      </trkpt>
      <trkpt lat="41.82734" lon="9.21279">
        <ele>1358.8</ele>
        <time>2015-06-19T12:19:43Z</time>
      </trkpt>
      <trkpt lat="41.82732" lon="9.21276">
        <ele>1356.8</ele>
        <time>2015-06-19T12:19:51Z</time>
      </trkpt>
      <trkpt lat="41.82735" lon="9.21274">
        <ele>1356.4</ele>
        <time>2015-06-19T12:19:56Z</time>
      </trkpt>
      <trkpt lat="41.82738" lon="9.2127">
        <ele>1355.2</ele>
        <time>2015-06-19T12:20:04Z</time>
      </trkpt>
      <trkpt lat="41.82739" lon="9.21268">
        <ele>1354.4</ele>
        <time>2015-06-19T12:20:11Z</time>
      </trkpt>
      <trkpt lat="41.8274" lon="9.21265">
        <ele>1353.2</ele>
        <time>2015-06-19T12:20:23Z</time>
      </trkpt>
      <trkpt lat="41.8274" lon="9.21264">
        <ele>1353</ele>
        <time>2015-06-19T12:20:27Z</time>
      </trkpt>
      <trkpt lat="41.82744" lon="9.2126">
        <ele>1351.4</ele>
        <time>2015-06-19T12:20:34Z</time>
      </trkpt>
      <trkpt lat="41.82743" lon="9.21259">
        <ele>1351</ele>
        <time>2015-06-19T12:20:36Z</time>
      </trkpt>
      <trkpt lat="41.82743" lon="9.21257">
        <ele>1351</ele>
        <time>2015-06-19T12:20:40Z</time>
      </trkpt>
      <trkpt lat="41.82744" lon="9.21255">
        <ele>1350.2</ele>
        <time>2015-06-19T12:20:45Z</time>
      </trkpt>
      <trkpt lat="41.82744" lon="9.21253">
        <ele>1348.8</ele>
        <time>2015-06-19T12:20:51Z</time>
      </trkpt>
      <trkpt lat="41.82745" lon="9.2125">
        <ele>1348</ele>
        <time>2015-06-19T12:20:57Z</time>
      </trkpt>
      <trkpt lat="41.82747" lon="9.21247">
        <ele>1347.2</ele>
        <time>2015-06-19T12:21:02Z</time>
      </trkpt>
      <trkpt lat="41.8275" lon="9.21245">
        <ele>1346.2</ele>
        <time>2015-06-19T12:21:07Z</time>
      </trkpt>
      <trkpt lat="41.82751" lon="9.21242">
        <ele>1344.6</ele>
        <time>2015-06-19T12:21:15Z</time>
      </trkpt>
      <trkpt lat="41.82754" lon="9.21241">
        <ele>1344.2</ele>
        <time>2015-06-19T12:21:20Z</time>
      </trkpt>
      <trkpt lat="41.82755" lon="9.21242">
        <ele>1342.8</ele>
        <time>2015-06-19T12:21:27Z</time>
      </trkpt>
      <trkpt lat="41.82753" lon="9.21241">
        <ele>1342.2</ele>
        <time>2015-06-19T12:21:32Z</time>
      </trkpt>
      <trkpt lat="41.82756" lon="9.21231">
        <ele>1340.6</ele>
        <time>2015-06-19T12:21:46Z</time>
      </trkpt>
      <trkpt lat="41.82758" lon="9.21227">
        <ele>1340.4</ele>
        <time>2015-06-19T12:21:51Z</time>
      </trkpt>
      <trkpt lat="41.82758" lon="9.21224">
        <ele>1340</ele>
        <time>2015-06-19T12:21:55Z</time>
      </trkpt>
      <trkpt lat="41.82758" lon="9.2122">
        <ele>1339.2</ele>
        <time>2015-06-19T12:22:01Z</time>
      </trkpt>
      <trkpt lat="41.8276" lon="9.2122">
        <ele>1338.6</ele>
        <time>2015-06-19T12:22:06Z</time>
      </trkpt>
      <trkpt lat="41.82764" lon="9.21221">
        <ele>1337.6</ele>
        <time>2015-06-19T12:22:12Z</time>
      </trkpt>
      <trkpt lat="41.82788" lon="9.21213">
        <ele>1336.2</ele>
        <time>2015-06-19T12:22:38Z</time>
      </trkpt>
      <trkpt lat="41.82797" lon="9.21208">
        <ele>1335</ele>
        <time>2015-06-19T12:22:48Z</time>
      </trkpt>
      <trkpt lat="41.82799" lon="9.21205">
        <ele>1334.6</ele>
        <time>2015-06-19T12:22:57Z</time>
      </trkpt>
      <trkpt lat="41.82803" lon="9.21195">
        <ele>1333.2</ele>
        <time>2015-06-19T12:23:09Z</time>
      </trkpt>
      <trkpt lat="41.82803" lon="9.21192">
        <ele>1332.6</ele>
        <time>2015-06-19T12:23:16Z</time>
      </trkpt>
      <trkpt lat="41.8281" lon="9.21185">
        <ele>1331.6</ele>
        <time>2015-06-19T12:23:28Z</time>
      </trkpt>
      <trkpt lat="41.8282" lon="9.21179">
        <ele>1330.6</ele>
        <time>2015-06-19T12:23:41Z</time>
      </trkpt>
      <trkpt lat="41.82839" lon="9.21186">
        <ele>1329.6</ele>
        <time>2015-06-19T12:24:11Z</time>
      </trkpt>
      <trkpt lat="41.82841" lon="9.21186">
        <ele>1329.4</ele>
        <time>2015-06-19T12:24:16Z</time>
      </trkpt>
      <trkpt lat="41.82844" lon="9.21187">
        <ele>1328.4</ele>
        <time>2015-06-19T12:24:22Z</time>
      </trkpt>
      <trkpt lat="41.82857" lon="9.21188">
        <ele>1327.2</ele>
        <time>2015-06-19T12:24:38Z</time>
      </trkpt>
      <trkpt lat="41.82862" lon="9.21188">
        <ele>1327</ele>
        <time>2015-06-19T12:24:43Z</time>
      </trkpt>
      <trkpt lat="41.82862" lon="9.21188">
        <ele>1326.4</ele>
        <time>2015-06-19T12:24:45Z</time>
      </trkpt>
      <trkpt lat="41.82863" lon="9.21187">
        <ele>1326.4</ele>
        <time>2015-06-19T12:24:46Z</time>
      </trkpt>
      <trkpt lat="41.82872" lon="9.21191">
        <ele>1325.2</ele>
        <time>2015-06-19T12:25:01Z</time>
      </trkpt>
      <trkpt lat="41.82874" lon="9.21191">
        <ele>1325.2</ele>
        <time>2015-06-19T12:25:03Z</time>
      </trkpt>
      <trkpt lat="41.82875" lon="9.21191">
        <ele>1325.2</ele>
        <time>2015-06-19T12:25:04Z</time>
      </trkpt>
      <trkpt lat="41.82876" lon="9.21191">
        <ele>1325.2</ele>
        <time>2015-06-19T12:25:05Z</time>
      </trkpt>
      <trkpt lat="41.82877" lon="9.21192">
        <ele>1325.2</ele>
        <time>2015-06-19T12:25:07Z</time>
      </trkpt>
      <trkpt lat="41.82887" lon="9.21195">
        <ele>1324.8</ele>
        <time>2015-06-19T12:25:18Z</time>
      </trkpt>
      <trkpt lat="41.82892" lon="9.21195">
        <ele>1324.8</ele>
        <time>2015-06-19T12:25:21Z</time>
      </trkpt>
      <trkpt lat="41.82895" lon="9.21196">
        <ele>1324.8</ele>
        <time>2015-06-19T12:25:23Z</time>
      </trkpt>
      <trkpt lat="41.82897" lon="9.21196">
        <ele>1324.8</ele>
        <time>2015-06-19T12:25:24Z</time>
      </trkpt>
      <trkpt lat="41.829" lon="9.21198">
        <ele>1324.4</ele>
        <time>2015-06-19T12:25:29Z</time>
      </trkpt>
      <trkpt lat="41.82907" lon="9.21199">
        <ele>1322.6</ele>
        <time>2015-06-19T12:25:38Z</time>
      </trkpt>
      <trkpt lat="41.82906" lon="9.21202">
        <ele>1322</ele>
        <time>2015-06-19T12:25:50Z</time>
      </trkpt>
      <trkpt lat="41.82909" lon="9.21205">
        <ele>1321.6</ele>
        <time>2015-06-19T12:25:55Z</time>
      </trkpt>
      <trkpt lat="41.82913" lon="9.21207">
        <ele>1320.2</ele>
        <time>2015-06-19T12:26:02Z</time>
      </trkpt>
      <trkpt lat="41.82916" lon="9.21207">
        <ele>1319.4</ele>
        <time>2015-06-19T12:26:09Z</time>
      </trkpt>
      <trkpt lat="41.82917" lon="9.21207">
        <ele>1318.6</ele>
        <time>2015-06-19T12:26:13Z</time>
      </trkpt>
      <trkpt lat="41.82918" lon="9.2121">
        <ele>1317.8</ele>
        <time>2015-06-19T12:26:18Z</time>
      </trkpt>
      <trkpt lat="41.82922" lon="9.21212">
        <ele>1316.6</ele>
        <time>2015-06-19T12:26:23Z</time>
      </trkpt>
      <trkpt lat="41.82926" lon="9.21215">
        <ele>1315.2</ele>
        <time>2015-06-19T12:26:33Z</time>
      </trkpt>
      <trkpt lat="41.82928" lon="9.21217">
        <ele>1314.4</ele>
        <time>2015-06-19T12:26:39Z</time>
      </trkpt>
      <trkpt lat="41.8293" lon="9.21218">
        <ele>1313.4</ele>
        <time>2015-06-19T12:26:48Z</time>
      </trkpt>
      <trkpt lat="41.82934" lon="9.21219">
        <ele>1312.2</ele>
        <time>2015-06-19T12:26:55Z</time>
      </trkpt>
      <trkpt lat="41.82936" lon="9.21223">
        <ele>1311.4</ele>
        <time>2015-06-19T12:27:03Z</time>
      </trkpt>
      <trkpt lat="41.82942" lon="9.21228">
        <ele>1311.2</ele>
        <time>2015-06-19T12:27:07Z</time>
      </trkpt>
      <trkpt lat="41.82946" lon="9.2123">
        <ele>1310.4</ele>
        <time>2015-06-19T12:27:11Z</time>
      </trkpt>
      <trkpt lat="41.82951" lon="9.21231">
        <ele>1310</ele>
        <time>2015-06-19T12:27:16Z</time>
      </trkpt>
      <trkpt lat="41.82953" lon="9.2123">
        <ele>1310</ele>
        <time>2015-06-19T12:27:17Z</time>
      </trkpt>
      <trkpt lat="41.82954" lon="9.2123">
        <ele>1310</ele>
        <time>2015-06-19T12:27:18Z</time>
      </trkpt>
      <trkpt lat="41.82956" lon="9.2123">
        <ele>1310</ele>
        <time>2015-06-19T12:27:20Z</time>
      </trkpt>
      <trkpt lat="41.82961" lon="9.21229">
        <ele>1310</ele>
        <time>2015-06-19T12:27:24Z</time>
      </trkpt>
      <trkpt lat="41.82963" lon="9.21229">
        <ele>1310</ele>
        <time>2015-06-19T12:27:26Z</time>
      </trkpt>
      <trkpt lat="41.82969" lon="9.21231">
        <ele>1309.6</ele>
        <time>2015-06-19T12:27:33Z</time>
      </trkpt>
      <trkpt lat="41.82975" lon="9.21241">
        <ele>1309.6</ele>
        <time>2015-06-19T12:27:44Z</time>
      </trkpt>
      <trkpt lat="41.82976" lon="9.21242">
        <ele>1309.8</ele>
        <time>2015-06-19T12:28:05Z</time>
      </trkpt>
      <trkpt lat="41.82986" lon="9.21234">
        <ele>1309.6</ele>
        <time>2015-06-19T12:29:01Z</time>
      </trkpt>
      <trkpt lat="41.82985" lon="9.21234">
        <ele>1310.2</ele>
        <time>2015-06-19T12:29:06Z</time>
      </trkpt>
      <trkpt lat="41.82984" lon="9.2124">
        <ele>1311.4</ele>
        <time>2015-06-19T12:29:14Z</time>
      </trkpt>
      <trkpt lat="41.82984" lon="9.21237">
        <ele>1313</ele>
        <time>2015-06-19T12:29:27Z</time>
      </trkpt>
      <trkpt lat="41.83004" lon="9.21239">
        <ele>1315.2</ele>
        <time>2015-06-19T12:30:09Z</time>
      </trkpt>
      <trkpt lat="41.83006" lon="9.21239">
        <ele>1316</ele>
        <time>2015-06-19T12:30:19Z</time>
      </trkpt>
      <trkpt lat="41.83014" lon="9.21235">
        <ele>1317</ele>
        <time>2015-06-19T12:30:27Z</time>
      </trkpt>
      <trkpt lat="41.83021" lon="9.21238">
        <ele>1318.6</ele>
        <time>2015-06-19T12:30:40Z</time>
      </trkpt>
      <trkpt lat="41.83029" lon="9.21237">
        <ele>1320.2</ele>
        <time>2015-06-19T12:30:58Z</time>
      </trkpt>
      <trkpt lat="41.83031" lon="9.21237">
        <ele>1321.2</ele>
        <time>2015-06-19T12:31:09Z</time>
      </trkpt>
      <trkpt lat="41.83033" lon="9.21236">
        <ele>1321.8</ele>
        <time>2015-06-19T12:31:13Z</time>
      </trkpt>
      <trkpt lat="41.8307" lon="9.2125">
        <ele>1322.8</ele>
        <time>2015-06-19T12:31:51Z</time>
      </trkpt>
      <trkpt lat="41.83099" lon="9.21264">
        <ele>1323</ele>
        <time>2015-06-19T12:32:25Z</time>
      </trkpt>
      <trkpt lat="41.831" lon="9.21265">
        <ele>1323</ele>
        <time>2015-06-19T12:32:27Z</time>
      </trkpt>
      <trkpt lat="41.83115" lon="9.21284">
        <ele>1322.4</ele>
        <time>2015-06-19T12:32:49Z</time>
      </trkpt>
      <trkpt lat="41.83118" lon="9.2129">
        <ele>1322.2</ele>
        <time>2015-06-19T12:32:56Z</time>
      </trkpt>
      <trkpt lat="41.83123" lon="9.21297">
        <ele>1320.8</ele>
        <time>2015-06-19T12:33:05Z</time>
      </trkpt>
      <trkpt lat="41.83123" lon="9.21299">
        <ele>1320.8</ele>
        <time>2015-06-19T12:33:07Z</time>
      </trkpt>
      <trkpt lat="41.83122" lon="9.21302">
        <ele>1320.6</ele>
        <time>2015-06-19T12:33:11Z</time>
      </trkpt>
      <trkpt lat="41.83119" lon="9.21309">
        <ele>1319.2</ele>
        <time>2015-06-19T12:33:19Z</time>
      </trkpt>
      <trkpt lat="41.83119" lon="9.21318">
        <ele>1317.8</ele>
        <time>2015-06-19T12:33:29Z</time>
      </trkpt>
      <trkpt lat="41.83118" lon="9.2132">
        <ele>1317.8</ele>
        <time>2015-06-19T12:33:31Z</time>
      </trkpt>
      <trkpt lat="41.83121" lon="9.2132">
        <ele>1317.8</ele>
        <time>2015-06-19T12:33:33Z</time>
      </trkpt>
      <trkpt lat="41.83123" lon="9.2132">
        <ele>1317.8</ele>
        <time>2015-06-19T12:33:36Z</time>
      </trkpt>
      <trkpt lat="41.83142" lon="9.21322">
        <ele>1318</ele>
        <time>2015-06-19T12:34:09Z</time>
      </trkpt>
      <trkpt lat="41.83155" lon="9.21318">
        <ele>1316.6</ele>
        <time>2015-06-19T12:34:30Z</time>
      </trkpt>
      <trkpt lat="41.83155" lon="9.21319">
        <ele>1316.6</ele>
        <time>2015-06-19T12:34:35Z</time>
      </trkpt>
      <trkpt lat="41.83159" lon="9.21319">
        <ele>1315.4</ele>
        <time>2015-06-19T12:34:41Z</time>
      </trkpt>
      <trkpt lat="41.83162" lon="9.21318">
        <ele>1314.4</ele>
        <time>2015-06-19T12:34:49Z</time>
      </trkpt>
      <trkpt lat="41.83167" lon="9.21316">
        <ele>1313.2</ele>
        <time>2015-06-19T12:35:02Z</time>
      </trkpt>
      <trkpt lat="41.83167" lon="9.21316">
        <ele>1312</ele>
        <time>2015-06-19T12:35:16Z</time>
      </trkpt>
      <trkpt lat="41.83164" lon="9.21319">
        <ele>1312</ele>
        <time>2015-06-19T12:35:38Z</time>
      </trkpt>
      <trkpt lat="41.83171" lon="9.21323">
        <ele>1310.6</ele>
        <time>2015-06-19T12:35:53Z</time>
      </trkpt>
      <trkpt lat="41.83176" lon="9.21323">
        <ele>1310.2</ele>
        <time>2015-06-19T12:35:58Z</time>
      </trkpt>
      <trkpt lat="41.8318" lon="9.21324">
        <ele>1310</ele>
        <time>2015-06-19T12:36:02Z</time>
      </trkpt>
      <trkpt lat="41.83182" lon="9.21326">
        <ele>1309.8</ele>
        <time>2015-06-19T12:36:04Z</time>
      </trkpt>
      <trkpt lat="41.83188" lon="9.21323">
        <ele>1310</ele>
        <time>2015-06-19T12:36:23Z</time>
      </trkpt>
      <trkpt lat="41.8319" lon="9.21322">
        <ele>1308.8</ele>
        <time>2015-06-19T12:36:32Z</time>
      </trkpt>
      <trkpt lat="41.83185" lon="9.21329">
        <ele>1308</ele>
        <time>2015-06-19T12:36:49Z</time>
      </trkpt>
      <trkpt lat="41.83187" lon="9.21328">
        <ele>1307.8</ele>
        <time>2015-06-19T12:36:51Z</time>
      </trkpt>
      <trkpt lat="41.83187" lon="9.21328">
        <ele>1307.6</ele>
        <time>2015-06-19T12:36:57Z</time>
      </trkpt>
      <trkpt lat="41.83194" lon="9.21325">
        <ele>1306.6</ele>
        <time>2015-06-19T12:37:05Z</time>
      </trkpt>
      <trkpt lat="41.83196" lon="9.21324">
        <ele>1306.4</ele>
        <time>2015-06-19T12:37:07Z</time>
      </trkpt>
      <trkpt lat="41.832" lon="9.21324">
        <ele>1306</ele>
        <time>2015-06-19T12:37:11Z</time>
      </trkpt>
      <trkpt lat="41.83203" lon="9.21321">
        <ele>1305.2</ele>
        <time>2015-06-19T12:37:18Z</time>
      </trkpt>
      <trkpt lat="41.83212" lon="9.21326">
        <ele>1304.6</ele>
        <time>2015-06-19T12:37:46Z</time>
      </trkpt>
      <trkpt lat="41.83212" lon="9.21325">
        <ele>1303.6</ele>
        <time>2015-06-19T12:37:54Z</time>
      </trkpt>
      <trkpt lat="41.83216" lon="9.21328">
        <ele>1302.8</ele>
        <time>2015-06-19T12:38:02Z</time>
      </trkpt>
      <trkpt lat="41.83218" lon="9.2133">
        <ele>1302</ele>
        <time>2015-06-19T12:38:08Z</time>
      </trkpt>
      <trkpt lat="41.83226" lon="9.21328">
        <ele>1301</ele>
        <time>2015-06-19T12:38:14Z</time>
      </trkpt>
      <trkpt lat="41.8323" lon="9.21327">
        <ele>1300.6</ele>
        <time>2015-06-19T12:38:19Z</time>
      </trkpt>
      <trkpt lat="41.83235" lon="9.21338">
        <ele>1299.8</ele>
        <time>2015-06-19T12:38:37Z</time>
      </trkpt>
      <trkpt lat="41.8324" lon="9.21349">
        <ele>1300.4</ele>
        <time>2015-06-19T12:38:54Z</time>
      </trkpt>
      <trkpt lat="41.83238" lon="9.21352">
        <ele>1300.6</ele>
        <time>2015-06-19T12:38:56Z</time>
      </trkpt>
      <trkpt lat="41.8324" lon="9.21355">
        <ele>1301.4</ele>
        <time>2015-06-19T12:39:02Z</time>
      </trkpt>
      <trkpt lat="41.83244" lon="9.21362">
        <ele>1302.6</ele>
        <time>2015-06-19T12:39:12Z</time>
      </trkpt>
      <trkpt lat="41.83245" lon="9.21363">
        <ele>1302.6</ele>
        <time>2015-06-19T12:39:13Z</time>
      </trkpt>
      <trkpt lat="41.83246" lon="9.21368">
        <ele>1303.4</ele>
        <time>2015-06-19T12:39:18Z</time>
      </trkpt>
      <trkpt lat="41.83248" lon="9.21372">
        <ele>1303.8</ele>
        <time>2015-06-19T12:39:21Z</time>
      </trkpt>
      <trkpt lat="41.8325" lon="9.21377">
        <ele>1304.8</ele>
        <time>2015-06-19T12:39:28Z</time>
      </trkpt>
      <trkpt lat="41.8325" lon="9.21382">
        <ele>1305.2</ele>
        <time>2015-06-19T12:39:34Z</time>
      </trkpt>
      <trkpt lat="41.83258" lon="9.2139">
        <ele>1306.4</ele>
        <time>2015-06-19T12:39:48Z</time>
      </trkpt>
      <trkpt lat="41.8326" lon="9.2139">
        <ele>1306.4</ele>
        <time>2015-06-19T12:39:50Z</time>
      </trkpt>
      <trkpt lat="41.83262" lon="9.2139">
        <ele>1306.6</ele>
        <time>2015-06-19T12:39:52Z</time>
      </trkpt>
      <trkpt lat="41.83264" lon="9.2139">
        <ele>1307</ele>
        <time>2015-06-19T12:39:54Z</time>
      </trkpt>
      <trkpt lat="41.83268" lon="9.21392">
        <ele>1307.4</ele>
        <time>2015-06-19T12:39:59Z</time>
      </trkpt>
      <trkpt lat="41.83276" lon="9.214">
        <ele>1307.4</ele>
        <time>2015-06-19T12:40:20Z</time>
      </trkpt>
      <trkpt lat="41.83276" lon="9.214">
        <ele>1307.6</ele>
        <time>2015-06-19T12:40:21Z</time>
      </trkpt>
      <trkpt lat="41.83277" lon="9.214">
        <ele>1307.8</ele>
        <time>2015-06-19T12:40:23Z</time>
      </trkpt>
      <trkpt lat="41.83284" lon="9.21402">
        <ele>1308.6</ele>
        <time>2015-06-19T12:40:32Z</time>
      </trkpt>
      <trkpt lat="41.83285" lon="9.21402">
        <ele>1308.6</ele>
        <time>2015-06-19T12:40:33Z</time>
      </trkpt>
      <trkpt lat="41.83289" lon="9.21401">
        <ele>1309</ele>
        <time>2015-06-19T12:40:36Z</time>
      </trkpt>
      <trkpt lat="41.83292" lon="9.21404">
        <ele>1309.2</ele>
        <time>2015-06-19T12:40:41Z</time>
      </trkpt>
      <trkpt lat="41.83292" lon="9.21406">
        <ele>1309.4</ele>
        <time>2015-06-19T12:40:43Z</time>
      </trkpt>
      <trkpt lat="41.83293" lon="9.21413">
        <ele>1310.6</ele>
        <time>2015-06-19T12:40:52Z</time>
      </trkpt>
      <trkpt lat="41.83294" lon="9.21416">
        <ele>1311.2</ele>
        <time>2015-06-19T12:40:56Z</time>
      </trkpt>
      <trkpt lat="41.83313" lon="9.21419">
        <ele>1311.6</ele>
        <time>2015-06-19T12:41:17Z</time>
      </trkpt>
      <trkpt lat="41.83326" lon="9.21424">
        <ele>1311.6</ele>
        <time>2015-06-19T12:41:37Z</time>
      </trkpt>
      <trkpt lat="41.83344" lon="9.21428">
        <ele>1311.4</ele>
        <time>2015-06-19T12:42:03Z</time>
      </trkpt>
      <trkpt lat="41.83349" lon="9.21428">
        <ele>1311</ele>
        <time>2015-06-19T12:42:08Z</time>
      </trkpt>
      <trkpt lat="41.83348" lon="9.21431">
        <ele>1311</ele>
        <time>2015-06-19T12:42:11Z</time>
      </trkpt>
      <trkpt lat="41.8335" lon="9.21434">
        <ele>1311</ele>
        <time>2015-06-19T12:42:14Z</time>
      </trkpt>
      <trkpt lat="41.8335" lon="9.21435">
        <ele>1311.2</ele>
        <time>2015-06-19T12:42:16Z</time>
      </trkpt>
      <trkpt lat="41.83357" lon="9.21443">
        <ele>1313</ele>
        <time>2015-06-19T12:42:29Z</time>
      </trkpt>
      <trkpt lat="41.83363" lon="9.21446">
        <ele>1314.2</ele>
        <time>2015-06-19T12:42:55Z</time>
      </trkpt>
      <trkpt lat="41.83376" lon="9.21452">
        <ele>1315.2</ele>
        <time>2015-06-19T12:43:15Z</time>
      </trkpt>
      <trkpt lat="41.83383" lon="9.21456">
        <ele>1315.4</ele>
        <time>2015-06-19T12:43:29Z</time>
      </trkpt>
      <trkpt lat="41.83387" lon="9.21458">
        <ele>1316.8</ele>
        <time>2015-06-19T12:43:41Z</time>
      </trkpt>
      <trkpt lat="41.83417" lon="9.21453">
        <ele>1317.2</ele>
        <time>2015-06-19T12:44:42Z</time>
      </trkpt>
      <trkpt lat="41.83428" lon="9.21459">
        <ele>1316.4</ele>
        <time>2015-06-19T12:45:12Z</time>
      </trkpt>
      <trkpt lat="41.83458" lon="9.21446">
        <ele>1316.2</ele>
        <time>2015-06-19T12:46:05Z</time>
      </trkpt>
      <trkpt lat="41.83475" lon="9.21438">
        <ele>1315.6</ele>
        <time>2015-06-19T12:46:58Z</time>
      </trkpt>
      <trkpt lat="41.83472" lon="9.21443">
        <ele>1315.6</ele>
        <time>2015-06-19T12:47:06Z</time>
      </trkpt>
      <trkpt lat="41.8347" lon="9.21444">
        <ele>1315.8</ele>
        <time>2015-06-19T12:47:08Z</time>
      </trkpt>
      <trkpt lat="41.8347" lon="9.21445">
        <ele>1316</ele>
        <time>2015-06-19T12:47:10Z</time>
      </trkpt>
      <trkpt lat="41.83485" lon="9.21436">
        <ele>1317.2</ele>
        <time>2015-06-19T12:48:07Z</time>
      </trkpt>
      <trkpt lat="41.83487" lon="9.21443">
        <ele>1319</ele>
        <time>2015-06-19T12:48:41Z</time>
      </trkpt>
      <trkpt lat="41.83491" lon="9.21443">
        <ele>1320.4</ele>
        <time>2015-06-19T12:48:50Z</time>
      </trkpt>
      <trkpt lat="41.83496" lon="9.21449">
        <ele>1321</ele>
        <time>2015-06-19T12:49:08Z</time>
      </trkpt>
      <trkpt lat="41.83501" lon="9.21448">
        <ele>1321.8</ele>
        <time>2015-06-19T12:49:19Z</time>
      </trkpt>
      <trkpt lat="41.83494" lon="9.21446">
        <ele>1322.6</ele>
        <time>2015-06-19T12:49:50Z</time>
      </trkpt>
      <trkpt lat="41.83494" lon="9.21445">
        <ele>1322.6</ele>
        <time>2015-06-19T12:49:52Z</time>
      </trkpt>
      <trkpt lat="41.83493" lon="9.21445">
        <ele>1322.4</ele>
        <time>2015-06-19T12:49:54Z</time>
      </trkpt>
      <trkpt lat="41.83489" lon="9.21444">
        <ele>1321</ele>
        <time>2015-06-19T12:50:06Z</time>
      </trkpt>
      <trkpt lat="41.83485" lon="9.21438">
        <ele>1320.6</ele>
        <time>2015-06-19T12:50:25Z</time>
      </trkpt>
      <trkpt lat="41.83488" lon="9.21432">
        <ele>1319.4</ele>
        <time>2015-06-19T12:50:35Z</time>
      </trkpt>
      <trkpt lat="41.83491" lon="9.21428">
        <ele>1318.6</ele>
        <time>2015-06-19T12:50:44Z</time>
      </trkpt>
      <trkpt lat="41.83491" lon="9.21423">
        <ele>1317.8</ele>
        <time>2015-06-19T12:50:50Z</time>
      </trkpt>
      <trkpt lat="41.83485" lon="9.21424">
        <ele>1317</ele>
        <time>2015-06-19T12:51:15Z</time>
      </trkpt>
      <trkpt lat="41.83482" lon="9.21426">
        <ele>1317</ele>
        <time>2015-06-19T12:51:17Z</time>
      </trkpt>
      <trkpt lat="41.83482" lon="9.21426">
        <ele>1316.8</ele>
        <time>2015-06-19T12:51:19Z</time>
      </trkpt>
      <trkpt lat="41.83478" lon="9.21434">
        <ele>1317</ele>
        <time>2015-06-19T12:51:29Z</time>
      </trkpt>
      <trkpt lat="41.8348" lon="9.21435">
        <ele>1317</ele>
        <time>2015-06-19T12:51:31Z</time>
      </trkpt>
      <trkpt lat="41.83483" lon="9.21441">
        <ele>1318</ele>
        <time>2015-06-19T12:52:09Z</time>
      </trkpt>
      <trkpt lat="41.83483" lon="9.21442">
        <ele>1318.6</ele>
        <time>2015-06-19T12:52:16Z</time>
      </trkpt>
      <trkpt lat="41.83483" lon="9.21442">
        <ele>1319</ele>
        <time>2015-06-19T12:52:19Z</time>
      </trkpt>
      <trkpt lat="41.8348" lon="9.21444">
        <ele>1319.4</ele>
        <time>2015-06-19T12:53:20Z</time>
      </trkpt>
      <trkpt lat="41.83482" lon="9.21437">
        <ele>1319.4</ele>
        <time>2015-06-19T12:54:24Z</time>
      </trkpt>
      <trkpt lat="41.8348" lon="9.21437">
        <ele>1318.8</ele>
        <time>2015-06-19T12:54:29Z</time>
      </trkpt>
      <trkpt lat="41.83483" lon="9.21432">
        <ele>1317.2</ele>
        <time>2015-06-19T12:54:51Z</time>
      </trkpt>
      <trkpt lat="41.83475" lon="9.21429">
        <ele>1316.2</ele>
        <time>2015-06-19T12:55:11Z</time>
      </trkpt>
      <trkpt lat="41.8347" lon="9.21426">
        <ele>1316.8</ele>
        <time>2015-06-19T12:56:01Z</time>
      </trkpt>
      <trkpt lat="41.83462" lon="9.21426">
        <ele>1317.4</ele>
        <time>2015-06-19T12:56:08Z</time>
      </trkpt>
      <trkpt lat="41.83462" lon="9.21423">
        <ele>1317.6</ele>
        <time>2015-06-19T12:56:11Z</time>
      </trkpt>
      <trkpt lat="41.83462" lon="9.21422">
        <ele>1317.8</ele>
        <time>2015-06-19T12:56:12Z</time>
      </trkpt>
      <trkpt lat="41.8346" lon="9.2142">
        <ele>1318</ele>
        <time>2015-06-19T12:56:15Z</time>
      </trkpt>
      <trkpt lat="41.83459" lon="9.2142">
        <ele>1318.4</ele>
        <time>2015-06-19T12:56:17Z</time>
      </trkpt>
      <trkpt lat="41.83458" lon="9.21419">
        <ele>1318.4</ele>
        <time>2015-06-19T12:56:18Z</time>
      </trkpt>
      <trkpt lat="41.8345" lon="9.21416">
        <ele>1320.4</ele>
        <time>2015-06-19T12:56:29Z</time>
      </trkpt>
      <trkpt lat="41.83451" lon="9.21408">
        <ele>1321</ele>
        <time>2015-06-19T12:56:36Z</time>
      </trkpt>
      <trkpt lat="41.83452" lon="9.21405">
        <ele>1321</ele>
        <time>2015-06-19T12:56:38Z</time>
      </trkpt>
      <trkpt lat="41.83456" lon="9.21383">
        <ele>1321.4</ele>
        <time>2015-06-19T12:56:53Z</time>
      </trkpt>
      <trkpt lat="41.83458" lon="9.21378">
        <ele>1321</ele>
        <time>2015-06-19T12:56:57Z</time>
      </trkpt>
      <trkpt lat="41.8346" lon="9.21366">
        <ele>1320.6</ele>
        <time>2015-06-19T12:57:06Z</time>
      </trkpt>
      <trkpt lat="41.83463" lon="9.21349">
        <ele>1320.4</ele>
        <time>2015-06-19T12:57:21Z</time>
      </trkpt>
      <trkpt lat="41.83477" lon="9.21338">
        <ele>1320.4</ele>
        <time>2015-06-19T12:57:45Z</time>
      </trkpt>
      <trkpt lat="41.83472" lon="9.21339">
        <ele>1321.2</ele>
        <time>2015-06-19T12:57:52Z</time>
      </trkpt>
      <trkpt lat="41.83469" lon="9.21341">
        <ele>1320.8</ele>
        <time>2015-06-19T12:57:56Z</time>
      </trkpt>
      <trkpt lat="41.83452" lon="9.2139">
        <ele>1321.2</ele>
        <time>2015-06-19T12:58:34Z</time>
      </trkpt>
      <trkpt lat="41.83455" lon="9.21399">
        <ele>1321.4</ele>
        <time>2015-06-19T12:58:41Z</time>
      </trkpt>
      <trkpt lat="41.83463" lon="9.21406">
        <ele>1322.2</ele>
        <time>2015-06-19T12:58:49Z</time>
      </trkpt>
      <trkpt lat="41.83465" lon="9.21406">
        <ele>1322.4</ele>
        <time>2015-06-19T12:58:51Z</time>
      </trkpt>
      <trkpt lat="41.83472" lon="9.21409">
        <ele>1323.8</ele>
        <time>2015-06-19T12:59:02Z</time>
      </trkpt>
      <trkpt lat="41.83478" lon="9.21403">
        <ele>1324.8</ele>
        <time>2015-06-19T12:59:12Z</time>
      </trkpt>
      <trkpt lat="41.8348" lon="9.21403">
        <ele>1325.4</ele>
        <time>2015-06-19T12:59:18Z</time>
      </trkpt>
      <trkpt lat="41.83487" lon="9.21403">
        <ele>1326.6</ele>
        <time>2015-06-19T12:59:24Z</time>
      </trkpt>
      <trkpt lat="41.83488" lon="9.21401">
        <ele>1327</ele>
        <time>2015-06-19T12:59:27Z</time>
      </trkpt>
      <trkpt lat="41.83488" lon="9.21399">
        <ele>1327.2</ele>
        <time>2015-06-19T12:59:31Z</time>
      </trkpt>
      <trkpt lat="41.83489" lon="9.21395">
        <ele>1328.2</ele>
        <time>2015-06-19T12:59:41Z</time>
      </trkpt>
      <trkpt lat="41.83491" lon="9.2139">
        <ele>1329.4</ele>
        <time>2015-06-19T12:59:50Z</time>
      </trkpt>
      <trkpt lat="41.83493" lon="9.21385">
        <ele>1330.8</ele>
        <time>2015-06-19T13:00:01Z</time>
      </trkpt>
      <trkpt lat="41.83497" lon="9.21386">
        <ele>1332</ele>
        <time>2015-06-19T13:00:12Z</time>
      </trkpt>
      <trkpt lat="41.83503" lon="9.2138">
        <ele>1333.4</ele>
        <time>2015-06-19T13:00:28Z</time>
      </trkpt>
      <trkpt lat="41.83506" lon="9.21383">
        <ele>1334.4</ele>
        <time>2015-06-19T13:00:39Z</time>
      </trkpt>
      <trkpt lat="41.83512" lon="9.21384">
        <ele>1335.6</ele>
        <time>2015-06-19T13:00:49Z</time>
      </trkpt>
      <trkpt lat="41.83518" lon="9.21388">
        <ele>1337.2</ele>
        <time>2015-06-19T13:01:03Z</time>
      </trkpt>
      <trkpt lat="41.8352" lon="9.21391">
        <ele>1337.8</ele>
        <time>2015-06-19T13:01:13Z</time>
      </trkpt>
      <trkpt lat="41.83525" lon="9.21391">
        <ele>1339.2</ele>
        <time>2015-06-19T13:01:26Z</time>
      </trkpt>
      <trkpt lat="41.83529" lon="9.21391">
        <ele>1340.6</ele>
        <time>2015-06-19T13:01:42Z</time>
      </trkpt>
      <trkpt lat="41.83536" lon="9.21392">
        <ele>1341.8</ele>
        <time>2015-06-19T13:02:09Z</time>
      </trkpt>
      <trkpt lat="41.83542" lon="9.21388">
        <ele>1343.6</ele>
        <time>2015-06-19T13:02:21Z</time>
      </trkpt>
      <trkpt lat="41.83547" lon="9.21387">
        <ele>1344.4</ele>
        <time>2015-06-19T13:02:32Z</time>
      </trkpt>
      <trkpt lat="41.83553" lon="9.21385">
        <ele>1345.8</ele>
        <time>2015-06-19T13:02:45Z</time>
      </trkpt>
      <trkpt lat="41.83557" lon="9.21387">
        <ele>1346.8</ele>
        <time>2015-06-19T13:02:54Z</time>
      </trkpt>
      <trkpt lat="41.83562" lon="9.21383">
        <ele>1347.8</ele>
        <time>2015-06-19T13:03:04Z</time>
      </trkpt>
      <trkpt lat="41.83565" lon="9.21382">
        <ele>1349</ele>
        <time>2015-06-19T13:03:14Z</time>
      </trkpt>
      <trkpt lat="41.8357" lon="9.21379">
        <ele>1350.2</ele>
        <time>2015-06-19T13:03:24Z</time>
      </trkpt>
      <trkpt lat="41.83573" lon="9.21378">
        <ele>1351.4</ele>
        <time>2015-06-19T13:03:36Z</time>
      </trkpt>
      <trkpt lat="41.83578" lon="9.21381">
        <ele>1353</ele>
        <time>2015-06-19T13:03:48Z</time>
      </trkpt>
      <trkpt lat="41.83588" lon="9.2138">
        <ele>1354</ele>
        <time>2015-06-19T13:04:01Z</time>
      </trkpt>
      <trkpt lat="41.83592" lon="9.21379">
        <ele>1354.8</ele>
        <time>2015-06-19T13:04:09Z</time>
      </trkpt>
      <trkpt lat="41.83598" lon="9.21379">
        <ele>1356</ele>
        <time>2015-06-19T13:04:19Z</time>
      </trkpt>
      <trkpt lat="41.83601" lon="9.21379">
        <ele>1357.2</ele>
        <time>2015-06-19T13:04:28Z</time>
      </trkpt>
      <trkpt lat="41.83607" lon="9.21375">
        <ele>1358.2</ele>
        <time>2015-06-19T13:04:36Z</time>
      </trkpt>
      <trkpt lat="41.83609" lon="9.21373">
        <ele>1358.8</ele>
        <time>2015-06-19T13:04:40Z</time>
      </trkpt>
      <trkpt lat="41.83609" lon="9.2137">
        <ele>1359.4</ele>
        <time>2015-06-19T13:04:49Z</time>
      </trkpt>
      <trkpt lat="41.83614" lon="9.21366">
        <ele>1360.8</ele>
        <time>2015-06-19T13:04:59Z</time>
      </trkpt>
      <trkpt lat="41.83615" lon="9.21367">
        <ele>1361.6</ele>
        <time>2015-06-19T13:05:06Z</time>
      </trkpt>
      <trkpt lat="41.83617" lon="9.21368">
        <ele>1362.8</ele>
        <time>2015-06-19T13:05:15Z</time>
      </trkpt>
      <trkpt lat="41.83618" lon="9.21368">
        <ele>1364.2</ele>
        <time>2015-06-19T13:05:26Z</time>
      </trkpt>
      <trkpt lat="41.8362" lon="9.21367">
        <ele>1365.2</ele>
        <time>2015-06-19T13:05:35Z</time>
      </trkpt>
      <trkpt lat="41.83624" lon="9.21363">
        <ele>1366.4</ele>
        <time>2015-06-19T13:05:50Z</time>
      </trkpt>
      <trkpt lat="41.83625" lon="9.21363">
        <ele>1367.4</ele>
        <time>2015-06-19T13:05:58Z</time>
      </trkpt>
      <trkpt lat="41.83628" lon="9.21362">
        <ele>1368.6</ele>
        <time>2015-06-19T13:06:06Z</time>
      </trkpt>
      <trkpt lat="41.83629" lon="9.21361">
        <ele>1370</ele>
        <time>2015-06-19T13:06:16Z</time>
      </trkpt>
      <trkpt lat="41.83636" lon="9.21359">
        <ele>1370.6</ele>
        <time>2015-06-19T13:06:24Z</time>
      </trkpt>
      <trkpt lat="41.83644" lon="9.2136">
        <ele>1372.2</ele>
        <time>2015-06-19T13:06:37Z</time>
      </trkpt>
      <trkpt lat="41.83649" lon="9.21355">
        <ele>1372.8</ele>
        <time>2015-06-19T13:06:47Z</time>
      </trkpt>
      <trkpt lat="41.8365" lon="9.21356">
        <ele>1373.2</ele>
        <time>2015-06-19T13:06:50Z</time>
      </trkpt>
      <trkpt lat="41.83655" lon="9.2136">
        <ele>1374.6</ele>
        <time>2015-06-19T13:07:05Z</time>
      </trkpt>
      <trkpt lat="41.83656" lon="9.21358">
        <ele>1375.2</ele>
        <time>2015-06-19T13:07:13Z</time>
      </trkpt>
      <trkpt lat="41.83657" lon="9.21354">
        <ele>1376.4</ele>
        <time>2015-06-19T13:07:21Z</time>
      </trkpt>
      <trkpt lat="41.83661" lon="9.21353">
        <ele>1377.6</ele>
        <time>2015-06-19T13:07:31Z</time>
      </trkpt>
      <trkpt lat="41.83661" lon="9.21355">
        <ele>1378.6</ele>
        <time>2015-06-19T13:07:40Z</time>
      </trkpt>
      <trkpt lat="41.83664" lon="9.21351">
        <ele>1380.2</ele>
        <time>2015-06-19T13:07:54Z</time>
      </trkpt>
      <trkpt lat="41.83666" lon="9.21349">
        <ele>1381</ele>
        <time>2015-06-19T13:08:04Z</time>
      </trkpt>
      <trkpt lat="41.8367" lon="9.21346">
        <ele>1382</ele>
        <time>2015-06-19T13:08:13Z</time>
      </trkpt>
      <trkpt lat="41.83672" lon="9.21341">
        <ele>1383.2</ele>
        <time>2015-06-19T13:08:21Z</time>
      </trkpt>
      <trkpt lat="41.83679" lon="9.21339">
        <ele>1384.8</ele>
        <time>2015-06-19T13:08:49Z</time>
      </trkpt>
      <trkpt lat="41.83684" lon="9.21347">
        <ele>1385.8</ele>
        <time>2015-06-19T13:08:58Z</time>
      </trkpt>
      <trkpt lat="41.83687" lon="9.21342">
        <ele>1387.2</ele>
        <time>2015-06-19T13:09:10Z</time>
      </trkpt>
      <trkpt lat="41.83692" lon="9.21335">
        <ele>1388.8</ele>
        <time>2015-06-19T13:09:29Z</time>
      </trkpt>
      <trkpt lat="41.83694" lon="9.2133">
        <ele>1389.4</ele>
        <time>2015-06-19T13:09:37Z</time>
      </trkpt>
      <trkpt lat="41.83698" lon="9.21324">
        <ele>1390.8</ele>
        <time>2015-06-19T13:09:50Z</time>
      </trkpt>
      <trkpt lat="41.83702" lon="9.21319">
        <ele>1391.8</ele>
        <time>2015-06-19T13:10:02Z</time>
      </trkpt>
      <trkpt lat="41.83705" lon="9.21312">
        <ele>1393.6</ele>
        <time>2015-06-19T13:10:19Z</time>
      </trkpt>
      <trkpt lat="41.83709" lon="9.21308">
        <ele>1394.2</ele>
        <time>2015-06-19T13:10:29Z</time>
      </trkpt>
      <trkpt lat="41.83713" lon="9.21304">
        <ele>1395.6</ele>
        <time>2015-06-19T13:10:40Z</time>
      </trkpt>
      <trkpt lat="41.83717" lon="9.21307">
        <ele>1396.8</ele>
        <time>2015-06-19T13:10:52Z</time>
      </trkpt>
      <trkpt lat="41.8372" lon="9.21303">
        <ele>1397.8</ele>
        <time>2015-06-19T13:11:02Z</time>
      </trkpt>
      <trkpt lat="41.83723" lon="9.21301">
        <ele>1399</ele>
        <time>2015-06-19T13:11:09Z</time>
      </trkpt>
      <trkpt lat="41.83728" lon="9.21297">
        <ele>1400.4</ele>
        <time>2015-06-19T13:11:27Z</time>
      </trkpt>
      <trkpt lat="41.83728" lon="9.21297">
        <ele>1400.4</ele>
        <time>2015-06-19T13:11:29Z</time>
      </trkpt>
      <trkpt lat="41.83731" lon="9.21293">
        <ele>1401.4</ele>
        <time>2015-06-19T13:11:42Z</time>
      </trkpt>
      <trkpt lat="41.83733" lon="9.21292">
        <ele>1402.8</ele>
        <time>2015-06-19T13:11:54Z</time>
      </trkpt>
      <trkpt lat="41.83736" lon="9.21293">
        <ele>1403.6</ele>
        <time>2015-06-19T13:12:02Z</time>
      </trkpt>
      <trkpt lat="41.83739" lon="9.21287">
        <ele>1405</ele>
        <time>2015-06-19T13:12:16Z</time>
      </trkpt>
      <trkpt lat="41.83742" lon="9.21283">
        <ele>1406.2</ele>
        <time>2015-06-19T13:12:28Z</time>
      </trkpt>
      <trkpt lat="41.83746" lon="9.21272">
        <ele>1407.6</ele>
        <time>2015-06-19T13:12:42Z</time>
      </trkpt>
      <trkpt lat="41.8375" lon="9.21268">
        <ele>1408.4</ele>
        <time>2015-06-19T13:12:52Z</time>
      </trkpt>
      <trkpt lat="41.83751" lon="9.21265">
        <ele>1408.8</ele>
        <time>2015-06-19T13:12:55Z</time>
      </trkpt>
      <trkpt lat="41.83755" lon="9.21261">
        <ele>1409.6</ele>
        <time>2015-06-19T13:13:08Z</time>
      </trkpt>
      <trkpt lat="41.83754" lon="9.21228">
        <ele>1411.4</ele>
        <time>2015-06-19T13:13:54Z</time>
      </trkpt>
      <trkpt lat="41.83754" lon="9.21216">
        <ele>1412.4</ele>
        <time>2015-06-19T13:14:13Z</time>
      </trkpt>
      <trkpt lat="41.83757" lon="9.21215">
        <ele>1413.8</ele>
        <time>2015-06-19T13:14:27Z</time>
      </trkpt>
      <trkpt lat="41.8376" lon="9.21216">
        <ele>1414.4</ele>
        <time>2015-06-19T13:14:34Z</time>
      </trkpt>
      <trkpt lat="41.83763" lon="9.21211">
        <ele>1415.6</ele>
        <time>2015-06-19T13:14:45Z</time>
      </trkpt>
      <trkpt lat="41.83763" lon="9.21208">
        <ele>1416.8</ele>
        <time>2015-06-19T13:14:53Z</time>
      </trkpt>
      <trkpt lat="41.83764" lon="9.21204">
        <ele>1418.2</ele>
        <time>2015-06-19T13:15:04Z</time>
      </trkpt>
      <trkpt lat="41.83768" lon="9.21206">
        <ele>1419.2</ele>
        <time>2015-06-19T13:15:16Z</time>
      </trkpt>
      <trkpt lat="41.83769" lon="9.21204">
        <ele>1420.4</ele>
        <time>2015-06-19T13:15:26Z</time>
      </trkpt>
      <trkpt lat="41.83771" lon="9.21201">
        <ele>1421.2</ele>
        <time>2015-06-19T13:15:34Z</time>
      </trkpt>
      <trkpt lat="41.83772" lon="9.21201">
        <ele>1422.4</ele>
        <time>2015-06-19T13:15:41Z</time>
      </trkpt>
      <trkpt lat="41.83774" lon="9.21202">
        <ele>1423.6</ele>
        <time>2015-06-19T13:15:48Z</time>
      </trkpt>
      <trkpt lat="41.83774" lon="9.21202">
        <ele>1424</ele>
        <time>2015-06-19T13:15:52Z</time>
      </trkpt>
      <trkpt lat="41.83777" lon="9.212">
        <ele>1425.2</ele>
        <time>2015-06-19T13:16:05Z</time>
      </trkpt>
      <trkpt lat="41.83781" lon="9.21199">
        <ele>1426</ele>
        <time>2015-06-19T13:16:15Z</time>
      </trkpt>
      <trkpt lat="41.83783" lon="9.21198">
        <ele>1427</ele>
        <time>2015-06-19T13:16:24Z</time>
      </trkpt>
      <trkpt lat="41.83785" lon="9.21194">
        <ele>1428.4</ele>
        <time>2015-06-19T13:16:36Z</time>
      </trkpt>
      <trkpt lat="41.83788" lon="9.21191">
        <ele>1429.8</ele>
        <time>2015-06-19T13:16:46Z</time>
      </trkpt>
      <trkpt lat="41.8379" lon="9.21189">
        <ele>1430.6</ele>
        <time>2015-06-19T13:16:57Z</time>
      </trkpt>
      <trkpt lat="41.83792" lon="9.21186">
        <ele>1431.6</ele>
        <time>2015-06-19T13:17:04Z</time>
      </trkpt>
      <trkpt lat="41.83794" lon="9.21181">
        <ele>1433.4</ele>
        <time>2015-06-19T13:17:18Z</time>
      </trkpt>
      <trkpt lat="41.83795" lon="9.21181">
        <ele>1434.4</ele>
        <time>2015-06-19T13:17:29Z</time>
      </trkpt>
      <trkpt lat="41.83795" lon="9.2118">
        <ele>1434.4</ele>
        <time>2015-06-19T13:17:30Z</time>
      </trkpt>
      <trkpt lat="41.83798" lon="9.21182">
        <ele>1435.2</ele>
        <time>2015-06-19T13:17:39Z</time>
      </trkpt>
      <trkpt lat="41.83804" lon="9.21191">
        <ele>1436.8</ele>
        <time>2015-06-19T13:18:03Z</time>
      </trkpt>
      <trkpt lat="41.83808" lon="9.21198">
        <ele>1438.2</ele>
        <time>2015-06-19T13:18:19Z</time>
      </trkpt>
      <trkpt lat="41.83812" lon="9.212">
        <ele>1439.4</ele>
        <time>2015-06-19T13:18:33Z</time>
      </trkpt>
      <trkpt lat="41.83815" lon="9.21196">
        <ele>1440.4</ele>
        <time>2015-06-19T13:18:43Z</time>
      </trkpt>
      <trkpt lat="41.83817" lon="9.2119">
        <ele>1441.4</ele>
        <time>2015-06-19T13:18:58Z</time>
      </trkpt>
      <trkpt lat="41.83817" lon="9.21184">
        <ele>1442.8</ele>
        <time>2015-06-19T13:19:12Z</time>
      </trkpt>
      <trkpt lat="41.83822" lon="9.21181">
        <ele>1444.4</ele>
        <time>2015-06-19T13:19:27Z</time>
      </trkpt>
      <trkpt lat="41.83825" lon="9.2118">
        <ele>1445.2</ele>
        <time>2015-06-19T13:19:44Z</time>
      </trkpt>
      <trkpt lat="41.83829" lon="9.21176">
        <ele>1446.6</ele>
        <time>2015-06-19T13:19:58Z</time>
      </trkpt>
      <trkpt lat="41.83832" lon="9.21175">
        <ele>1447.8</ele>
        <time>2015-06-19T13:20:12Z</time>
      </trkpt>
      <trkpt lat="41.83836" lon="9.21176">
        <ele>1448.6</ele>
        <time>2015-06-19T13:20:23Z</time>
      </trkpt>
      <trkpt lat="41.83838" lon="9.21174">
        <ele>1449.8</ele>
        <time>2015-06-19T13:20:35Z</time>
      </trkpt>
      <trkpt lat="41.83842" lon="9.21173">
        <ele>1450.8</ele>
        <time>2015-06-19T13:20:42Z</time>
      </trkpt>
      <trkpt lat="41.83845" lon="9.21174">
        <ele>1452</ele>
        <time>2015-06-19T13:20:52Z</time>
      </trkpt>
      <trkpt lat="41.8385" lon="9.21175">
        <ele>1453</ele>
        <time>2015-06-19T13:21:04Z</time>
      </trkpt>
      <trkpt lat="41.83852" lon="9.21175">
        <ele>1454</ele>
        <time>2015-06-19T13:21:11Z</time>
      </trkpt>
      <trkpt lat="41.83856" lon="9.21173">
        <ele>1455.8</ele>
        <time>2015-06-19T13:21:23Z</time>
      </trkpt>
      <trkpt lat="41.83858" lon="9.21174">
        <ele>1457</ele>
        <time>2015-06-19T13:21:34Z</time>
      </trkpt>
      <trkpt lat="41.8386" lon="9.21174">
        <ele>1458.2</ele>
        <time>2015-06-19T13:21:44Z</time>
      </trkpt>
      <trkpt lat="41.83867" lon="9.21182">
        <ele>1459.6</ele>
        <time>2015-06-19T13:22:09Z</time>
      </trkpt>
      <trkpt lat="41.83869" lon="9.21176">
        <ele>1460.4</ele>
        <time>2015-06-19T13:22:22Z</time>
      </trkpt>
      <trkpt lat="41.83872" lon="9.21174">
        <ele>1461</ele>
        <time>2015-06-19T13:22:28Z</time>
      </trkpt>
      <trkpt lat="41.83875" lon="9.21174">
        <ele>1462.8</ele>
        <time>2015-06-19T13:22:49Z</time>
      </trkpt>
      <trkpt lat="41.83877" lon="9.21176">
        <ele>1464</ele>
        <time>2015-06-19T13:23:02Z</time>
      </trkpt>
      <trkpt lat="41.83882" lon="9.21178">
        <ele>1465</ele>
        <time>2015-06-19T13:23:15Z</time>
      </trkpt>
      <trkpt lat="41.83885" lon="9.21174">
        <ele>1466</ele>
        <time>2015-06-19T13:23:28Z</time>
      </trkpt>
      <trkpt lat="41.83888" lon="9.21174">
        <ele>1466.6</ele>
        <time>2015-06-19T13:23:35Z</time>
      </trkpt>
      <trkpt lat="41.83891" lon="9.21172">
        <ele>1468</ele>
        <time>2015-06-19T13:23:45Z</time>
      </trkpt>
      <trkpt lat="41.83892" lon="9.21172">
        <ele>1469</ele>
        <time>2015-06-19T13:23:53Z</time>
      </trkpt>
      <trkpt lat="41.83895" lon="9.21174">
        <ele>1470.4</ele>
        <time>2015-06-19T13:24:05Z</time>
      </trkpt>
      <trkpt lat="41.83899" lon="9.2118">
        <ele>1471.8</ele>
        <time>2015-06-19T13:24:20Z</time>
      </trkpt>
      <trkpt lat="41.83903" lon="9.2118">
        <ele>1472.6</ele>
        <time>2015-06-19T13:24:31Z</time>
      </trkpt>
      <trkpt lat="41.83907" lon="9.21179">
        <ele>1474.2</ele>
        <time>2015-06-19T13:24:44Z</time>
      </trkpt>
      <trkpt lat="41.83909" lon="9.21182">
        <ele>1475</ele>
        <time>2015-06-19T13:24:53Z</time>
      </trkpt>
      <trkpt lat="41.83913" lon="9.21184">
        <ele>1475.8</ele>
        <time>2015-06-19T13:25:05Z</time>
      </trkpt>
      <trkpt lat="41.83915" lon="9.21184">
        <ele>1477.2</ele>
        <time>2015-06-19T13:25:20Z</time>
      </trkpt>
      <trkpt lat="41.83918" lon="9.21183">
        <ele>1478.2</ele>
        <time>2015-06-19T13:25:32Z</time>
      </trkpt>
      <trkpt lat="41.8392" lon="9.21182">
        <ele>1478.8</ele>
        <time>2015-06-19T13:25:39Z</time>
      </trkpt>
      <trkpt lat="41.83921" lon="9.21177">
        <ele>1480</ele>
        <time>2015-06-19T13:25:51Z</time>
      </trkpt>
      <trkpt lat="41.83924" lon="9.21174">
        <ele>1481.8</ele>
        <time>2015-06-19T13:26:08Z</time>
      </trkpt>
      <trkpt lat="41.83928" lon="9.21173">
        <ele>1482.6</ele>
        <time>2015-06-19T13:26:20Z</time>
      </trkpt>
      <trkpt lat="41.83931" lon="9.21172">
        <ele>1483.4</ele>
        <time>2015-06-19T13:26:28Z</time>
      </trkpt>
      <trkpt lat="41.83932" lon="9.21173">
        <ele>1485</ele>
        <time>2015-06-19T13:26:42Z</time>
      </trkpt>
      <trkpt lat="41.83936" lon="9.21173">
        <ele>1486</ele>
        <time>2015-06-19T13:26:52Z</time>
      </trkpt>
      <trkpt lat="41.83939" lon="9.21172">
        <ele>1486.8</ele>
        <time>2015-06-19T13:27:01Z</time>
      </trkpt>
      <trkpt lat="41.83944" lon="9.21174">
        <ele>1488.6</ele>
        <time>2015-06-19T13:27:13Z</time>
      </trkpt>
      <trkpt lat="41.83948" lon="9.21175">
        <ele>1489.8</ele>
        <time>2015-06-19T13:27:26Z</time>
      </trkpt>
      <trkpt lat="41.83953" lon="9.21174">
        <ele>1490.4</ele>
        <time>2015-06-19T13:27:38Z</time>
      </trkpt>
      <trkpt lat="41.83954" lon="9.21174">
        <ele>1490.4</ele>
        <time>2015-06-19T13:27:40Z</time>
      </trkpt>
      <trkpt lat="41.83956" lon="9.21175">
        <ele>1491.2</ele>
        <time>2015-06-19T13:27:48Z</time>
      </trkpt>
      <trkpt lat="41.83961" lon="9.21174">
        <ele>1492.8</ele>
        <time>2015-06-19T13:28:01Z</time>
      </trkpt>
      <trkpt lat="41.83964" lon="9.21174">
        <ele>1493.6</ele>
        <time>2015-06-19T13:28:10Z</time>
      </trkpt>
      <trkpt lat="41.83967" lon="9.21171">
        <ele>1495</ele>
        <time>2015-06-19T13:28:20Z</time>
      </trkpt>
      <trkpt lat="41.83971" lon="9.21171">
        <ele>1496</ele>
        <time>2015-06-19T13:28:31Z</time>
      </trkpt>
      <trkpt lat="41.83973" lon="9.2117">
        <ele>1496.8</ele>
        <time>2015-06-19T13:28:40Z</time>
      </trkpt>
      <trkpt lat="41.83975" lon="9.21169">
        <ele>1497.8</ele>
        <time>2015-06-19T13:28:52Z</time>
      </trkpt>
      <trkpt lat="41.83978" lon="9.21169">
        <ele>1498.8</ele>
        <time>2015-06-19T13:29:02Z</time>
      </trkpt>
      <trkpt lat="41.83981" lon="9.21169">
        <ele>1500</ele>
        <time>2015-06-19T13:29:12Z</time>
      </trkpt>
      <trkpt lat="41.83984" lon="9.21168">
        <ele>1501.2</ele>
        <time>2015-06-19T13:29:24Z</time>
      </trkpt>
      <trkpt lat="41.83986" lon="9.21171">
        <ele>1502</ele>
        <time>2015-06-19T13:29:35Z</time>
      </trkpt>
      <trkpt lat="41.83991" lon="9.21171">
        <ele>1503.4</ele>
        <time>2015-06-19T13:29:46Z</time>
      </trkpt>
      <trkpt lat="41.83994" lon="9.21173">
        <ele>1504</ele>
        <time>2015-06-19T13:29:55Z</time>
      </trkpt>
      <trkpt lat="41.83999" lon="9.2118">
        <ele>1505.6</ele>
        <time>2015-06-19T13:30:11Z</time>
      </trkpt>
      <trkpt lat="41.84003" lon="9.21195">
        <ele>1506.4</ele>
        <time>2015-06-19T13:30:29Z</time>
      </trkpt>
      <trkpt lat="41.84015" lon="9.21211">
        <ele>1507.4</ele>
        <time>2015-06-19T13:30:55Z</time>
      </trkpt>
      <trkpt lat="41.84038" lon="9.21233">
        <ele>1507</ele>
        <time>2015-06-19T13:31:58Z</time>
      </trkpt>
      <trkpt lat="41.8404" lon="9.2124">
        <ele>1506.8</ele>
        <time>2015-06-19T13:32:16Z</time>
      </trkpt>
      <trkpt lat="41.84036" lon="9.2125">
        <ele>1508</ele>
        <time>2015-06-19T13:32:30Z</time>
      </trkpt>
      <trkpt lat="41.84037" lon="9.21254">
        <ele>1509</ele>
        <time>2015-06-19T13:32:41Z</time>
      </trkpt>
      <trkpt lat="41.84036" lon="9.21257">
        <ele>1510</ele>
        <time>2015-06-19T13:32:53Z</time>
      </trkpt>
      <trkpt lat="41.84038" lon="9.21264">
        <ele>1511</ele>
        <time>2015-06-19T13:33:03Z</time>
      </trkpt>
      <trkpt lat="41.84052" lon="9.2128">
        <ele>1512</ele>
        <time>2015-06-19T13:33:52Z</time>
      </trkpt>
      <trkpt lat="41.84052" lon="9.21281">
        <ele>1512.2</ele>
        <time>2015-06-19T13:33:53Z</time>
      </trkpt>
      <trkpt lat="41.84096" lon="9.21287">
        <ele>1508.8</ele>
        <time>2015-06-19T13:37:21Z</time>
      </trkpt>
      <trkpt lat="41.84102" lon="9.21282">
        <ele>1510.4</ele>
        <time>2015-06-19T13:37:37Z</time>
      </trkpt>
      <trkpt lat="41.84107" lon="9.21286">
        <ele>1510.6</ele>
        <time>2015-06-19T13:37:54Z</time>
      </trkpt>
      <trkpt lat="41.8411" lon="9.21291">
        <ele>1511.4</ele>
        <time>2015-06-19T13:38:05Z</time>
      </trkpt>
      <trkpt lat="41.84112" lon="9.21301">
        <ele>1512.6</ele>
        <time>2015-06-19T13:38:22Z</time>
      </trkpt>
      <trkpt lat="41.84121" lon="9.21306">
        <ele>1513.6</ele>
        <time>2015-06-19T13:38:37Z</time>
      </trkpt>
      <trkpt lat="41.84122" lon="9.21324">
        <ele>1513.2</ele>
        <time>2015-06-19T13:39:04Z</time>
      </trkpt>
      <trkpt lat="41.84144" lon="9.21363">
        <ele>1513.4</ele>
        <time>2015-06-19T13:40:07Z</time>
      </trkpt>
      <trkpt lat="41.84147" lon="9.2137">
        <ele>1514.6</ele>
        <time>2015-06-19T13:40:22Z</time>
      </trkpt>
      <trkpt lat="41.84148" lon="9.21379">
        <ele>1515.6</ele>
        <time>2015-06-19T13:40:33Z</time>
      </trkpt>
      <trkpt lat="41.8415" lon="9.21395">
        <ele>1516.4</ele>
        <time>2015-06-19T13:41:00Z</time>
      </trkpt>
      <trkpt lat="41.84152" lon="9.21399">
        <ele>1517.6</ele>
        <time>2015-06-19T13:41:10Z</time>
      </trkpt>
      <trkpt lat="41.84151" lon="9.21404">
        <ele>1518.4</ele>
        <time>2015-06-19T13:41:17Z</time>
      </trkpt>
      <trkpt lat="41.8415" lon="9.21411">
        <ele>1520</ele>
        <time>2015-06-19T13:41:26Z</time>
      </trkpt>
      <trkpt lat="41.84151" lon="9.21413">
        <ele>1519.6</ele>
        <time>2015-06-19T13:41:30Z</time>
      </trkpt>
      <trkpt lat="41.84151" lon="9.21414">
        <ele>1519.8</ele>
        <time>2015-06-19T13:41:32Z</time>
      </trkpt>
    </trkseg>
  </trk>
</gpx>